[[{"header":{"parameterUnit":"m.s-1","parameterCategory":1,"la1":31.0,"la2":29.5877,"lo1":-88.7671,"lo2":-86.6584,"dx":0.0162,"dy":0.0185,"nx":115,"ny":88,"refTime":"2022-11-24T06:00:00:Z","depth":0,"parameterNumber":2,"parameterNumberName":"U-component_of_WINDS"},"data":[0.0,0.0,0.0,0.0,0.0,0.0,0.0,0.0,0.0,0.0,0.0,0.0,0.0,0.0,0.0,0.0,0.0,0.0,0.0,0.0,0.0,0.0,0.0,0.0,0.0,0.0,0.0,0.0,0.0,0.0,0.0,0.0,0.0,0.0,0.0,0.0,0.0,0.0,0.0,0.0,0.0,0.0,0.0,0.0,0.0,0.0,0.0,0.0,0.0,0.0,0.0,0.0,0.0,0.0,0.0,0.0,0.0,0.0,0.0,0.0,0.0,0.0,0.0,0.0,0.0,0.0,0.0,0.0,0.0,0.0,0.0,0.0,0.0,0.0,0.0,0.0,0.0,0.0,0.0,0.0,0.0,0.0,0.0,0.0,0.0,0.0,0.0,0.0,0.0,0.0,0.0,0.0,0.0,0.0,0.0,0.0,0.0,0.0,0.0,0.0,0.0,0.0,0.0,0.0,0.0,0.0,0.0,0.0,0.0,0.0,0.0,0.0,0.0,0.0,0.0,0.0,0.0,0.0,0.0,0.0,0.0,0.0,0.0,0.0,0.0,0.0,0.0,0.0,0.0,0.0,0.0,0.0,0.0,0.0,0.0,0.0,0.0,0.0,0.0,0.0,0.0,0.0,0.0,0.0,0.0,0.0,0.0,0.0,0.0,0.0,0.0,0.0,0.0,0.0,0.0,0.0,0.0,0.0,0.0,0.0,0.0,0.0,0.0,0.0,0.0,0.0,0.0,0.0,0.0,0.0,0.0,0.0,0.0,0.0,0.0,0.0,0.0,0.0,0.0,0.0,0.0,0.0,0.0,0.0,0.0,0.0,0.0,0.0,0.0,0.0,0.0,0.0,0.0,0.0,0.0,0.0,0.0,0.0,0.0,0.0,0.0,0.0,0.0,0.0,0.0,0.0,0.0,0.0,0.0,0.0,0.0,0.0,0.0,0.0,0.0,0.0,0.0,0.0,0.0,0.0,0.0,0.0,0.0,0.0,0.0,0.0,0.0,0.0,0.0,0.0,0.0,0.0,0.0,0.0,0.0,0.0,0.0,0.0,0.0,0.0,0.0,0.0,0.0,0.0,0.0,0.0,0.0,0.0,0.0,0.0,0.0,0.0,0.0,0.0,0.0,0.0,0.0,0.0,0.0,0.0,0.0,0.0,0.0,0.0,0.0,0.0,0.0,0.0,0.0,0.0,0.0,0.0,0.0,0.0,0.0,0.0,0.0,0.0,0.0,0.0,0.0,0.0,0.0,0.0,0.0,0.0,0.0,0.0,0.0,0.0,0.0,0.0,0.0,0.0,0.0,0.0,0.0,0.0,0.0,0.0,0.0,0.0,0.0,0.0,0.0,0.0,0.0,0.0,0.0,0.0,0.0,0.0,0.0,0.0,0.0,0.0,0.0,0.0,0.0,0.0,0.0,0.0,0.0,0.0,0.0,0.0,0.0,0.0,0.0,0.0,0.0,0.0,0.0,0.0,0.0,0.0,0.0,0.0,0.0,0.0,0.0,0.0,0.0,0.0,0.0,0.0,0.0,0.0,0.0,0.0,0.0,0.0,0.0,0.0,0.0,0.0,0.0,0.0,0.0,0.0,0.0,0.0,0.0,0.0,0.0,0.0,0.0,0.0,0.0,0.0,0.0,0.0,0.0,0.0,0.0,0.0,0.0,0.0,0.0,0.0,0.0,0.0,0.0,0.0,0.0,0.0,0.0,0.0,0.0,0.0,0.0,0.0,0.0,0.0,0.0,0.0,0.0,0.0,0.0,0.0,0.0,0.0,0.0,0.0,0.0,0.0,0.0,0.0,0.0,0.0,0.0,0.0,0.0,0.0,0.0,0.0,0.0,0.0,0.0,0.0,0.0,0.0,0.0,0.0,0.0,0.0,0.0,0.0,0.0,0.0,0.0,0.0,0.0,0.0,0.0,0.0,0.0,0.0,0.0,0.0,0.0,0.0,0.0,0.0,0.0,0.0,0.0,0.0,0.0,0.0,0.0,0.0,0.0,0.0,0.0,0.0,0.0,0.0,0.0,0.0,0.0,0.0,0.0,0.0,0.0,0.0,0.0,0.0,0.0,0.0,0.0,0.0,0.0,0.0,0.0,0.0,0.0,0.0,0.0,0.0,0.0,0.0,0.0,0.0,0.0,0.0,0.0,0.0,0.0,0.0,0.0,0.0,0.0,0.0,0.0,0.0,0.0,0.0,0.0,0.0,0.0,0.0,0.0,0.0,0.0,0.0,0.0,0.0,0.0,0.0,0.0,0.0,0.0,0.0,0.0,0.0,0.0,0.0,0.0,0.0,0.0,0.0,0.0,0.0,0.0,0.0,0.0,0.0,0.0,0.0,0.0,0.0,0.0,0.0,0.0,0.0,0.0,0.0,0.0,0.0,0.0,0.0,0.0,0.0,0.0,0.0,0.0,0.0,0.0,0.0,0.0,0.0,0.0,0.0,0.0,0.0,0.0,0.0,0.0,0.0,0.0,0.0,0.0,0.0,0.0,0.0,0.0,0.0,0.0,0.0,0.0,0.0,0.0,0.0,0.0,0.0,0.0,0.0,0.0,0.0,0.0,0.0,0.0,0.0,0.0,0.0,0.0,0.0,0.0,0.0,0.0,0.0,0.0,0.0,0.0,0.0,0.0,0.0,0.0,0.0,0.0,0.0,0.0,0.0,0.0,0.0,0.0,0.0,0.0,0.0,0.0,0.0,0.0,0.0,0.0,0.0,0.0,0.0,0.0,0.0,0.0,0.0,0.0,0.0,0.0,0.0,0.0,0.0,0.0,0.0,0.0,0.0,0.0,0.0,0.0,0.0,0.0,0.0,0.0,0.0,0.0,0.0,0.0,0.0,0.0,0.0,0.0,0.0,0.0,0.0,0.0,0.0,0.0,0.0,0.0,0.0,0.0,0.0,0.0,0.0,0.0,0.0,0.0,0.0,0.0,0.0,0.0,0.0,0.0,0.0,0.0,0.0,0.0,0.0,0.0,0.0,0.0,0.0,0.0,0.0,0.0,0.0,0.0,0.0,0.0,0.0,0.0,0.0,0.0,0.0,0.0,0.0,0.0,0.0,0.0,0.0,0.0,0.0,0.0,0.0,0.0,0.0,0.0,0.0,0.0,0.0,0.0,0.0,0.0,0.0,0.0,0.0,0.0,0.0,0.0,0.0,0.0,0.0,0.0,0.0,0.0,0.0,0.0,0.0,0.0,0.0,0.0,0.0,0.0,0.0,0.0,0.0,0.0,0.0,0.0,0.0,0.0,0.0,0.0,0.0,0.0,0.0,0.0,0.0,0.0,0.0,0.0,0.0,0.0,0.0,0.0,0.0,0.0,0.0,0.0,0.0,0.0,0.0,0.0,0.0,0.0,0.0,0.0,0.0,0.0,0.0,0.0,0.0,0.0,0.0,0.0,0.0,0.0,0.0,0.0,0.0,0.0,0.0,0.0,0.0,0.0,0.0,0.0,0.0,0.0,0.0,0.0,0.0,0.0,0.0,0.0,0.0,0.0,0.0,0.0,0.0,0.0,0.0,0.0,0.0,0.0,0.0,0.0,0.0,0.0,0.0,0.0,0.0,0.0,0.0,0.0,0.0,0.0,0.0,0.0,0.0,0.0,0.0,0.0,0.0,0.0,0.0,0.0,0.0,0.0,0.0,0.0,0.0,0.0,0.0,0.0,0.0,0.0,0.0,0.0,0.0,0.0,0.0,0.0,0.0,0.0,0.0,0.0,0.0,0.0,0.0,0.0,0.0,0.0,0.0,0.0,0.0,0.0,0.0,0.0,0.0,0.0,0.0,0.0,0.0,0.0,0.0,0.0,0.0,0.0,0.0,0.0,0.0,0.0,0.0,0.0,0.0,0.0,0.0,0.0,0.0,0.0,0.0,0.0,0.0,0.0,0.0,0.0,0.0,0.0,0.0,0.0,0.0,0.0,0.0,0.0,0.0,0.0,0.0,0.0,0.0,0.0,0.0,0.0,0.0,0.0,0.0,0.0,0.0,0.0,0.0,0.0,0.0,0.0,0.0,0.0,0.0,0.0,0.0,0.0,0.0,0.0,0.0,0.0,0.0,0.0,0.0,0.0,0.0,0.0,0.0,0.0,0.0,0.0,0.0,0.0,0.0,0.0,0.0,0.0,0.0,0.0,0.0,0.0,0.0,0.0,0.0,0.0,0.0,0.0,0.0,0.0,0.0,0.0,0.0,0.0,0.0,0.0,0.0,0.0,0.0,0.0,0.0,0.0,0.0,0.0,0.0,-2.6602,0.0,0.0,0.0,-2.7456,0.0,0.0,0.0,0.0,0.0,0.0,0.0,0.0,0.0,0.0,0.0,0.0,0.0,0.0,0.0,0.0,0.0,0.0,0.0,0.0,0.0,0.0,0.0,0.0,0.0,0.0,0.0,0.0,0.0,0.0,0.0,0.0,0.0,0.0,0.0,0.0,0.0,0.0,0.0,0.0,0.0,0.0,0.0,0.0,0.0,0.0,0.0,0.0,0.0,0.0,0.0,0.0,0.0,0.0,0.0,0.0,0.0,0.0,0.0,0.0,0.0,0.0,0.0,0.0,0.0,0.0,0.0,0.0,0.0,0.0,0.0,0.0,0.0,0.0,0.0,0.0,0.0,0.0,0.0,0.0,0.0,0.0,0.0,0.0,0.0,0.0,0.0,0.0,0.0,0.0,0.0,0.0,0.0,0.0,0.0,0.0,0.0,0.0,0.0,0.0,0.0,0.0,0.0,0.0,0.0,0.0,0.0,0.0,0.0,0.0,-2.6533,-2.6577,-2.6645,-2.685,-2.7214,0.0,0.0,0.0,0.0,0.0,0.0,0.0,0.0,0.0,0.0,0.0,0.0,0.0,0.0,0.0,0.0,0.0,0.0,0.0,0.0,0.0,0.0,0.0,0.0,0.0,0.0,0.0,0.0,0.0,0.0,0.0,0.0,0.0,0.0,0.0,0.0,0.0,0.0,0.0,0.0,0.0,0.0,0.0,0.0,0.0,0.0,0.0,0.0,0.0,0.0,0.0,0.0,0.0,0.0,0.0,0.0,0.0,0.0,0.0,0.0,0.0,0.0,0.0,0.0,0.0,0.0,0.0,0.0,0.0,0.0,0.0,0.0,0.0,0.0,0.0,0.0,0.0,0.0,0.0,0.0,0.0,0.0,0.0,0.0,0.0,0.0,0.0,0.0,0.0,0.0,0.0,0.0,0.0,0.0,0.0,0.0,0.0,0.0,0.0,0.0,0.0,0.0,0.0,0.0,0.0,0.0,0.0,0.0,0.0,0.0,0.0,0.0,-2.6602,-2.6782,-2.7079,0.0,0.0,0.0,0.0,0.0,0.0,0.0,0.0,0.0,0.0,0.0,0.0,0.0,0.0,0.0,0.0,0.0,0.0,0.0,0.0,0.0,0.0,0.0,0.0,0.0,0.0,0.0,0.0,0.0,0.0,0.0,0.0,0.0,0.0,0.0,0.0,0.0,0.0,0.0,0.0,0.0,0.0,0.0,0.0,0.0,0.0,0.0,0.0,0.0,0.0,0.0,0.0,0.0,0.0,0.0,0.0,0.0,0.0,0.0,0.0,0.0,0.0,0.0,0.0,0.0,0.0,0.0,0.0,0.0,0.0,0.0,0.0,0.0,0.0,0.0,0.0,0.0,0.0,0.0,0.0,0.0,0.0,0.0,0.0,0.0,0.0,0.0,0.0,0.0,0.0,0.0,0.0,0.0,0.0,0.0,0.0,0.0,0.0,0.0,0.0,0.0,0.0,0.0,0.0,0.0,0.0,0.0,0.0,0.0,0.0,-2.6533,-2.6533,-2.6533,0.0,-2.7281,0.0,0.0,0.0,0.0,0.0,0.0,0.0,0.0,0.0,0.0,0.0,0.0,0.0,0.0,0.0,0.0,0.0,0.0,0.0,0.0,0.0,0.0,0.0,0.0,0.0,0.0,0.0,0.0,0.0,0.0,0.0,0.0,0.0,0.0,0.0,0.0,0.0,0.0,0.0,0.0,0.0,0.0,0.0,0.0,0.0,0.0,0.0,0.0,0.0,0.0,0.0,0.0,0.0,0.0,0.0,0.0,0.0,0.0,0.0,0.0,0.0,0.0,0.0,0.0,0.0,0.0,0.0,0.0,0.0,0.0,0.0,0.0,0.0,0.0,0.0,0.0,0.0,0.0,0.0,0.0,0.0,0.0,0.0,0.0,0.0,0.0,0.0,0.0,0.0,0.0,0.0,0.0,0.0,0.0,0.0,0.0,0.0,0.0,0.0,0.0,0.0,0.0,0.0,0.0,0.0,0.0,0.0,0.0,0.0,0.0,-2.6533,-2.6533,-2.6602,-2.6714,0.0,0.0,0.0,0.0,0.0,0.0,0.0,0.0,0.0,0.0,0.0,0.0,0.0,0.0,0.0,0.0,0.0,0.0,0.0,0.0,0.0,0.0,0.0,0.0,0.0,0.0,0.0,0.0,0.0,0.0,0.0,0.0,0.0,0.0,0.0,0.0,0.0,0.0,0.0,0.0,0.0,0.0,0.0,0.0,0.0,0.0,0.0,0.0,0.0,0.0,0.0,0.0,0.0,0.0,0.0,0.0,0.0,0.0,0.0,0.0,0.0,0.0,0.0,0.0,0.0,0.0,0.0,0.0,0.0,0.0,0.0,0.0,0.0,0.0,0.0,0.0,0.0,0.0,0.0,0.0,0.0,0.0,0.0,0.0,0.0,0.0,0.0,0.0,0.0,0.0,0.0,0.0,0.0,0.0,0.0,0.0,0.0,0.0,0.0,0.0,0.0,0.0,0.0,0.0,0.0,0.0,0.0,0.0,0.0,0.0,-2.6038,-2.6766,-2.6892,-2.6905,-2.6898,-2.6967,0.0,0.0,0.0,0.0,0.0,0.0,0.0,0.0,0.0,0.0,0.0,0.0,0.0,0.0,0.0,0.0,0.0,0.0,0.0,0.0,0.0,0.0,0.0,0.0,0.0,0.0,0.0,0.0,0.0,0.0,0.0,0.0,0.0,0.0,0.0,0.0,0.0,0.0,0.0,0.0,0.0,0.0,0.0,0.0,0.0,0.0,0.0,0.0,0.0,0.0,0.0,0.0,0.0,0.0,0.0,0.0,0.0,0.0,0.0,0.0,0.0,0.0,0.0,0.0,0.0,0.0,0.0,0.0,0.0,0.0,0.0,0.0,0.0,0.0,0.0,0.0,0.0,0.0,0.0,0.0,0.0,0.0,0.0,0.0,0.0,0.0,0.0,0.0,0.0,0.0,0.0,0.0,0.0,0.0,0.0,0.0,0.0,0.0,0.0,0.0,0.0,0.0,0.0,0.0,0.0,0.0,0.0,0.0,-2.4883,-2.6414,-2.7494,-2.7971,-2.7519,-2.7314,0.0,0.0,0.0,0.0,0.0,0.0,0.0,0.0,0.0,0.0,0.0,0.0,0.0,0.0,0.0,0.0,0.0,0.0,0.0,0.0,0.0,0.0,0.0,0.0,0.0,0.0,0.0,0.0,0.0,0.0,0.0,0.0,0.0,0.0,0.0,0.0,0.0,0.0,0.0,0.0,0.0,0.0,0.0,0.0,0.0,0.0,0.0,0.0,0.0,0.0,0.0,0.0,0.0,0.0,0.0,0.0,0.0,0.0,0.0,0.0,0.0,0.0,0.0,0.0,0.0,0.0,0.0,0.0,0.0,0.0,0.0,0.0,0.0,0.0,0.0,0.0,0.0,0.0,0.0,0.0,0.0,0.0,0.0,0.0,0.0,0.0,0.0,0.0,0.0,0.0,0.0,0.0,0.0,0.0,0.0,0.0,0.0,0.0,0.0,0.0,0.0,0.0,0.0,0.0,0.0,0.0,0.0,0.0,0.0,-2.5887,-2.7143,-2.7896,-2.8072,-2.757,-2.7364,0.0,0.0,0.0,0.0,0.0,0.0,0.0,0.0,0.0,0.0,0.0,0.0,0.0,0.0,0.0,0.0,0.0,0.0,0.0,0.0,0.0,0.0,0.0,0.0,0.0,0.0,0.0,0.0,0.0,0.0,0.0,0.0,0.0,0.0,0.0,0.0,0.0,0.0,0.0,0.0,0.0,0.0,0.0,0.0,0.0,0.0,0.0,0.0,0.0,0.0,0.0,0.0,0.0,0.0,0.0,0.0,0.0,0.0,0.0,0.0,0.0,0.0,0.0,0.0,0.0,0.0,0.0,0.0,0.0,0.0,0.0,0.0,0.0,0.0,0.0,0.0,0.0,0.0,0.0,0.0,0.0,0.0,0.0,0.0,0.0,0.0,0.0,0.0,0.0,0.0,0.0,0.0,0.0,0.0,0.0,0.0,0.0,0.0,0.0,0.0,0.0,0.0,0.0,0.0,0.0,0.0,0.0,0.0,0.0,-2.7423,-2.8125,-2.8575,-2.8725,-2.8225,-2.7848,0.0,0.0,0.0,0.0,0.0,0.0,0.0,0.0,0.0,0.0,0.0,0.0,0.0,0.0,0.0,0.0,0.0,0.0,0.0,0.0,0.0,0.0,0.0,0.0,0.0,0.0,0.0,0.0,0.0,0.0,0.0,0.0,0.0,0.0,0.0,0.0,0.0,0.0,0.0,0.0,0.0,0.0,0.0,0.0,0.0,0.0,0.0,0.0,0.0,0.0,0.0,0.0,0.0,0.0,0.0,0.0,0.0,0.0,0.0,0.0,0.0,0.0,0.0,0.0,0.0,0.0,0.0,0.0,0.0,0.0,0.0,0.0,0.0,0.0,0.0,0.0,0.0,0.0,0.0,0.0,0.0,0.0,0.0,0.0,0.0,0.0,0.0,0.0,0.0,0.0,0.0,0.0,0.0,0.0,0.0,0.0,0.0,0.0,0.0,0.0,0.0,0.0,0.0,0.0,0.0,0.0,0.0,0.0,-2.7426,-2.9266,-2.939,-2.9663,-3.0109,-2.9638,-2.9023,0.0,0.0,0.0,0.0,0.0,0.0,0.0,0.0,0.0,0.0,0.0,0.0,0.0,0.0,0.0,0.0,0.0,0.0,0.0,0.0,0.0,0.0,0.0,0.0,0.0,0.0,0.0,0.0,0.0,0.0,0.0,0.0,0.0,0.0,0.0,0.0,0.0,0.0,0.0,0.0,0.0,0.0,0.0,0.0,0.0,0.0,0.0,0.0,0.0,0.0,0.0,0.0,0.0,0.0,0.0,0.0,0.0,0.0,0.0,0.0,0.0,0.0,0.0,0.0,0.0,0.0,0.0,0.0,0.0,0.0,0.0,0.0,0.0,0.0,0.0,0.0,0.0,0.0,0.0,0.0,0.0,0.0,0.0,0.0,0.0,0.0,0.0,0.0,0.0,0.0,0.0,0.0,0.0,0.0,0.0,0.0,0.0,0.0,0.0,0.0,0.0,0.0,0.0,0.0,0.0,0.0,0.0,0.0,0.0,-2.9751,-3.0515,-3.0959,-3.1107,-3.0614,-2.9905,0.0,0.0,0.0,0.0,0.0,0.0,0.0,0.0,0.0,0.0,0.0,0.0,0.0,0.0,0.0,0.0,0.0,0.0,0.0,0.0,0.0,0.0,0.0,0.0,0.0,0.0,0.0,0.0,0.0,0.0,0.0,0.0,0.0,0.0,0.0,0.0,0.0,0.0,0.0,0.0,0.0,0.0,0.0,0.0,0.0,0.0,0.0,0.0,0.0,0.0,0.0,0.0,0.0,0.0,0.0,0.0,0.0,0.0,0.0,0.0,0.0,0.0,0.0,0.0,0.0,0.0,0.0,0.0,0.0,0.0,0.0,0.0,0.0,0.0,0.0,0.0,0.0,0.0,0.0,0.0,0.0,0.0,0.0,0.0,0.0,0.0,0.0,0.0,0.0,0.0,0.0,0.0,0.0,0.0,0.0,0.0,0.0,0.0,0.0,0.0,0.0,0.0,0.0,0.0,0.0,0.0,0.0,0.0,0.0,-3.1249,-3.1689,-3.1898,-3.1922,-3.1477,-3.0699,-2.9499,0.0,0.0,0.0,0.0,0.0,0.0,0.0,0.0,0.0,0.0,0.0,0.0,0.0,0.0,0.0,0.0,0.0,0.0,0.0,0.0,0.0,0.0,0.0,0.0,0.0,0.0,0.0,0.0,0.0,0.0,0.0,0.0,0.0,0.0,0.0,0.0,0.0,0.0,0.0,0.0,0.0,0.0,0.0,0.0,0.0,0.0,0.0,0.0,0.0,0.0,0.0,0.0,0.0,0.0,0.0,0.0,0.0,0.0,0.0,0.0,0.0,0.0,0.0,0.0,0.0,0.0,0.0,0.0,0.0,0.0,0.0,0.0,0.0,0.0,0.0,0.0,0.0,0.0,0.0,0.0,0.0,0.0,0.0,0.0,0.0,0.0,0.0,0.0,0.0,0.0,0.0,0.0,0.0,0.0,0.0,0.0,0.0,0.0,0.0,0.0,0.0,0.0,0.0,0.0,0.0,0.0,0.0,0.0,-3.3608,-3.3191,-3.296,-3.2842,-3.2599,-3.1536,0.0,0.0,0.0,0.0,0.0,0.0,0.0,0.0,0.0,0.0,0.0,0.0,0.0,0.0,0.0,0.0,0.0,0.0,0.0,0.0,0.0,0.0,0.0,0.0,0.0,0.0,0.0,0.0,0.0,0.0,0.0,0.0,0.0,0.0,0.0,0.0,0.0,0.0,0.0,0.0,0.0,0.0,0.0,0.0,0.0,0.0,0.0,0.0,0.0,0.0,0.0,0.0,0.0,0.0,0.0,0.0,0.0,0.0,0.0,0.0,0.0,0.0,0.0,0.0,0.0,0.0,0.0,0.0,0.0,0.0,0.0,0.0,0.0,0.0,0.0,0.0,0.0,0.0,0.0,0.0,0.0,0.0,0.0,0.0,0.0,0.0,0.0,0.0,0.0,0.0,0.0,0.0,0.0,0.0,0.0,0.0,0.0,0.0,0.0,0.0,0.0,0.0,0.0,0.0,0.0,0.0,0.0,0.0,0.0,-3.4741,-3.5391,-3.5237,-3.4411,-3.4152,-3.3315,0.0,0.0,0.0,0.0,0.0,0.0,0.0,0.0,0.0,0.0,0.0,0.0,0.0,0.0,0.0,0.0,0.0,0.0,0.0,0.0,0.0,0.0,0.0,0.0,0.0,0.0,0.0,0.0,0.0,0.0,0.0,0.0,0.0,0.0,0.0,0.0,0.0,0.0,0.0,0.0,0.0,0.0,0.0,0.0,0.0,0.0,0.0,0.0,0.0,0.0,0.0,0.0,0.0,0.0,0.0,0.0,0.0,0.0,0.0,0.0,0.0,0.0,0.0,0.0,0.0,0.0,0.0,0.0,0.0,0.0,0.0,0.0,0.0,0.0,0.0,0.0,0.0,0.0,0.0,0.0,0.0,0.0,0.0,0.0,0.0,0.0,0.0,0.0,0.0,0.0,0.0,0.0,0.0,0.0,0.0,0.0,0.0,0.0,0.0,0.0,0.0,0.0,0.0,0.0,0.0,0.0,0.0,0.0,-3.4123,-3.6016,-3.6692,-3.6861,-3.6613,-3.5749,-3.4513,0.0,0.0,0.0,0.0,0.0,0.0,0.0,0.0,0.0,0.0,0.0,0.0,0.0,0.0,0.0,0.0,0.0,0.0,0.0,0.0,0.0,0.0,0.0,0.0,0.0,0.0,0.0,0.0,0.0,0.0,0.0,0.0,0.0,0.0,0.0,0.0,0.0,0.0,0.0,0.0,0.0,0.0,0.0,0.0,0.0,0.0,0.0,0.0,0.0,0.0,0.0,0.0,0.0,0.0,0.0,0.0,0.0,0.0,0.0,0.0,0.0,0.0,0.0,0.0,0.0,0.0,0.0,0.0,0.0,0.0,0.0,0.0,0.0,0.0,0.0,0.0,0.0,0.0,0.0,0.0,0.0,0.0,0.0,0.0,0.0,0.0,0.0,0.0,0.0,0.0,0.0,0.0,0.0,0.0,0.0,0.0,0.0,0.0,0.0,0.0,0.0,0.0,0.0,0.0,0.0,0.0,0.0,0.0,-3.542,-3.7219,-3.7557,-3.8032,-3.8608,-3.7081,-3.539,0.0,0.0,0.0,0.0,0.0,0.0,0.0,0.0,0.0,0.0,0.0,0.0,0.0,0.0,0.0,0.0,0.0,0.0,0.0,0.0,0.0,0.0,0.0,0.0,0.0,0.0,0.0,0.0,0.0,0.0,0.0,0.0,0.0,0.0,0.0,0.0,0.0,0.0,0.0,0.0,0.0,0.0,0.0,0.0,0.0,0.0,0.0,0.0,0.0,0.0,0.0,0.0,0.0,0.0,0.0,0.0,0.0,0.0,0.0,0.0,0.0,0.0,0.0,0.0,0.0,0.0,0.0,0.0,0.0,0.0,0.0,0.0,0.0,0.0,0.0,0.0,0.0,0.0,0.0,0.0,0.0,0.0,0.0,0.0,0.0,0.0,0.0,0.0,0.0,0.0,0.0,0.0,0.0,0.0,0.0,0.0,0.0,0.0,0.0,0.0,0.0,0.0,0.0,0.0,0.0,0.0,0.0,0.0,-3.5734,-3.7213,-3.8337,-3.8827,-3.865,-3.7276,-3.6138,0.0,0.0,0.0,0.0,0.0,0.0,0.0,0.0,0.0,0.0,0.0,0.0,0.0,0.0,0.0,0.0,0.0,0.0,0.0,0.0,0.0,0.0,0.0,0.0,0.0,0.0,0.0,0.0,0.0,0.0,0.0,0.0,0.0,0.0,0.0,0.0,0.0,0.0,0.0,0.0,0.0,0.0,0.0,0.0,0.0,0.0,0.0,0.0,-4.3986,0.0,0.0,0.0,0.0,0.0,0.0,0.0,0.0,0.0,0.0,0.0,0.0,0.0,0.0,0.0,0.0,0.0,0.0,0.0,0.0,0.0,0.0,0.0,0.0,0.0,0.0,0.0,0.0,0.0,0.0,0.0,0.0,0.0,0.0,0.0,0.0,0.0,0.0,0.0,0.0,0.0,0.0,0.0,0.0,0.0,0.0,0.0,0.0,0.0,0.0,0.0,0.0,0.0,0.0,0.0,0.0,0.0,0.0,0.0,-3.6055,-3.7674,-3.8574,-3.9083,-3.902,-3.7949,-3.6883,0.0,0.0,0.0,0.0,0.0,0.0,0.0,0.0,0.0,0.0,0.0,0.0,0.0,0.0,0.0,0.0,0.0,0.0,0.0,0.0,0.0,0.0,0.0,0.0,0.0,0.0,0.0,0.0,0.0,0.0,0.0,0.0,0.0,0.0,0.0,0.0,0.0,0.0,0.0,0.0,0.0,0.0,0.0,0.0,0.0,0.0,0.0,0.0,0.0,0.0,0.0,0.0,0.0,0.0,0.0,0.0,0.0,0.0,0.0,0.0,0.0,0.0,0.0,0.0,0.0,0.0,0.0,0.0,0.0,0.0,0.0,0.0,0.0,0.0,0.0,0.0,0.0,0.0,0.0,0.0,0.0,0.0,0.0,0.0,0.0,0.0,0.0,0.0,0.0,0.0,0.0,0.0,0.0,0.0,0.0,0.0,0.0,0.0,0.0,0.0,0.0,0.0,0.0,0.0,0.0,0.0,0.0,-3.4565,-3.6316,-3.8153,-3.8763,-3.9286,-3.9481,-3.8798,-3.7573,-3.5957,0.0,0.0,0.0,0.0,0.0,0.0,0.0,0.0,0.0,0.0,0.0,0.0,0.0,0.0,0.0,0.0,0.0,0.0,0.0,0.0,0.0,0.0,0.0,0.0,0.0,0.0,0.0,0.0,0.0,0.0,0.0,0.0,0.0,0.0,0.0,0.0,0.0,0.0,-3.9624,-4.1715,0.0,0.0,0.0,0.0,0.0,0.0,0.0,0.0,-4.5206,0.0,0.0,0.0,0.0,0.0,0.0,0.0,0.0,0.0,0.0,0.0,0.0,0.0,0.0,0.0,0.0,0.0,0.0,0.0,0.0,0.0,0.0,0.0,0.0,0.0,0.0,0.0,0.0,0.0,0.0,0.0,0.0,0.0,0.0,0.0,0.0,0.0,0.0,0.0,0.0,0.0,0.0,0.0,0.0,0.0,0.0,0.0,0.0,0.0,0.0,0.0,0.0,0.0,0.0,0.0,0.0,-3.2582,-3.4841,-3.6831,-3.8266,-3.9111,-3.9637,-3.9514,-3.9197,-3.7954,-3.5816,0.0,0.0,0.0,0.0,0.0,0.0,0.0,0.0,0.0,0.0,0.0,0.0,0.0,0.0,0.0,0.0,0.0,0.0,0.0,0.0,0.0,0.0,0.0,0.0,0.0,0.0,0.0,0.0,0.0,0.0,0.0,0.0,0.0,0.0,0.0,0.0,0.0,0.0,0.0,-4.2922,-4.3946,0.0,0.0,0.0,0.0,0.0,0.0,0.0,0.0,-4.6802,0.0,0.0,0.0,0.0,0.0,0.0,0.0,0.0,0.0,0.0,0.0,0.0,0.0,0.0,0.0,0.0,0.0,0.0,0.0,0.0,0.0,0.0,0.0,0.0,0.0,0.0,0.0,0.0,0.0,0.0,0.0,0.0,0.0,0.0,0.0,0.0,0.0,0.0,0.0,0.0,0.0,0.0,0.0,0.0,0.0,0.0,0.0,0.0,0.0,0.0,0.0,0.0,0.0,0.0,0.0,-3.2195,-3.4556,-3.6484,-3.8216,-3.9267,-3.9679,-3.9576,-3.9158,-3.8073,0.0,0.0,0.0,0.0,0.0,0.0,0.0,0.0,0.0,0.0,0.0,0.0,0.0,0.0,0.0,0.0,0.0,0.0,0.0,0.0,0.0,0.0,0.0,0.0,0.0,0.0,0.0,0.0,0.0,0.0,0.0,0.0,0.0,0.0,0.0,0.0,0.0,0.0,0.0,0.0,-4.3472,-4.4586,-4.5672,0.0,0.0,0.0,0.0,0.0,0.0,-4.8247,-4.8035,0.0,0.0,0.0,0.0,0.0,0.0,0.0,0.0,0.0,0.0,0.0,0.0,0.0,0.0,0.0,0.0,0.0,0.0,0.0,0.0,0.0,0.0,0.0,0.0,0.0,0.0,0.0,0.0,0.0,0.0,0.0,0.0,0.0,0.0,0.0,0.0,0.0,0.0,0.0,0.0,0.0,0.0,0.0,0.0,0.0,0.0,0.0,0.0,0.0,0.0,0.0,0.0,0.0,0.0,0.0,-3.1996,-3.4279,-3.6387,-3.8054,-3.9159,-3.9629,-3.9725,-3.9109,-3.8075,0.0,0.0,0.0,0.0,0.0,0.0,0.0,0.0,0.0,0.0,0.0,0.0,0.0,0.0,0.0,0.0,0.0,0.0,0.0,0.0,0.0,0.0,0.0,0.0,0.0,0.0,0.0,0.0,0.0,0.0,0.0,0.0,0.0,0.0,0.0,0.0,0.0,0.0,0.0,0.0,0.0,-4.5544,-4.686,-4.8076,0.0,0.0,0.0,0.0,-5.0136,-4.9897,0.0,0.0,0.0,0.0,0.0,0.0,0.0,0.0,0.0,0.0,0.0,0.0,0.0,0.0,0.0,0.0,0.0,0.0,0.0,0.0,0.0,0.0,0.0,0.0,0.0,0.0,0.0,0.0,0.0,0.0,0.0,0.0,0.0,0.0,0.0,0.0,0.0,0.0,0.0,0.0,0.0,0.0,0.0,0.0,0.0,0.0,0.0,0.0,0.0,0.0,0.0,0.0,0.0,0.0,0.0,0.0,-3.265,-3.4888,-3.6834,-3.8444,-3.9127,-3.9453,-3.9707,-3.9161,-3.8024,0.0,0.0,0.0,0.0,0.0,0.0,0.0,0.0,0.0,0.0,0.0,0.0,0.0,0.0,0.0,0.0,0.0,0.0,0.0,0.0,0.0,0.0,0.0,0.0,0.0,0.0,0.0,0.0,0.0,0.0,0.0,0.0,0.0,0.0,0.0,0.0,0.0,0.0,0.0,0.0,0.0,-4.7372,-4.885,-5.0153,-5.1047,0.0,0.0,-5.2587,-5.2423,-5.2124,0.0,0.0,0.0,0.0,0.0,0.0,0.0,0.0,0.0,0.0,0.0,0.0,0.0,0.0,0.0,0.0,0.0,0.0,0.0,0.0,0.0,0.0,0.0,0.0,0.0,0.0,0.0,0.0,0.0,0.0,0.0,0.0,0.0,0.0,0.0,0.0,0.0,0.0,0.0,0.0,0.0,0.0,0.0,0.0,0.0,0.0,0.0,0.0,0.0,0.0,0.0,0.0,0.0,0.0,0.0,-2.9774,-3.2562,-3.4477,-3.6344,-3.8227,-3.889,-3.9384,-3.9662,-3.8767,-3.7629,0.0,0.0,0.0,0.0,0.0,0.0,0.0,0.0,0.0,0.0,0.0,0.0,0.0,0.0,0.0,0.0,0.0,0.0,0.0,0.0,0.0,0.0,0.0,0.0,0.0,0.0,0.0,0.0,0.0,0.0,0.0,0.0,0.0,0.0,0.0,0.0,0.0,0.0,0.0,0.0,0.0,0.0,-4.9907,-5.1309,0.0,0.0,0.0,-5.3965,-5.4331,0.0,0.0,0.0,0.0,0.0,0.0,0.0,0.0,0.0,0.0,0.0,0.0,0.0,0.0,0.0,0.0,0.0,0.0,0.0,0.0,0.0,0.0,0.0,0.0,0.0,0.0,0.0,0.0,0.0,0.0,0.0,0.0,0.0,0.0,0.0,0.0,0.0,0.0,0.0,0.0,0.0,0.0,0.0,0.0,0.0,0.0,0.0,0.0,0.0,0.0,0.0,0.0,0.0,0.0,0.0,0.0,0.0,-3.216,-3.3978,-3.5828,-3.7757,-3.838,-3.8924,-3.9541,-3.831,0.0,0.0,0.0,0.0,0.0,0.0,0.0,0.0,0.0,0.0,0.0,0.0,0.0,0.0,0.0,0.0,0.0,0.0,0.0,0.0,0.0,0.0,0.0,0.0,0.0,0.0,0.0,-3.2005,0.0,0.0,0.0,0.0,0.0,0.0,0.0,0.0,0.0,0.0,0.0,0.0,0.0,0.0,-4.9467,-5.0986,-5.2573,-5.3994,0.0,0.0,-5.5377,-5.5961,-5.5078,-5.4149,0.0,0.0,0.0,0.0,0.0,0.0,0.0,0.0,0.0,0.0,0.0,0.0,0.0,0.0,0.0,0.0,0.0,0.0,0.0,0.0,0.0,0.0,0.0,0.0,0.0,0.0,0.0,0.0,0.0,0.0,0.0,0.0,0.0,0.0,0.0,0.0,0.0,0.0,0.0,0.0,0.0,0.0,0.0,0.0,0.0,0.0,0.0,0.0,0.0,0.0,0.0,0.0,0.0,0.0,-2.9672,-3.146,-3.3778,-3.5556,-3.7039,-3.7159,-3.783,-3.8926,-3.7873,-3.6961,0.0,0.0,0.0,0.0,0.0,0.0,0.0,0.0,0.0,0.0,0.0,0.0,0.0,0.0,0.0,0.0,0.0,0.0,0.0,0.0,0.0,0.0,0.0,0.0,0.0,0.0,0.0,0.0,0.0,0.0,0.0,0.0,0.0,0.0,0.0,0.0,0.0,0.0,0.0,0.0,0.0,-5.1043,-5.2264,-5.4091,-5.5584,0.0,-5.7033,-5.7359,-5.6823,-5.6578,-5.6025,-5.447,0.0,0.0,0.0,0.0,0.0,0.0,0.0,0.0,0.0,0.0,0.0,0.0,0.0,0.0,0.0,0.0,0.0,0.0,0.0,0.0,0.0,0.0,0.0,0.0,0.0,0.0,0.0,0.0,0.0,0.0,0.0,0.0,0.0,0.0,0.0,0.0,0.0,0.0,0.0,0.0,0.0,0.0,0.0,0.0,0.0,0.0,0.0,0.0,0.0,0.0,0.0,0.0,0.0,-2.9683,-3.2004,-3.3634,-3.5079,-3.6467,-3.66,-3.7029,-3.7588,-3.6696,-3.6061,0.0,0.0,0.0,0.0,0.0,0.0,0.0,0.0,0.0,0.0,0.0,0.0,0.0,0.0,0.0,0.0,0.0,0.0,0.0,0.0,0.0,0.0,0.0,0.0,0.0,0.0,0.0,0.0,-3.5632,-3.6791,-3.8311,0.0,0.0,0.0,0.0,0.0,0.0,0.0,0.0,0.0,0.0,-5.265,-5.3946,-5.5646,0.0,0.0,-5.75,-5.7865,-5.7985,-5.7312,-5.6456,-5.5499,-5.4775,0.0,0.0,0.0,0.0,0.0,0.0,0.0,0.0,0.0,0.0,0.0,0.0,0.0,0.0,0.0,0.0,0.0,0.0,0.0,0.0,0.0,0.0,0.0,0.0,0.0,0.0,-1.6546,-1.6634,0.0,0.0,0.0,0.0,0.0,0.0,0.0,0.0,0.0,0.0,0.0,0.0,0.0,0.0,0.0,0.0,0.0,0.0,0.0,0.0,0.0,0.0,0.0,0.0,-2.9662,-3.1923,-3.3188,-3.4407,-3.5844,-3.609,-3.6395,-3.6692,-3.589,-3.5342,-3.514,0.0,0.0,0.0,0.0,0.0,0.0,0.0,0.0,0.0,0.0,0.0,0.0,0.0,0.0,0.0,0.0,0.0,0.0,0.0,0.0,0.0,0.0,0.0,0.0,0.0,0.0,0.0,-3.6426,-3.7631,-3.842,0.0,0.0,0.0,0.0,0.0,0.0,0.0,0.0,0.0,0.0,-5.4234,-5.5702,-5.7088,-5.8174,-5.8564,-5.8453,-5.8355,-5.8805,-5.8132,-5.7225,-5.653,0.0,0.0,0.0,0.0,0.0,0.0,0.0,0.0,0.0,0.0,0.0,0.0,0.0,0.0,0.0,0.0,0.0,0.0,0.0,0.0,0.0,0.0,0.0,0.0,0.0,0.0,0.0,-1.798,0.0,0.0,-1.8044,0.0,0.0,0.0,0.0,0.0,0.0,0.0,0.0,0.0,0.0,0.0,0.0,0.0,0.0,0.0,0.0,0.0,0.0,0.0,0.0,0.0,0.0,-2.9665,-3.0792,-3.2444,-3.3985,-3.5074,-3.5502,-3.5991,-3.6791,-3.587,-3.5173,-3.5031,0.0,0.0,0.0,0.0,0.0,0.0,0.0,0.0,0.0,0.0,0.0,0.0,0.0,0.0,0.0,0.0,0.0,0.0,0.0,0.0,0.0,0.0,0.0,0.0,0.0,0.0,-3.6207,-3.808,-3.9104,0.0,0.0,0.0,0.0,0.0,0.0,0.0,0.0,0.0,-5.1853,-5.3836,-5.5701,-5.7489,-5.8286,-5.915,-6.0292,-5.9957,-5.95,-5.9289,-5.9135,-5.8656,0.0,0.0,0.0,0.0,0.0,0.0,0.0,0.0,0.0,0.0,0.0,0.0,0.0,0.0,0.0,0.0,0.0,0.0,0.0,0.0,0.0,0.0,0.0,0.0,0.0,0.0,0.0,-1.8627,-1.9239,0.0,0.0,0.0,0.0,0.0,0.0,0.0,0.0,0.0,0.0,0.0,-2.7056,-2.7672,0.0,0.0,0.0,0.0,0.0,0.0,0.0,0.0,0.0,0.0,0.0,0.0,-3.0435,-3.167,-3.2608,-3.3375,-3.4359,-3.4377,-3.4508,-3.5176,-3.4706,-3.4319,-3.3839,0.0,0.0,0.0,-2.9712,0.0,0.0,0.0,0.0,0.0,0.0,0.0,0.0,0.0,0.0,0.0,0.0,0.0,0.0,0.0,0.0,0.0,0.0,0.0,0.0,0.0,-3.6628,0.0,0.0,0.0,0.0,0.0,0.0,0.0,0.0,0.0,0.0,-4.9108,-5.1201,-5.3501,-5.5491,-5.7248,-5.823,-5.9623,-6.0543,0.0,0.0,0.0,0.0,0.0,0.0,0.0,0.0,0.0,0.0,0.0,0.0,0.0,-5.5804,-5.5066,-5.4128,-5.3719,-5.3883,-5.4543,0.0,0.0,0.0,0.0,0.0,0.0,0.0,0.0,0.0,0.0,0.0,0.0,0.0,0.0,-2.0197,-2.0701,-2.079,0.0,0.0,0.0,0.0,0.0,0.0,0.0,0.0,-2.7018,-2.7703,-2.8541,-2.927,-2.9633,-2.9732,-2.9616,-2.8793,0.0,0.0,0.0,0.0,0.0,0.0,0.0,0.0,-3.117,-3.2095,-3.2629,-3.3396,-3.4132,-3.4021,-3.414,-3.4332,-3.4291,-3.3784,-3.3239,-3.2681,-3.1894,0.0,0.0,0.0,0.0,0.0,0.0,0.0,0.0,0.0,0.0,0.0,0.0,0.0,0.0,0.0,0.0,0.0,0.0,0.0,0.0,0.0,0.0,0.0,-3.8264,0.0,0.0,0.0,0.0,0.0,0.0,0.0,0.0,0.0,-4.8847,-5.0684,-5.2733,-5.4991,-5.6826,-5.8355,-5.9512,0.0,0.0,0.0,0.0,0.0,0.0,0.0,-5.9639,-5.8843,-5.8788,-5.8723,-5.8031,-5.7932,-5.7921,-5.8044,0.0,0.0,-5.6793,-5.6494,-5.6793,-5.7534,-5.7756,-5.827,-5.9278,-6.0328,-6.1414,0.0,0.0,0.0,0.0,-1.866,0.0,0.0,0.0,-2.1512,-2.2081,0.0,-2.2742,0.0,0.0,0.0,0.0,-2.5595,-2.5731,0.0,0.0,-2.8376,-2.912,-3.008,-3.0473,-3.0667,-3.0964,-3.0804,-3.0458,-2.9954,-2.9043,-2.8312,0.0,0.0,0.0,0.0,0.0,-3.1542,-3.1996,-3.2773,-3.3509,-3.4374,-3.4421,-3.4535,-3.4507,-3.4159,-3.3802,-3.3308,-3.2921,-3.2364,-3.1706,-3.0763,0.0,0.0,0.0,0.0,0.0,0.0,0.0,0.0,0.0,0.0,0.0,0.0,0.0,0.0,0.0,0.0,0.0,0.0,0.0,0.0,-3.8309,0.0,0.0,0.0,0.0,0.0,0.0,0.0,0.0,0.0,-4.8859,-4.9798,-5.1863,-5.4036,-5.6358,0.0,0.0,0.0,0.0,-6.1741,-6.2354,-6.1936,-6.1386,-6.096,-6.0726,-6.0274,-5.9662,0.0,0.0,-5.9967,-5.9853,-5.9995,-6.062,-6.0398,-5.9891,-5.885,-5.8955,-5.9487,-6.0304,-6.0565,-6.1201,-6.2453,-6.3528,-6.4788,-1.8613,0.0,0.0,0.0,0.0,-2.0364,-2.1417,-2.2727,-2.2741,-2.3292,-2.4357,-2.4525,0.0,0.0,0.0,0.0,0.0,0.0,-2.8052,-2.9414,-2.9671,-3.0227,-3.0967,-3.1213,-3.1194,-3.1283,-3.1707,-3.1526,-3.0952,-3.1277,-3.0467,-2.8853,0.0,0.0,0.0,0.0,-3.2284,-3.2705,-3.2881,-3.3172,-3.383,-3.3656,-3.3579,-3.3973,-3.4017,-3.403,-3.3802,-3.338,-3.2876,-3.2412,-3.171,0.0,0.0,0.0,0.0,0.0,0.0,0.0,0.0,0.0,0.0,0.0,0.0,0.0,0.0,0.0,0.0,0.0,0.0,0.0,-4.0035,-4.0177,-4.0598,0.0,0.0,0.0,0.0,0.0,0.0,0.0,0.0,0.0,-5.0893,-5.2877,-5.4928,0.0,0.0,-6.0292,-6.1189,-6.2286,-6.3058,-6.3252,-6.3114,0.0,-6.185,-6.163,-6.1328,-6.0456,-6.0481,-6.0532,-6.0368,-6.034,-6.0395,-6.0721,-6.0944,-6.0889,-6.0331,-6.0174,-6.0478,-6.149,-6.1911,-6.2782,-6.467,-6.5729,-6.6789,-1.8688,-1.9678,-1.9468,-1.9903,-2.0885,-2.1284,-2.2447,-2.3756,-2.4305,-2.4903,-2.5852,-2.6263,-2.6272,-2.6232,-2.6794,0.0,0.0,0.0,-2.9194,-3.0226,-3.0422,-3.0817,-3.1439,-3.1482,-3.174,-3.184,-3.1901,-3.1816,-3.1439,-3.1845,-3.1496,-3.033,0.0,-3.1146,-3.1397,-3.2204,-3.2705,-3.2931,-3.3104,-3.3337,-3.3422,-3.3246,-3.3345,-3.3954,-3.4059,-3.429,-3.4248,-3.4152,-3.3701,-3.3011,-3.2428,-3.1743,0.0,0.0,0.0,0.0,0.0,0.0,0.0,0.0,0.0,0.0,0.0,-3.174,-3.3203,0.0,0.0,0.0,-3.8482,-4.0203,-4.2259,-4.204,0.0,0.0,0.0,0.0,0.0,0.0,0.0,-4.6819,-4.8694,-5.0433,-5.1644,-5.3428,-5.5278,-5.685,-5.9003,-6.0607,-6.1102,0.0,-6.3023,-6.3269,-6.3297,-6.3128,-6.2567,-6.254,-6.2263,-6.1487,-6.1123,-6.1149,-6.1149,-6.1149,-6.1229,-6.1326,-6.1619,-6.1794,-6.1715,-6.1533,-6.1461,-6.2178,-6.2934,-6.4159,-6.629,-6.7244,-6.8357,-1.833,-1.9496,-1.9512,-2.0283,-2.1413,-2.2128,-2.3027,-2.4267,-2.583,-2.6639,-2.6892,-2.7688,-2.8011,-2.7919,-2.854,0.0,-2.9312,-2.9891,-3.0346,-3.0482,-3.0755,-3.1193,-3.1763,-3.1791,-3.1958,-3.2223,-3.1944,-3.1791,-3.1736,-3.1727,-3.1768,-3.2193,-3.2266,-3.2258,-3.2181,-3.2616,-3.2887,-3.2645,-3.3256,-3.3436,-3.3379,-3.3332,-3.3814,-3.42,-3.4506,-3.4478,-3.4474,-3.4779,-3.4563,-3.3777,-3.3177,-3.2777,-3.2542,0.0,0.0,0.0,0.0,0.0,0.0,0.0,0.0,0.0,0.0,0.0,0.0,0.0,0.0,-3.8055,-4.0621,0.0,-4.3509,-4.3758,0.0,0.0,0.0,-4.4446,-4.4953,-4.5731,-4.661,-4.7726,0.0,0.0,-5.1962,-5.3457,-5.5151,-5.6934,-5.8797,-6.0211,-6.1171,-6.179,-6.2265,-6.2909,-6.2936,-6.2978,-6.3017,-6.2948,-6.2799,-6.2501,-6.213,-6.1979,-6.2031,-6.2057,-6.2266,-6.2553,-6.2455,-6.2251,-6.2768,-6.2432,-6.2561,-6.2738,-6.3605,-6.4906,-6.6929,-6.8201,-6.9546,-1.8038,-1.8719,-1.8992,-1.9981,-2.1505,-2.2599,-2.3894,-2.5348,-2.6122,-2.7159,-2.8312,-2.8831,-2.9316,-2.9663,-2.9818,-3.0029,-3.0409,-3.055,-3.1085,-3.1721,-3.1734,-3.2046,-3.2463,-3.2504,-3.2448,-3.2502,-3.2818,-3.2858,-3.2652,-3.2877,-3.2943,-3.2662,-3.2641,-3.2719,-3.3258,-3.3055,-3.3085,-3.33,-3.3093,-3.3256,-3.3967,-3.3932,-3.42,-3.4798,-3.5097,-3.4952,-3.4775,-3.5088,-3.4998,-3.4479,-3.4486,-3.4109,-3.338,-3.2774,0.0,0.0,0.0,0.0,0.0,0.0,0.0,0.0,0.0,-3.3857,-3.5901,0.0,-3.8525,0.0,-4.2382,-4.4113,-4.4705,-4.477,0.0,0.0,-4.5069,-4.5466,-4.5934,-4.6882,-4.7664,-4.8267,-4.9294,-5.0389,-5.1106,-5.2946,-5.4737,-5.5865,-5.827,-6.0122,-6.0779,-6.2313,-6.3317,-6.3422,-6.3449,-6.3402,-6.31,-6.2792,-6.2793,-6.3026,-6.2947,-6.2944,-6.3381,-6.3432,-6.3355,-6.3098,-6.2996,-6.2761,-6.2242,-6.2271,-6.2662,-6.3026,-6.3791,-6.4894,-6.7118,-6.8288,-6.9616,-1.7749,-1.8138,-1.8818,-1.9733,-2.0732,-2.1965,-2.3624,-2.5318,-2.6052,-2.7148,-2.8408,-2.9195,-2.9847,-3.0534,-3.0698,-3.0877,-3.0985,-3.1441,-3.1826,-3.2134,-3.2246,-3.2367,-3.2692,-3.266,-3.2545,-3.2545,-3.2935,-3.284,-3.2705,-3.3078,-3.3106,-3.2966,-3.2952,-3.3182,-3.3817,-3.3153,-3.2902,-3.303,-3.3201,-3.3571,-3.4186,-3.4413,-3.4812,-3.5394,-3.549,-3.5565,-3.5646,-3.5906,-3.5805,-3.5316,-3.5186,-3.4922,-3.4637,-3.3719,-3.2943,0.0,0.0,0.0,0.0,0.0,0.0,0.0,0.0,0.0,0.0,0.0,-4.0715,-4.2677,-4.4224,-4.5385,-4.6072,-4.6137,-4.6137,-4.6137,-4.6268,-4.6528,-4.6634,-4.7497,-4.8006,-4.8104,-4.9295,-5.0357,-5.0873,-5.2581,-5.4062,-5.5059,-5.7329,-5.933,-6.0443,-6.1862,-6.2948,-6.3363,-6.3622,-6.401,-6.4132,-6.394,-6.3695,-6.4001,-6.389,-6.3854,-6.4133,-6.4184,-6.4082,-6.3803,-6.3727,-6.3651,-6.3184,-6.3109,-6.3559,-6.3924,-6.4466,-6.5529,-6.7422,-6.8669,-7.0026,-1.7343,-1.7746,-1.8745,-1.9348,-1.97,-2.0807,-2.2524,-2.48,-2.5917,-2.6874,-2.8005,-2.9263,-3.0228,-3.1009,-3.138,-3.1516,-3.1423,-3.23,-3.2557,-3.2225,-3.2478,-3.2625,-3.2652,-3.2652,-3.2652,-3.2666,-3.2706,-3.2719,-3.2719,-3.2759,-3.2942,-3.3293,-3.3293,-3.3656,-3.3949,-3.3155,-3.2703,-3.2395,-3.3365,-3.3913,-3.42,-3.4812,-3.5408,-3.5791,-3.6094,-3.6356,-3.6415,-3.6655,-3.6745,-3.6432,-3.5841,-3.5731,-3.5709,-3.449,-3.3901,0.0,-3.3483,0.0,0.0,0.0,0.0,0.0,0.0,0.0,0.0,-4.0064,-4.2772,-4.5342,-4.5911,-4.6522,-4.7406,-4.749,-4.749,-4.749,-4.749,-4.7349,-4.7129,-4.7817,-4.815,-4.7688,-4.908,-5.0325,-5.0801,-5.2132,-5.3298,-5.4328,-5.6029,-5.8021,-5.9903,-6.1121,-6.2096,-6.3083,-6.3805,-6.447,-6.5211,-6.5187,-6.488,-6.5006,-6.4814,-6.4605,-6.4655,-6.468,-6.463,-6.4555,-6.4672,-6.4479,-6.4479,-6.4404,-6.4571,-6.5021,-6.5467,-6.6132,-6.7667,-6.897,-7.0449,-1.6891,-1.7502,-1.7705,-1.8518,-1.9719,-1.9991,-2.1741,-2.4762,-2.5762,-2.7339,-2.9103,-3.0598,-3.1386,-3.1631,-3.2211,-3.2445,-3.2305,-3.2606,-3.2781,-3.2812,-3.2866,-3.3026,-3.324,-3.3253,-3.324,-3.3267,-3.3507,-3.3627,-3.3641,-3.3868,-3.3868,-3.3829,-3.3829,-3.3587,-3.3314,0.0,0.0,0.0,-3.3483,-3.411,-3.4798,-3.5408,-3.5805,-3.64,-3.6681,0.0,-3.6415,-3.7034,-3.6916,-3.6432,-3.664,0.0,0.0,0.0,0.0,0.0,0.0,0.0,0.0,0.0,0.0,0.0,-3.7115,-3.8104,-3.9031,-4.1837,-4.4341,-4.594,-4.6446,-4.6933,-4.746,-4.752,-4.752,-4.752,-4.752,-4.7662,-4.8007,-4.8209,-4.8453,-4.8662,-4.9101,-4.9596,-5.0342,-5.1048,-5.2224,-5.3844,-5.5392,-5.7182,-5.9394,-6.0719,-6.1878,-6.292,-6.3942,-6.4537,-6.4764,-6.4672,-6.4899,-6.515,-6.5301,-6.5308,-6.5634,-6.576,-6.5609,-6.5233,-6.5132,-6.4982,-6.458,-6.4479,-6.4697,-6.4981,-6.5505,-6.6253,-6.7585,-6.8808,-7.0411,-1.6962,-1.7162,-1.7155,-1.7775,0.0,-1.964,-2.1277,-2.3508,-2.4719,-2.6816,-2.9405,-3.0587,-3.1176,-3.1764,-3.2104,-3.2563,-3.2772,-3.2906,-3.3053,-3.32,-3.3347,-3.3507,-3.3654,-3.3788,-3.3868,-3.3868,-3.4028,-3.4108,-3.4108,-3.4255,-3.4242,-3.4108,-3.4095,-3.3948,-3.3654,-3.3641,-3.3494,-3.32,-3.4282,-3.5104,-3.5445,-3.612,-3.6632,-3.6831,-3.6966,0.0,0.0,0.0,0.0,0.0,0.0,0.0,0.0,-3.6263,0.0,-3.5748,-3.5553,-3.5451,-3.5443,-3.558,-3.5978,-3.6535,-3.846,-4.0001,-4.1301,-4.3356,-4.517,-4.6723,-4.7548,-4.7989,-4.8607,-4.8848,-4.8908,-4.8687,-4.8667,-4.851,-4.8333,-4.8513,-4.8554,-4.8593,-4.8991,-4.9553,-5.0317,-5.1265,-5.2236,-5.3686,-5.5355,-5.7019,-5.8959,-6.0357,-6.1834,-6.3464,-6.4318,-6.4982,-6.5233,-6.5283,-6.5333,-6.5634,-6.5685,-6.581,-6.6061,-6.6112,-6.6011,-6.5735,-6.5685,-6.5584,-6.5383,-6.5283,-6.5283,-6.5622,-6.6128,-6.6798,-6.7741,-6.8972,-7.0727,-1.706,-1.706,-1.7039,-1.7461,-1.8099,-1.9579,-2.0828,-2.2264,-2.4119,0.0,0.0,-2.9809,-3.0813,-3.1617,-3.2099,-3.2615,-3.3027,-3.3467,-3.3574,-3.3587,-3.3841,-3.3961,-3.3975,-3.4202,-3.4322,-3.4322,-3.4376,-3.4402,-3.4402,-3.4442,-3.4469,-3.4482,-3.4469,-3.4456,-3.4402,-3.4402,-3.4148,-3.3694,-3.5087,-3.5716,-3.5716,-3.6493,-3.6967,-3.6967,-3.7051,-3.7132,-3.7072,-3.7206,-3.7409,-3.7348,-3.7089,-3.6936,-3.6921,-3.623,-3.6097,-3.619,-3.5945,-3.5974,-3.6141,-3.6141,-3.651,-3.71,-3.9405,-4.1542,-4.3156,-4.4454,-4.5876,-4.7483,-4.8494,-4.9252,-4.9631,-4.9971,-5.0071,-4.9691,-4.9651,-4.933,-4.887,-4.8887,-4.896,-4.8777,-4.9256,-4.9941,-5.0258,-5.1452,-5.2723,-5.3772,-5.5258,-5.7222,-5.8985,-6.0655,-6.2398,-6.4158,-6.4968,-6.5584,-6.5961,-6.6061,-6.6112,-6.6061,-6.6086,-6.6112,-6.6112,-6.6112,-6.6112,-6.6086,-6.6112,-6.6086,-6.6086,-6.6036,-6.6112,-6.6112,-6.6797,-6.762,-6.81,-6.9418,-7.1169,-1.7351,-1.7358,-1.7351,-1.7566,-1.8209,-1.8859,-2.057,-2.2654,-2.5376,-2.6832,-2.7454,-2.9518,-3.0647,-3.0864,-3.2571,-3.3315,-3.3521,-3.397,-3.4189,-3.4189,-3.4242,-3.4255,-3.4255,-3.4295,-3.4322,-3.4336,-3.4576,-3.4696,-3.4723,-3.495,-3.507,-3.507,-3.507,-3.495,-3.4723,-3.4696,-3.4656,-3.4576,-3.502,-3.513,-3.513,-3.63,-3.6679,-3.6882,-3.7619,-3.8044,-3.776,-3.8097,-3.834,-3.8066,-3.8005,-3.7974,-3.7779,-3.7283,-3.6923,-3.6639,-3.6193,-3.5971,-3.5971,-3.5986,-3.643,-3.7598,-3.9386,-4.1255,-4.3537,-4.5179,-4.6747,-4.8396,-4.8911,-4.9616,-5.0091,-5.013,-5.0149,-5.0071,-5.0071,-5.0051,-4.9914,-4.9953,-4.9993,-4.9805,-4.9941,-5.0338,-5.0774,-5.1397,-5.2186,-5.3157,-5.4945,-5.6769,-5.9623,-6.2137,-6.3547,-6.4455,-6.5368,-6.5986,-6.6086,-6.6112,-6.6112,-6.6112,-6.6112,-6.6112,-6.6112,-6.6112,-6.6112,-6.6112,-6.6112,-6.6112,-6.6112,-6.6112,-6.6112,-6.6112,-6.6797,-6.7646,-6.7957,-6.9518,-7.1177,-1.7419,-1.7419,-1.7641,-1.7641,-1.785,-1.8703,-1.9991,-2.1686,-2.362,-2.5212,-2.6484,-2.8465,-2.9781,-3.0403,-3.156,-3.2451,-3.3085,-3.3498,-3.391,-3.3924,-3.4276,-3.4563,-3.4576,-3.4723,-3.4803,-3.4803,-3.4937,-3.5004,-3.503,-3.5297,-3.5431,-3.5444,-3.5591,-3.5605,-3.5485,-3.5471,-3.5471,-3.5471,-3.5809,-3.5869,-3.5869,-3.6691,-3.6829,-3.666,-3.7122,-3.7083,-3.6767,-3.6954,-3.7084,-3.6938,-3.6938,-3.6938,-3.6938,-3.6723,-3.6464,-3.632,-3.6106,-3.592,-3.592,-3.6263,-3.7171,-3.8045,-3.9872,-4.1746,-4.4004,-4.531,-4.659,-4.8139,-4.9091,-4.9934,-5.0527,-5.0723,-5.0762,-5.0547,-5.0508,-5.043,-5.0215,-5.0176,-5.0176,-5.0176,-5.0176,-5.0444,-5.0869,-5.1269,-5.2127,-5.3443,-5.5522,-5.8206,-6.0401,-6.2408,-6.3836,-6.4531,-6.542,-6.6086,-6.6112,-6.6112,-6.6112,-6.6112,-6.6112,-6.6112,-6.6112,-6.6112,-6.6112,-6.6112,-6.6112,-6.6112,-6.6112,-6.6112,-6.6112,-6.6112,-6.6797,-6.7477,-6.7983,-6.9862,-7.1961,-1.7521,-1.7521,-1.7744,-1.7744,-1.7738,-1.8596,-1.97,-2.0603,-2.1889,-2.3412,-2.5147,-2.6943,-2.8557,-2.9607,-3.0294,-3.1376,-3.2433,-3.3057,-3.3473,-3.372,-3.4333,-3.4648,-3.4883,-3.5097,-3.5204,-3.5204,-3.5204,-3.5231,-3.5311,-3.5525,-3.5658,-3.5738,-3.5952,-3.6072,-3.6072,-3.6072,-3.6072,-3.6059,-3.6342,-3.6448,-3.638,-3.7021,-3.7108,-3.6886,-3.6649,-3.6621,-3.6397,-3.6369,-3.6369,-3.6369,-3.6369,-3.6369,-3.6369,-3.6162,-3.6162,-3.6162,-3.5955,-3.5955,-3.5969,-3.6786,-3.7444,-3.8315,-4.0018,-4.2162,-4.3976,-4.5121,-4.6431,-4.8229,-4.9503,-5.0473,-5.1114,-5.1523,-5.1543,-5.1172,-5.1094,-5.0957,-5.0547,-5.0469,-5.0469,-5.0469,-5.0469,-5.0605,-5.0859,-5.1322,-5.2379,-5.4168,-5.6724,-5.9154,-6.0636,-6.2077,-6.3498,-6.4353,-6.5421,-6.594,-6.6112,-6.6112,-6.6112,-6.6112,-6.6112,-6.6112,-6.6112,-6.6112,-6.6112,-6.6112,-6.6112,-6.6112,-6.6112,-6.6112,-6.6187,-6.6287,-6.705,-6.7928,-6.8786,-7.0751,-7.2993,-1.7812,-1.7819,-1.7812,-1.8267,-1.8487,-1.8708,-1.9228,-2.0019,-2.1136,-2.1899,-2.2616,-2.5221,-2.712,-2.8196,-2.9461,-3.0632,-3.1923,-3.2336,-3.3197,-3.4056,-3.4293,-3.4729,-3.5164,-3.5204,-3.5204,-3.5217,-3.5231,-3.5364,-3.5578,-3.5631,-3.5778,-3.6006,-3.6059,-3.6099,-3.6086,-3.6086,-3.6086,-3.6072,-3.6313,-3.6299,-3.6262,-3.6679,-3.6881,-3.6854,-3.7256,-3.7657,-3.7331,-3.7629,-3.7615,-3.7629,-3.7373,-3.7401,-3.7387,-3.6972,-3.6758,-3.6744,-3.6315,-3.6127,-3.6114,-3.6584,-3.7228,-3.7899,-3.9421,-4.1164,-4.3108,-4.5047,-4.7207,-4.9441,-5.0485,-5.1428,-5.2321,-5.2519,-5.2344,-5.1973,-5.1914,-5.1797,-5.1426,-5.1328,-5.1308,-5.1328,-5.1269,-5.1348,-5.1328,-5.1889,-5.2872,-5.4652,-5.6371,-5.8211,-5.9703,-6.1585,-6.3039,-6.4075,-6.4925,-6.5644,-6.6015,-6.6112,-6.6237,-6.6187,-6.6162,-6.6237,-6.6312,-6.6262,-6.6137,-6.6438,-6.6262,-6.6287,-6.6237,-6.6137,-6.6363,-6.6963,-6.7781,-6.8913,-7.0884,-7.2245,-7.3568,-1.786,-1.786,-1.786,-1.8143,-1.8448,-1.8321,-1.8846,-1.9578,-2.002,-2.0732,-2.1438,-2.3009,-2.4889,-2.7081,-2.8049,-2.9185,-3.0722,-3.1591,-3.2458,-3.3334,-3.4209,-3.5069,-3.5283,-3.5497,-3.5712,-3.5712,-3.5712,-3.5778,-3.5899,-3.6059,-3.6299,-3.6553,-3.6593,-3.658,-3.658,-3.658,-3.658,-3.6593,-3.67,-3.67,-3.6607,-3.6799,-3.6719,-3.6788,-3.6979,-3.6883,-3.6747,-3.672,-3.672,-3.672,-3.672,-3.672,-3.672,-3.6504,-3.6504,-3.6504,-3.6288,-3.6072,-3.6072,-3.6883,-3.7413,-3.8049,-3.9732,-4.156,-4.3273,-4.5589,-4.7705,-4.9744,-5.0789,-5.1515,-5.2135,-5.2515,-5.2637,-5.248,-5.2461,-5.2383,-5.2226,-5.2187,-5.2109,-5.1875,-5.1816,-5.1699,-5.1504,-5.2201,-5.3165,-5.4312,-5.5829,-5.77,-5.9177,-6.1048,-6.2705,-6.4182,-6.5287,-6.6066,-6.6541,-6.6614,-6.6764,-6.7015,-6.7116,-6.7116,-6.7066,-6.7116,-6.7116,-6.7091,-6.7041,-6.7041,-6.7166,-6.7116,-6.7216,-6.7618,-6.8366,-6.9532,-7.1963,-7.3057,-7.4225,-1.7955,-1.7982,-1.7989,-1.805,-1.8165,-1.8274,-1.8568,-1.9057,-1.9284,-1.976,-2.0705,-2.1378,-2.2954,-2.5189,-2.6213,-2.7721,-2.927,-3.0373,-3.1472,-3.2361,-3.3889,-3.4759,-3.5193,-3.564,-3.5856,-3.6072,-3.6059,-3.6112,-3.6206,-3.6487,-3.6727,-3.6914,-3.6941,-3.6941,-3.6941,-3.6941,-3.6941,-3.6927,-3.6941,-3.6941,-3.6927,-3.6941,-3.6834,-3.6647,-3.662,-3.6527,-3.6326,-3.6313,-3.6313,-3.6313,-3.6313,-3.6313,-3.6313,-3.6313,-3.6313,-3.6313,-3.6313,-3.6313,-3.6313,-3.6951,-3.7497,-3.8384,-3.9893,-4.1798,-4.3594,-4.5762,-4.7748,-4.9511,-5.0808,-5.1643,-5.2281,-5.2665,-5.3027,-5.291,-5.2891,-5.2851,-5.2715,-5.2715,-5.2578,-5.2305,-5.2129,-5.1914,-5.1737,-5.2201,-5.2972,-5.374,-5.5451,-5.7228,-5.8803,-6.0799,-6.272,-6.4511,-6.5746,-6.6508,-6.7092,-6.7191,-6.7417,-6.7618,-6.7719,-6.7693,-6.7819,-6.7794,-6.7794,-6.7493,-6.7719,-6.7769,-6.7593,-6.7693,-6.8071,-6.8524,-6.9177,-7.0577,-7.2744,-7.3986,-7.5296,-1.7934,-1.8287,-1.8301,-1.8294,-1.8308,-1.8328,-1.8403,-1.8754,-1.9205,-1.9519,-1.9857,-2.0333,-2.1494,-2.2834,-2.4569,-2.6175,-2.7509,-2.865,-2.9977,-3.1519,-3.2397,-3.3466,-3.5193,-3.5206,-3.5653,-3.6153,-3.6153,-3.6259,-3.65,-3.6767,-3.6927,-3.6941,-3.6941,-3.6941,-3.6941,-3.6941,-3.6941,-3.6941,-3.6941,-3.6941,-3.6941,-3.6941,-3.6927,-3.6901,-3.6914,-3.6887,-3.6874,-3.6887,-3.6874,-3.6887,-3.6861,-3.6874,-3.6887,-3.6874,-3.6861,-3.6874,-3.6874,-3.6874,-3.6861,-3.6901,-3.7356,-3.8459,-3.9408,-4.0826,-4.3504,-4.5276,-4.7137,-4.9221,-5.0963,-5.227,-5.298,-5.344,-5.3711,-5.3379,-5.334,-5.3164,-5.2793,-5.2851,-5.2734,-5.2637,-5.2363,-5.1992,-5.1543,-5.1814,-5.2627,-5.378,-5.5073,-5.6731,-5.8853,-6.0682,-6.2796,-6.4402,-6.586,-6.673,-6.7592,-6.7769,-6.7794,-6.802,-6.817,-6.7945,-6.7844,-6.7819,-6.7869,-6.7894,-6.802,-6.8045,-6.7894,-6.8121,-6.8701,-6.9332,-7.0497,-7.201,-7.3513,-7.5176,-7.6483,-1.8274,-1.8562,-1.8423,-1.8457,-1.847,-1.8559,-1.8633,-1.8681,-1.8912,-1.9171,-1.9212,-1.9683,-2.0377,-2.0833,-2.2768,-2.4759,-2.6582,-2.725,-2.8603,-3.0398,-3.1751,-3.3309,-3.4638,-3.53,-3.5961,-3.662,-3.6633,-3.6674,-3.6767,-3.6901,-3.6941,-3.6941,-3.6941,-3.6941,-3.6941,-3.6941,-3.6941,-3.6941,-3.6941,-3.6941,-3.6941,-3.6941,-3.6941,-3.6941,-3.6941,-3.6941,-3.6941,-3.6941,-3.6941,-3.6941,-3.6941,-3.6941,-3.6941,-3.6941,-3.6941,-3.6941,-3.6941,-3.6941,-3.6954,-3.7114,-3.7667,-3.9,-3.985,-4.109,-4.3658,-4.5446,-4.724,-4.9273,-5.1168,-5.2661,-5.3311,-5.3738,-5.3965,-5.3828,-5.3789,-5.373,-5.3613,-5.3555,-5.3457,-5.3144,-5.2754,-5.2324,-5.1973,-5.2247,-5.2832,-5.3609,-5.4938,-5.6655,-5.8773,-6.0991,-6.313,-6.4657,-6.6434,-6.7587,-6.8335,-6.8344,-6.8422,-6.8723,-6.8899,-6.8874,-6.8798,-6.8723,-6.8773,-6.8698,-6.8673,-6.8673,-6.8648,-6.8673,-6.9181,-7.017,-7.1189,-7.2394,-7.3951,-7.5481,-7.6816,-1.8692,-1.872,-1.8572,-1.8606,-1.8626,-1.8769,-1.8837,-1.8843,-1.8884,-1.8905,-1.9138,-1.9372,-1.9599,-2.0066,-2.1231,-2.2851,-2.5156,-2.6186,-2.7717,-2.9307,-3.1116,-3.2691,-3.4035,-3.5164,-3.6054,-3.6484,-3.6941,-3.6941,-3.6941,-3.6941,-3.6941,-3.6941,-3.6941,-3.6941,-3.6941,-3.6941,-3.6941,-3.6941,-3.6941,-3.6941,-3.6941,-3.6941,-3.6941,-3.6941,-3.6941,-3.6941,-3.6941,-3.6941,-3.6941,-3.6941,-3.6941,-3.6941,-3.6941,-3.6941,-3.6941,-3.6941,-3.7034,-3.7088,-3.7114,-3.7355,-3.7965,-3.9308,-3.9939,-4.1217,-4.3792,-4.5343,-4.7153,-4.9205,-5.1297,-5.2972,-5.3689,-5.424,-5.4394,-5.4277,-5.4238,-5.416,-5.4043,-5.4023,-5.3789,-5.3398,-5.3105,-5.2754,-5.2402,-5.2719,-5.3093,-5.3878,-5.5026,-5.6739,-5.8895,-6.1132,-6.3361,-6.4995,-6.6736,-6.7824,-6.8552,-6.864,-6.8874,-6.915,-6.9225,-6.9376,-6.9451,-6.9451,-6.9451,-6.9451,-6.9451,-6.9451,-6.9451,-6.9451,-6.9966,-7.0681,-7.1542,-7.2568,-7.4123,-7.5817,-7.7146,-1.8755,-1.8755,-1.8762,-1.8776,-1.8803,-1.8932,-1.8986,-1.9013,-1.9122,-1.9156,-1.9142,-1.9176,-1.9622,-1.988,-2.0325,-2.1307,-2.3121,-2.4952,-2.6634,-2.7975,-2.9771,-3.1567,-3.3364,-3.4495,-3.5609,-3.6276,-3.6719,-3.6941,-3.6941,-3.6941,-3.6941,-3.6941,-3.6941,-3.6941,-3.6941,-3.6941,-3.6941,-3.6941,-3.6941,-3.6941,-3.6941,-3.6941,-3.6941,-3.6941,-3.6941,-3.6941,-3.6941,-3.6941,-3.6941,-3.6941,-3.6941,-3.6941,-3.6941,-3.6967,-3.6954,-3.7021,-3.7221,-3.7368,-3.7408,-3.7649,-3.8276,-3.9405,-3.9644,-4.0956,-4.3443,-4.5041,-4.6697,-4.9351,-5.1403,-5.2971,-5.3987,-5.4935,-5.5137,-5.4765,-5.4648,-5.4453,-5.418,-5.4043,-5.3867,-5.3516,-5.3379,-5.3183,-5.2851,-5.2715,-5.3311,-5.432,-5.5303,-5.6815,-5.9159,-6.1256,-6.3335,-6.5164,-6.6818,-6.7947,-6.8519,-6.9064,-6.922,-6.9426,-6.9401,-6.9451,-6.9451,-6.9451,-6.9451,-6.9451,-6.9451,-6.9451,-6.9451,-6.9451,-6.9966,-7.0681,-7.1718,-7.2742,-7.4464,-7.6011,-7.7502,-1.8823,-1.9152,-1.8925,-1.8979,-1.9061,-1.9115,-1.9135,-1.9142,-1.9183,-1.9203,-1.9203,-1.9203,-1.9441,-1.9441,-1.9908,-2.039,-2.1086,-2.3097,-2.4854,-2.6808,-2.8253,-2.9997,-3.2029,-3.3376,-3.4718,-3.6054,-3.6719,-3.6941,-3.6941,-3.6941,-3.6941,-3.6941,-3.6941,-3.6941,-3.6941,-3.6941,-3.6941,-3.6941,-3.6941,-3.6941,-3.6941,-3.6941,-3.6941,-3.6941,-3.6941,-3.6941,-3.6941,-3.6941,-3.6941,-3.6941,-3.6941,-3.6941,-3.6967,-3.7128,-3.7235,-3.7275,-3.7515,-3.7689,-3.7716,-3.7943,-3.8573,-3.9739,-4.012,-4.1416,-4.3807,-4.5162,-4.699,-4.9369,-5.169,-5.3378,-5.4439,-5.565,-5.5859,-5.5195,-5.4863,-5.4668,-5.4453,-5.4199,-5.3984,-5.3867,-5.3828,-5.3613,-5.3281,-5.3164,-5.3565,-5.4584,-5.5379,-5.6905,-5.9204,-6.1037,-6.2639,-6.4388,-6.6076,-6.7764,-6.8337,-6.8883,-6.927,-6.9451,-6.9451,-6.9451,-6.9451,-6.9451,-6.9451,-6.9451,-6.9451,-6.9451,-6.9451,-6.9812,-7.0145,-7.0859,-7.1894,-7.3289,-7.4662,-7.6179,-7.7829,-1.8905,-1.9235,-1.9047,-1.9122,-1.921,-1.9257,-1.9284,-1.9298,-1.9345,-1.9373,-1.9373,-1.9373,-1.9373,-1.9373,-1.9845,-2.0084,-2.0316,-2.1696,-2.3261,-2.5482,-2.7375,-2.9343,-3.1364,-3.3094,-3.457,-3.5844,-3.6719,-3.6941,-3.6941,-3.6941,-3.6941,-3.6941,-3.6941,-3.6941,-3.6941,-3.6941,-3.6941,-3.6941,-3.6941,-3.6941,-3.6954,-3.7048,-3.7101,-3.7114,-3.7208,-3.7261,-3.7261,-3.7261,-3.7155,-3.7008,-3.7034,-3.7101,-3.7128,-3.7368,-3.7542,-3.7595,-3.7796,-3.7983,-3.801,-3.8263,-3.8884,-4.0059,-4.0442,-4.169,-4.3762,-4.5335,-4.712,-4.9369,-5.1779,-5.3563,-5.4863,-5.5939,-5.6308,-5.5859,-5.543,-5.5039,-5.4746,-5.4297,-5.4043,-5.4004,-5.4004,-5.3867,-5.3691,-5.3613,-5.4018,-5.5025,-5.5626,-5.6842,-5.9113,-6.0916,-6.2483,-6.4009,-6.589,-6.7212,-6.7971,-6.8701,-6.927,-6.9451,-6.9451,-6.9451,-6.9451,-6.9451,-6.9451,-6.9451,-6.9451,-6.9451,-6.9451,-6.9812,-7.0324,-7.1214,-7.2096,-7.3462,-7.4832,-7.6512,-7.7993,-1.9,-1.9269,-1.9162,-1.923,-1.9271,-1.9386,-1.9447,-1.9468,-1.9576,-1.963,-1.9637,-1.9617,-1.963,-1.9651,-1.9853,-2.0095,-2.0594,-2.0947,-2.2073,-2.3917,-2.6387,-2.8844,-3.0836,-3.3176,-3.5044,-3.5987,-3.6616,-3.6799,-3.7021,-3.7008,-3.6954,-3.6941,-3.6941,-3.6941,-3.6941,-3.6941,-3.6941,-3.6941,-3.6941,-3.6941,-3.6994,-3.7221,-3.7382,-3.7408,-3.7622,-3.7742,-3.7729,-3.7716,-3.7515,-3.7114,-3.7275,-3.7408,-3.7448,-3.7676,-3.7836,-3.7849,-3.8116,-3.825,-3.8344,-3.8504,-3.9127,-4.0268,-4.0742,-4.169,-4.3762,-4.5335,-4.6896,-4.9369,-5.1797,-5.3563,-5.4882,-5.5939,-5.6543,-5.6504,-5.5976,-5.541,-5.4765,-5.4297,-5.4062,-5.4023,-5.4023,-5.4023,-5.3965,-5.3965,-5.4372,-5.5184,-5.595,-5.7173,-5.8959,-6.0548,-6.2291,-6.4009,-6.5703,-6.7027,-6.7788,-6.8701,-6.9451,-6.9451,-6.9451,-6.9451,-6.9451,-6.9451,-6.9451,-6.9451,-6.9451,-6.9451,-6.9631,-6.9991,-7.0503,-7.1214,-7.2271,-7.3488,-7.5001,-7.6678,-7.8155,-1.9122,-1.9557,-1.9359,-1.9434,-1.9535,-1.959,-1.9596,-1.9603,-1.9637,-1.9664,-1.9664,-1.9664,-1.9664,-1.9664,-1.9664,-1.9908,-2.0137,-2.058,-2.1533,-2.2965,-2.4606,-2.7707,-3.0989,-3.3183,-3.4941,-3.6001,-3.6627,-3.7026,-3.7288,-3.7275,-3.7155,-3.6941,-3.6967,-3.6941,-3.6941,-3.6941,-3.6941,-3.6941,-3.6941,-3.7048,-3.7235,-3.7328,-3.7489,-3.7702,-3.7796,-3.7836,-3.7823,-3.7809,-3.7769,-3.7622,-3.7649,-3.7702,-3.7729,-3.7983,-3.8143,-3.8183,-3.841,-3.8597,-3.8611,-3.8664,-3.9399,-4.031,-4.054,-4.169,-4.3989,-4.5335,-4.712,-4.9369,-5.1797,-5.3563,-5.4863,-5.5939,-5.6582,-5.6504,-5.5957,-5.5312,-5.4805,-5.4297,-5.4023,-5.4023,-5.4023,-5.4023,-5.4023,-5.4023,-5.4227,-5.5041,-5.5628,-5.6413,-5.8408,-5.9962,-6.1713,-6.3439,-6.5165,-6.6658,-6.7788,-6.8701,-6.9245,-6.9451,-6.9451,-6.9451,-6.9451,-6.9451,-6.9451,-6.9451,-6.9451,-6.9451,-6.9812,-7.0145,-7.0681,-7.1214,-7.2621,-7.3833,-7.517,-7.6843,-7.8289,-1.9278,-1.9681,-1.9501,-1.9576,-1.9657,-1.9664,-1.9664,-1.9664,-1.9664,-1.9664,-1.9664,-1.9664,-1.9664,-1.9664,-1.9664,-1.9705,-1.9739,-2.0415,-2.1144,-2.1918,-2.3778,-2.6922,-3.0219,-3.2712,-3.4051,-3.5102,-3.6016,-3.6823,-3.7144,-3.7118,-3.7184,-3.7181,-3.7128,-3.7061,-3.6941,-3.6941,-3.6941,-3.6941,-3.6954,-3.7074,-3.7355,-3.7502,-3.7729,-3.7969,-3.8103,-3.8197,-3.8197,-3.821,-3.809,-3.7916,-3.7916,-3.7996,-3.8023,-3.829,-3.845,-3.8464,-3.8624,-3.8718,-3.8718,-3.8718,-3.9399,-4.031,-4.054,-4.1919,-4.3762,-4.5335,-4.6896,-4.9369,-5.1797,-5.3563,-5.4882,-5.5939,-5.6582,-5.6484,-5.582,-5.5234,-5.4961,-5.4414,-5.4082,-5.4023,-5.4023,-5.4023,-5.4023,-5.4023,-5.4227,-5.4838,-5.5224,-5.6434,-5.7834,-5.9395,-6.1154,-6.3249,-6.5165,-6.6658,-6.7788,-6.8701,-6.9245,-6.9451,-6.9451,-6.9451,-6.9451,-6.9451,-6.9451,-6.9451,-6.9451,-6.9451,-6.9812,-7.0145,-7.0859,-7.1744,-7.2969,-7.4321,-7.5676,-7.7009,-7.8451,-1.944,-1.9715,-1.961,-1.9664,-1.9664,-1.9664,-1.9664,-1.9664,-1.9664,-1.9664,-1.9664,-1.9664,-1.9678,-1.9678,-1.9712,-1.9766,-1.9888,-2.029,-2.0541,-2.1542,-2.3431,-2.615,-2.883,-3.1339,-3.2873,-3.4123,-3.5418,-3.6092,-3.6523,-3.6739,-3.7037,-3.7052,-3.7197,-3.7078,-3.6709,-3.6603,-3.6759,-3.6786,-3.6733,-3.6879,-3.7382,-3.7622,-3.7903,-3.8183,-3.8477,-3.8611,-3.8638,-3.8638,-3.8464,-3.7943,-3.817,-3.829,-3.8344,-3.8584,-3.8691,-3.8691,-3.8704,-3.8718,-3.8718,-3.8718,-3.9181,-4.0324,-4.054,-4.169,-4.3762,-4.5335,-4.712,-4.9386,-5.1797,-5.3544,-5.5079,-5.6154,-5.6523,-5.6367,-5.5742,-5.5371,-5.5117,-5.4531,-5.4023,-5.4023,-5.4023,-5.4023,-5.4023,-5.4023,-5.4227,-5.4431,-5.5224,-5.6233,-5.7614,-5.9198,-6.1132,-6.3249,-6.4977,-6.6867,-6.7788,-6.8701,-6.9064,-6.9451,-6.9451,-6.9451,-6.9451,-6.9451,-6.9451,-6.9451,-6.9451,-6.9451,-6.9812,-7.0324,-7.1037,-7.2096,-7.3316,-7.4635,-7.6151,-7.731,-7.8613,-1.9501,-1.9617,-1.9651,-1.9664,-1.9664,-1.9664,-1.9664,-1.9664,-1.9664,-1.9664,-1.9664,-1.9664,-1.9725,-1.982,-1.9827,-1.9908,-2.0044,-2.0258,-2.0526,-2.1268,-2.3236,-2.457,-2.6563,-2.905,-3.1535,-3.3103,-3.4543,-3.5378,-3.5705,-3.6091,-3.6423,-3.618,-3.6369,-3.6343,-3.624,-3.6034,-3.6168,-3.6341,-3.6407,-3.6669,-3.7368,-3.7649,-3.7929,-3.825,-3.8544,-3.8691,-3.8718,-3.8718,-3.8651,-3.8571,-3.8571,-3.8584,-3.8611,-3.8678,-3.8718,-3.8718,-3.8718,-3.8718,-3.8718,-3.8718,-3.9181,-4.0324,-4.0771,-4.169,-4.3989,-4.5335,-4.712,-4.9369,-5.1797,-5.3978,-5.5725,-5.6368,-5.6426,-5.6094,-5.5625,-5.5156,-5.4824,-5.4355,-5.4062,-5.4023,-5.4023,-5.4023,-5.4023,-5.4023,-5.4023,-5.4227,-5.5021,-5.6031,-5.7614,-5.9198,-6.1132,-6.3249,-6.5165,-6.6867,-6.7788,-6.8701,-6.927,-6.9451,-6.9451,-6.9451,-6.9451,-6.9451,-6.9451,-6.9451,-6.9451,-6.9631,-6.9812,-7.0324,-7.1037,-7.2245,-7.3634,-7.4974,-7.6318,-7.7474,-7.8935,-1.959,-1.9664,-1.9664,-1.9664,-1.9664,-1.9664,-1.9664,-1.9664,-1.9664,-1.9664,-1.9678,-1.9725,-1.9807,-1.9881,-1.9949,-2.0064,-2.018,-2.0207,-2.0416,-2.1107,-2.2317,-2.326,-2.4671,-2.6718,-2.9001,-3.1214,-3.2816,-3.3923,-3.4309,-3.4961,-3.5316,-3.53,-3.5288,-3.5418,-3.5559,-3.5408,-3.5711,-3.6034,-3.5905,-3.6117,-3.6946,-3.7065,-3.7622,-3.817,-3.8424,-3.8557,-3.8704,-3.8718,-3.8718,-3.8718,-3.8718,-3.8718,-3.8718,-3.8718,-3.8718,-3.8718,-3.8718,-3.8718,-3.8718,-3.8718,-3.9181,-4.0093,-4.0324,-4.169,-4.3519,-4.5093,-4.712,-4.9369,-5.1797,-5.3978,-5.6134,-5.6348,-5.6152,-5.5898,-5.5371,-5.4941,-5.4668,-5.4297,-5.4023,-5.4023,-5.4023,-5.4023,-5.4023,-5.4023,-5.4023,-5.4227,-5.5021,-5.6031,-5.7414,-5.9001,-6.1132,-6.3249,-6.5165,-6.6867,-6.7788,-6.8701,-6.927,-6.9451,-6.9451,-6.9451,-6.9451,-6.9451,-6.9451,-6.9451,-6.9451,-6.9631,-6.9991,-7.0681,-7.1391,-7.2594,-7.3978,-7.5339,-7.6843,-7.8155,-7.9443,-1.9664,-1.9664,-1.9664,-1.9664,-1.9664,-1.9664,-1.9664,-1.9664,-1.9691,-1.9712,-1.9725,-1.9847,-1.9936,-1.9983,-2.0085,-2.022,-2.0329,-2.0356,-2.0553,-2.0978,-2.1463,-2.2174,-2.361,-2.4788,-2.6358,-2.8672,-3.0791,-3.1948,-3.2636,-3.331,-3.3642,-3.3945,-3.3921,-3.4083,-3.4354,-3.4463,-3.4607,-3.5143,-3.5182,-3.5558,-3.6246,-3.651,-3.7224,-3.805,-3.8263,-3.8397,-3.8584,-3.8678,-3.8718,-3.8718,-3.8718,-3.8718,-3.8718,-3.8718,-3.8718,-3.8718,-3.8718,-3.8718,-3.8718,-3.8718,-3.895,-3.9631,-4.031,-4.146,-4.3276,-4.5093,-4.712,-4.9573,-5.2016,-5.4412,-5.6329,-5.625,-5.5976,-5.5703,-5.5117,-5.4707,-5.4531,-5.4238,-5.4062,-5.4023,-5.4023,-5.4023,-5.4023,-5.4023,-5.4023,-5.4227,-5.5021,-5.6011,-5.7414,-5.898,-6.1132,-6.3249,-6.5165,-6.7212,-6.8337,-6.8701,-6.927,-6.9451,-6.9451,-6.9451,-6.9451,-6.9451,-6.9451,-6.9451,-6.9451,-6.9812,-7.0171,-7.0859,-7.1744,-7.2942,-7.4321,-7.5676,-7.7174,-7.8641,-7.992,-1.9664,-1.9664,-1.9664,-1.9664,-1.9664,-1.9664,-1.9664,-1.9685,-1.9786,-1.9834,-1.9861,-1.9997,-2.0132,-2.022,-2.0268,-2.0376,-2.0465,-2.0478,-2.0471,-2.0683,-2.1182,-2.1895,-2.2301,-2.3535,-2.4657,-2.5694,-2.7969,-2.9813,-3.0461,-3.104,-3.1656,-3.1601,-3.1804,-3.1985,-3.2377,-3.251,-3.2827,-3.3833,-3.404,-3.4313,-3.5132,-3.6008,-3.6814,-3.7649,-3.809,-3.8263,-3.8397,-3.8597,-3.8718,-3.8718,-3.8718,-3.8718,-3.8718,-3.8718,-3.8718,-3.8718,-3.8718,-3.8718,-3.8718,-3.8718,-3.895,-3.9631,-4.0324,-4.146,-4.3063,-4.5093,-4.712,-4.9795,-5.2673,-5.5079,-5.6348,-5.6133,-5.5762,-5.541,-5.498,-5.4531,-5.4258,-5.4101,-5.4023,-5.4023,-5.4023,-5.4023,-5.4023,-5.4023,-5.4023,-5.4227,-5.5021,-5.6031,-5.7215,-5.9001,-6.1132,-6.3249,-6.5165,-6.7212,-6.8883,-6.9064,-6.9451,-6.9451,-6.9451,-6.9451,-6.9451,-6.9451,-6.9451,-6.9451,-6.9631,-6.9812,-7.0324,-7.1037,-7.2271,-7.3462,-7.4832,-7.6179,-7.7638,-7.8963,-8.0107,-1.9664,-1.9664,-1.9664,-1.9664,-1.9664,-1.9664,-1.9705,-1.9773,-1.9847,-1.9922,-2.0017,-2.0153,-2.0254,-2.0336,-2.0417,-2.0485,-2.0526,-2.0539,-2.0539,-2.0539,-2.0786,-2.1273,-2.1448,-2.245,-2.2915,-2.3801,-2.5392,-2.7182,-2.8055,-2.8829,-2.9451,-2.94,-2.9329,-2.9735,-3.0437,-3.0579,-3.1393,-3.2197,-3.2678,-3.3101,-3.4228,-3.5469,-3.6432,-3.7131,-3.7649,-3.809,-3.8303,-3.8557,-3.8718,-3.8718,-3.8718,-3.8718,-3.8718,-3.8718,-3.8718,-3.8718,-3.8718,-3.8718,-3.8718,-3.8718,-3.895,-3.9168,-4.0093,-4.1231,-4.2835,-4.4866,-4.7552,-5.09,-5.3109,-5.5199,-5.6037,-5.5859,-5.5449,-5.5019,-5.4609,-5.4297,-5.4101,-5.4043,-5.4023,-5.4023,-5.4023,-5.4023,-5.4023,-5.4023,-5.4023,-5.4431,-5.5021,-5.6031,-5.7035,-5.9001,-6.1154,-6.363,-6.5727,-6.7396,-6.9064,-6.927,-6.9451,-6.9451,-6.9451,-6.9451,-6.9451,-6.9451,-6.9451,-6.9451,-6.9631,-6.9786,-7.0503,-7.1214,-7.2594,-7.3978,-7.5143,-7.6484,-7.7964,-7.9255,-8.0394,-1.9664,-1.9664,-1.9664,-1.9664,-1.9664,-1.9691,-1.9766,-1.9868,-1.9949,-2.0044,-2.0153,-2.0295,-2.037,-2.0404,-2.0471,-2.0539,-2.0539,-2.0539,-2.0539,-2.0539,-2.0539,-2.0793,-2.1301,-2.1555,-2.204,-2.2495,-2.3174,-2.4283,-2.5825,-2.6855,-2.7026,-2.7195,-2.7046,-2.7654,-2.8622,-2.8802,-2.9859,-3.0698,-3.1284,-3.1972,-3.362,-3.4944,-3.5974,-3.6406,-3.7171,-3.7702,-3.813,-3.8531,-3.8691,-3.8718,-3.8718,-3.8718,-3.8718,-3.8718,-3.8718,-3.8718,-3.8718,-3.8718,-3.8718,-3.8718,-3.8718,-3.9181,-4.0093,-4.1231,-4.3063,-4.5529,-4.8668,-5.2217,-5.4083,-5.5046,-5.5784,-5.5488,-5.5098,-5.4746,-5.4355,-5.4023,-5.4043,-5.4023,-5.4023,-5.4023,-5.4023,-5.4023,-5.4023,-5.4023,-5.4023,-5.4431,-5.5224,-5.6233,-5.7435,-5.9198,-6.1326,-6.4009,-6.61,-6.7764,-6.8883,-6.927,-6.9451,-6.9451,-6.9451,-6.9451,-6.9451,-6.9451,-6.9451,-6.9451,-6.9606,-6.9966,-7.0681,-7.1568,-7.2769,-7.4123,-7.5481,-7.6981,-7.8451,-7.9762,-8.0737,-1.9664,-1.9664,-1.9664,-1.9664,-1.9685,-1.9793,-1.9854,-1.9915,-2.0153,-2.0282,-2.0309,-2.0438,-2.0505,-2.0512,-2.0519,-2.0539,-2.0539,-2.0539,-2.0539,-2.0539,-2.0539,-2.0539,-2.0793,-2.1301,-2.1555,-2.1801,-2.2286,-2.2954,-2.3793,-2.4855,-2.5263,-2.5221,-2.5573,-2.6179,-2.6618,-2.675,-2.7348,-2.8722,-2.9509,-3.1309,-3.3224,-3.4001,-3.4782,-3.5905,-3.6866,-3.7422,-3.8036,-3.8437,-3.8704,-3.8718,-3.8718,-3.8718,-3.8718,-3.8718,-3.8718,-3.8718,-3.8718,-3.8718,-3.8718,-3.8718,-3.895,-3.9413,-4.0093,-4.146,-4.3731,-4.6655,-5.0017,-5.2654,-5.3933,-5.4703,-5.5492,-5.5195,-5.4844,-5.457,-5.4277,-5.4082,-5.4023,-5.4023,-5.4023,-5.4023,-5.4023,-5.4023,-5.4023,-5.4023,-5.4227,-5.4635,-5.5426,-5.6434,-5.7813,-5.9766,-6.1906,-6.4765,-6.6472,-6.8154,-6.9064,-6.927,-6.9451,-6.9451,-6.9451,-6.9451,-6.9451,-6.9451,-6.9451,-6.9451,-6.9786,-7.0145,-7.0859,-7.1718,-7.2916,-7.4294,-7.5817,-7.7502,-7.9152,-8.0265,-8.1234,-1.9664,-1.9664,-1.9664,-1.9712,-1.9786,-1.9847,-1.9976,-2.0139,-2.0268,-2.0376,-2.0444,-2.0505,-2.0539,-2.0539,-2.0539,-2.0539,-2.0539,-2.0539,-2.0539,-2.0539,-2.0539,-2.0539,-2.0539,-2.0793,-2.1047,-2.1047,-2.1294,-2.128,-2.2168,-2.2816,-2.3472,-2.3441,-2.3538,-2.3869,-2.4814,-2.4688,-2.5544,-2.686,-2.8583,-3.0729,-3.2389,-3.3389,-3.4627,-3.5886,-3.6713,-3.7325,-3.7928,-3.845,-3.8704,-3.8718,-3.8718,-3.8718,-3.8718,-3.8718,-3.8718,-3.8718,-3.8718,-3.8718,-3.8718,-3.8718,-3.895,-3.9631,-4.031,-4.1919,-4.4624,-4.7552,-5.0371,-5.2562,-5.3727,-5.4493,-5.5142,-5.4902,-5.4609,-5.4355,-5.416,-5.4101,-5.4023,-5.4023,-5.4023,-5.4023,-5.4023,-5.4023,-5.4023,-5.4023,-5.4227,-5.4838,-5.5628,-5.6635,-5.8387,-6.0743,-6.3035,-6.5727,-6.7212,-6.8337,-6.8883,-6.9451,-6.9451,-6.9451,-6.9451,-6.9451,-6.9451,-6.9451,-6.9451,-6.9631,-6.9812,-7.0324,-7.0859,-7.1894,-7.3116,-7.4662,-7.6345,-7.7829,-7.9472,-8.058,-8.1544,-1.9678,-1.9712,-1.9712,-1.9773,-1.9881,-1.9949,-2.0112,-2.0315,-2.037,-2.0444,-2.0519,-2.0539,-2.0539,-2.0539,-2.0539,-2.0539,-2.0539,-2.0539,-2.0539,-2.0539,-2.0539,-2.0539,-2.0539,-2.0539,-2.0539,-2.0546,-2.0793,-2.0786,-2.1013,-2.1448,-2.1887,-2.2131,-2.2468,-2.2595,-2.2728,-2.3134,-2.4024,-2.5535,-2.7731,-2.9714,-3.124,-3.2724,-3.4003,-3.5405,-3.6487,-3.7345,-3.8074,-3.8557,-3.8718,-3.8718,-3.8718,-3.8718,-3.8718,-3.8718,-3.8718,-3.8718,-3.8718,-3.8718,-3.8718,-3.8718,-3.9181,-3.9862,-4.1231,-4.3048,-4.5545,-4.8239,-5.0319,-5.2398,-5.3465,-5.4111,-5.4467,-5.4609,-5.4355,-5.418,-5.4043,-5.4023,-5.4023,-5.4023,-5.4023,-5.4023,-5.4023,-5.4023,-5.4023,-5.4023,-5.4227,-5.4818,-5.583,-5.6815,-5.898,-6.1713,-6.3986,-6.6472,-6.7396,-6.8337,-6.9064,-6.9451,-6.9451,-6.9451,-6.9451,-6.9451,-6.9451,-6.9451,-6.9451,-6.9631,-6.9991,-7.0503,-7.1214,-7.2271,-7.3462,-7.4832,-7.6345,-7.7993,-7.9443,-8.0737,-8.1852,-1.9739,-1.9861,-1.9861,-1.9875,-1.9908,-2.018,-2.0302,-2.0356,-2.0471,-2.0519,-2.0539,-2.0539,-2.0539,-2.0539,-2.0539,-2.0539,-2.0539,-2.0539,-2.0553,-2.0553,-2.0546,-2.0573,-2.0594,-2.06,-2.058,-2.058,-2.0607,-2.0594,-2.0546,-2.0814,-2.1287,-2.1519,-2.188,-2.2073,-2.2219,-2.2325,-2.3165,-2.4704,-2.6704,-2.8435,-2.9981,-3.1262,-3.2804,-3.4318,-3.5593,-3.6666,-3.7371,-3.8339,-3.8718,-3.8718,-3.8718,-3.8718,-3.8718,-3.8718,-3.8718,-3.8718,-3.8718,-3.8718,-3.8718,-3.8718,-3.9413,-4.0785,-4.2377,-4.4201,-4.5996,-4.8239,-5.0267,-5.2054,-5.3222,-5.3882,-5.4274,-5.4375,-5.4141,-5.4082,-5.4023,-5.4023,-5.4023,-5.4023,-5.4023,-5.4023,-5.4023,-5.4023,-5.4023,-5.4023,-5.4635,-5.5224,-5.6815,-5.7813,-6.0136,-6.2675,-6.4553,-6.6472,-6.7396,-6.8337,-6.9064,-6.9451,-6.9451,-6.9451,-6.9451,-6.9451,-6.9451,-6.9451,-6.9451,-6.9812,-7.0171,-7.0859,-7.1568,-7.2594,-7.3806,-7.5001,-7.6512,-7.8289,-7.992,-8.136,-8.213,-1.982,-1.9888,-2.0071,-2.0153,-2.0166,-2.0282,-2.0376,-2.0458,-2.0519,-2.0539,-2.0539,-2.0539,-2.0539,-2.0539,-2.0539,-2.0539,-2.0539,-2.0539,-2.0594,-2.0661,-2.0689,-2.0743,-2.0777,-2.0804,-2.0824,-2.0811,-2.0811,-2.0756,-2.0695,-2.0682,-2.0607,-2.1054,-2.1252,-2.1161,-2.1062,-2.1434,-2.2504,-2.4081,-2.5667,-2.7212,-2.896,-3.0569,-3.2176,-3.4004,-3.5415,-3.6677,-3.7644,-3.8419,-3.8704,-3.8718,-3.8718,-3.8718,-3.8718,-3.8718,-3.8718,-3.8718,-3.8718,-3.8718,-3.8718,-3.8718,-3.9181,-4.0771,-4.2835,-4.4671,-4.598,-4.8056,-4.9936,-5.1512,-5.2848,-5.3538,-5.413,-5.4141,-5.4043,-5.4023,-5.4023,-5.4023,-5.4023,-5.4023,-5.4023,-5.4023,-5.4023,-5.4023,-5.4023,-5.4023,-5.4635,-5.5426,-5.7215,-5.9177,-6.1519,-6.3439,-6.5141,-6.6658,-6.758,-6.8337,-6.927,-6.9451,-6.9451,-6.9451,-6.9451,-6.9451,-6.9451,-6.9451,-6.9451,-6.9991,-7.0528,-7.1037,-7.192,-7.3116,-7.415,-7.5508,-7.6981,-7.8774,-8.0394,-8.1976,-8.2435,-1.9895,-1.9969,-2.022,-2.0329,-2.0336,-2.0376,-2.0444,-2.0526,-2.0539,-2.0539,-2.0539,-2.0539,-2.0539,-2.0539,-2.0539,-2.0539,-2.056,-2.06,-2.0675,-2.075,-2.0824,-2.0906,-2.0967,-2.0987,-2.096,-2.1001,-2.0994,-2.0919,-2.0845,-2.0838,-2.079,-2.0716,-2.0621,-2.0532,-2.0649,-2.0992,-2.1844,-2.3236,-2.4604,-2.5972,-2.7731,-2.9619,-3.1451,-3.3299,-3.4687,-3.6104,-3.727,-3.8007,-3.8485,-3.8718,-3.8718,-3.8718,-3.8718,-3.8718,-3.8718,-3.8718,-3.8718,-3.8718,-3.8718,-3.9181,-3.9631,-4.1015,-4.3048,-4.4882,-4.6591,-4.811,-5.0214,-5.1972,-5.2623,-5.3233,-5.3877,-5.4023,-5.4023,-5.4023,-5.4023,-5.4023,-5.4023,-5.4023,-5.4023,-5.4023,-5.4023,-5.4023,-5.4227,-5.4431,-5.5224,-5.6413,-5.821,-6.0158,-6.2099,-6.4009,-6.554,-6.6843,-6.7971,-6.8519,-6.927,-6.9245,-6.9401,-6.9451,-6.9451,-6.9451,-6.9451,-6.9451,-6.9631,-6.9991,-7.0681,-7.1391,-7.2446,-7.3634,-7.4805,-7.5984,-7.7801,-7.9762,-8.0864,-8.2282,-8.2587,-1.9963,-2.0112,-2.0268,-2.0336,-2.0356,-2.0478,-2.0532,-2.0539,-2.0539,-2.0539,-2.0539,-2.0539,-2.0539,-2.0539,-2.0539,-2.0553,-2.06,-2.0695,-2.0783,-2.0845,-2.0946,-2.1001,-2.1034,-2.1062,-2.1095,-2.1021,-2.1048,-2.1062,-2.0994,-2.0994,-2.0973,-2.0919,-2.0804,-2.0675,-2.0532,-2.0894,-2.1571,-2.2286,-2.3626,-2.495,-2.6755,-2.8637,-3.0461,-3.224,-3.4088,-3.5747,-3.6843,-3.7555,-3.8253,-3.8718,-3.8718,-3.8718,-3.8718,-3.8718,-3.8718,-3.8718,-3.8718,-3.8718,-3.8718,-3.9862,-4.0554,-4.1475,-4.3519,-4.5513,-4.747,-4.8977,-5.0524,-5.2001,-5.2721,-5.3195,-5.377,-5.4023,-5.4023,-5.4023,-5.4023,-5.4023,-5.4023,-5.4023,-5.4023,-5.4023,-5.4023,-5.4023,-5.4431,-5.4818,-5.583,-5.7215,-5.9198,-6.0916,-6.2798,-6.4225,-6.5675,-6.6591,-6.7686,-6.8378,-6.892,-6.912,-6.9376,-6.9426,-6.9451,-6.9451,-6.9451,-6.9451,-6.9631,-7.0171,-7.0859,-7.1568,-7.2769,-7.415,-7.5817,-7.7638,-7.9255,-8.0893,-8.1823,-8.2312,-8.2617,-2.0112,-2.0268,-2.041,-2.0465,-2.0478,-2.0519,-2.0539,-2.0539,-2.0539,-2.0539,-2.0539,-2.0539,-2.0539,-2.0539,-2.056,-2.06,-2.0695,-2.0729,-2.0817,-2.1055,-2.1116,-2.1211,-2.1252,-2.1258,-2.1272,-2.1285,-2.1285,-2.1211,-2.1143,-2.1143,-2.1068,-2.1001,-2.0946,-2.0783,-2.06,-2.0725,-2.1189,-2.1844,-2.3005,-2.4162,-2.5721,-2.7868,-2.9966,-3.1679,-3.3552,-3.5362,-3.6647,-3.7348,-3.8021,-3.8485,-3.8718,-3.8718,-3.8718,-3.8718,-3.8718,-3.8718,-3.8718,-3.8718,-3.895,-3.9862,-4.0785,-4.1934,-4.3731,-4.5901,-4.724,-4.8653,-5.0438,-5.178,-5.2477,-5.3191,-5.3653,-5.4023,-5.4023,-5.4023,-5.4023,-5.4023,-5.4023,-5.4023,-5.4023,-5.4023,-5.4023,-5.4023,-5.4227,-5.4901,-5.589,-5.7248,-5.9006,-6.08,-6.2647,-6.4016,-6.5407,-6.6348,-6.7175,-6.7986,-6.8569,-6.8794,-6.9275,-6.9426,-6.9451,-6.9451,-6.9451,-6.9451,-6.9991,-7.035,-7.1037,-7.192,-7.3608,-7.5481,-7.7474,-7.9443,-8.058,-8.136,-8.2006,-8.2465,-8.2769,-2.0187,-2.0343,-2.0478,-2.0539,-2.0539,-2.0539,-2.0539,-2.0539,-2.0539,-2.0539,-2.0539,-2.0539,-2.0539,-2.0553,-2.0607,-2.0655,-2.0777,-2.0899,-2.0967,-2.1218,-2.1272,-2.134,-2.1401,-2.1441,-2.1401,-2.1441,-2.1435,-2.1374,-2.1299,-2.1292,-2.1218,-2.1116,-2.1068,-2.0939,-2.077,-2.0661,-2.1061,-2.1722,-2.2649,-2.3832,-2.5443,-2.7329,-2.9702,-3.1457,-3.3247,-3.4797,-3.6539,-3.7386,-3.7788,-3.8485,-3.8718,-3.8718,-3.8718,-3.8718,-3.8718,-3.8718,-3.8718,-3.8718,-3.895,-3.9862,-4.1015,-4.1934,-4.4186,-4.6046,-4.7518,-4.8952,-5.0491,-5.1806,-5.2195,-5.3076,-5.3839,-5.3819,-5.4023,-5.4023,-5.4023,-5.4023,-5.4023,-5.4023,-5.4023,-5.4023,-5.3984,-5.4004,-5.4169,-5.4822,-5.5707,-5.704,-5.8574,-6.0535,-6.2447,-6.3804,-6.5111,-6.6089,-6.6909,-6.779,-6.8269,-6.8698,-6.8999,-6.9376,-6.9451,-6.9451,-6.9451,-6.9451,-6.9991,-7.0707,-7.1391,-7.242,-7.4608,-7.6622,-7.8451,-7.9762,-8.0893,-8.1698,-8.2312,-8.2465,-8.2769,-2.0193,-2.0349,-2.0485,-2.0539,-2.0539,-2.0539,-2.0539,-2.0539,-2.0539,-2.0539,-2.0539,-2.0539,-2.056,-2.0587,-2.0702,-2.079,-2.0858,-2.1075,-2.1177,-2.1258,-2.1353,-2.1414,-2.1435,-2.1441,-2.1441,-2.1441,-2.1435,-2.1428,-2.1428,-2.1401,-2.1326,-2.1252,-2.1224,-2.1109,-2.098,-2.0865,-2.0979,-2.1626,-2.2316,-2.3488,-2.5114,-2.7311,-2.9657,-3.1449,-3.321,-3.4976,-3.6242,-3.7268,-3.762,-3.8266,-3.8718,-3.8718,-3.8718,-3.8718,-3.8718,-3.8718,-3.8718,-3.8718,-3.895,-3.9862,-4.1001,-4.2377,-4.4352,-4.6653,-4.8316,-4.943,-5.0951,-5.2096,-5.2552,-5.3282,-5.3819,-5.3819,-5.4023,-5.4023,-5.4023,-5.4023,-5.4023,-5.4023,-5.4023,-5.4004,-5.3926,-5.3887,-5.3992,-5.4663,-5.5322,-5.6604,-5.8062,-6.0004,-6.1734,-6.368,-6.4993,-6.5673,-6.6636,-6.7718,-6.8145,-6.8371,-6.8874,-6.9275,-6.9426,-6.9451,-6.9451,-6.9451,-6.9966,-7.0681,-7.1391,-7.2942,-7.5649,-7.7474,-7.8802,-8.0107,-8.1204,-8.1852,-8.2465,-8.2617,-8.2769,-2.0248,-2.0478,-2.0526,-2.0539,-2.0539,-2.0539,-2.0539,-2.0539,-2.0539,-2.0539,-2.0539,-2.0539,-2.0594,-2.0709,-2.075,-2.0899,-2.1048,-2.1177,-2.1272,-2.1353,-2.1408,-2.1428,-2.1441,-2.1441,-2.1441,-2.1441,-2.1441,-2.1441,-2.1435,-2.1441,-2.1435,-2.138,-2.1353,-2.1265,-2.1184,-2.1102,-2.1185,-2.1284,-2.2244,-2.339,-2.5047,-2.7244,-2.9599,-3.1661,-3.326,-3.501,-3.664,-3.7211,-3.7788,-3.8539,-3.8731,-3.8718,-3.8718,-3.8718,-3.8718,-3.8718,-3.8718,-3.8718,-3.895,-3.9862,-4.1001,-4.2547,-4.4424,-4.6329,-4.8213,-4.9599,-5.0945,-5.2081,-5.2721,-5.3448,-5.3819,-5.4023,-5.4023,-5.4023,-5.4023,-5.4023,-5.4023,-5.4023,-5.4004,-5.3848,-5.3789,-5.3555,-5.3678,-5.4185,-5.4856,-5.6106,-5.7507,-5.9428,-6.1186,-6.3137,-6.4487,-6.5361,-6.6266,-6.7267,-6.7719,-6.7995,-6.8622,-6.915,-6.93,-6.9426,-6.9451,-6.9631,-6.9966,-7.0859,-7.2245,-7.4294,-7.6816,-7.8318,-7.9152,-8.0423,-8.1544,-8.2006,-8.2465,-8.2617,-8.2769,-2.0275,-2.0526,-2.0539,-2.0539,-2.0539,-2.0539,-2.0539,-2.0539,-2.0539,-2.0539,-2.0539,-2.0539,-2.0627,-2.0763,-2.0845,-2.0987,-2.119,-2.1279,-2.136,-2.1401,-2.1441,-2.1441,-2.1441,-2.1441,-2.1441,-2.1441,-2.1441,-2.1441,-2.1441,-2.1441,-2.1435,-2.1435,-2.1441,-2.1387,-2.1319,-2.1272,-2.117,-2.1499,-2.2118,-2.3537,-2.5213,-2.7137,-2.9756,-3.2141,-3.355,-3.5211,-3.7129,-3.7504,-3.7983,-3.8711,-3.8891,-3.8825,-3.8771,-3.8718,-3.8718,-3.8718,-3.8718,-3.8718,-3.895,-3.9862,-4.1001,-4.2488,-4.4224,-4.6118,-4.8009,-4.9672,-5.0973,-5.2101,-5.2851,-5.341,-5.3615,-5.4023,-5.4023,-5.4023,-5.4023,-5.4023,-5.4023,-5.4023,-5.3887,-5.3711,-5.3476,-5.3404,-5.3548,-5.3845,-5.4606,-5.5863,-5.7185,-5.8787,-6.057,-6.2548,-6.3932,-6.4871,-6.5745,-6.6564,-6.7091,-6.7744,-6.8321,-6.8899,-6.9275,-6.9376,-6.9426,-6.9606,-7.0145,-7.1542,-7.3263,-7.5312,-7.7174,-7.8346,-7.9312,-8.058,-8.1698,-8.1976,-8.2435,-8.2769,-8.2769,-2.0275,-2.0539,-2.0539,-2.0539,-2.0539,-2.0539,-2.0539,-2.0539,-2.0539,-2.0539,-2.0539,-2.056,-2.0661,-2.0824,-2.0953,-2.1095,-2.1258,-2.1367,-2.1401,-2.1441,-2.1441,-2.1441,-2.1441,-2.1441,-2.1441,-2.1441,-2.1441,-2.1441,-2.1441,-2.1441,-2.1441,-2.1441,-2.1441,-2.1414,-2.1408,-2.1401,-2.1313,-2.1459,-2.2284,-2.3652,-2.5066,-2.7217,-2.9865,-3.2301,-3.3897,-3.5412,-3.7277,-3.8061,-3.8056,-3.8821,-3.9118,-3.8998,-3.8811,-3.8718,-3.8718,-3.8718,-3.8718,-3.8718,-3.895,-3.9862,-4.1015,-4.24,-4.4039,-4.5989,-4.7925,-4.946,-5.0736,-5.2044,-5.2794,-5.341,-5.3819,-5.4023,-5.4023,-5.4023,-5.4023,-5.4023,-5.4023,-5.3906,-5.3613,-5.3359,-5.2969,-5.2933,-5.3193,-5.3506,-5.4179,-5.5616,-5.6988,-5.8366,-6.0319,-6.2147,-6.3546,-6.4527,-6.5471,-6.6363,-6.694,-6.7543,-6.8045,-6.8572,-6.9074,-6.9351,-6.9426,-6.9786,-7.012,-7.1868,-7.3608,-7.5481,-7.7174,-7.8346,-7.9632,-8.0893,-8.1698,-8.1976,-8.2282,-8.2769,-8.2769,-2.0275,-2.0539,-2.0539,-2.0539,-2.0539,-2.0539,-2.0539,-2.0539,-2.0539,-2.0546,-2.056,-2.0668,-2.0797,-2.0953,-2.1082,-2.1224,-2.136,-2.1401,-2.1428,-2.1441,-2.1441,-2.1441,-2.1441,-2.1441,-2.1441,-2.1441,-2.1441,-2.1441,-2.1441,-2.1441,-2.1441,-2.1441,-2.1441,-2.1441,-2.1441,-2.1441,-2.1401,-2.134,-2.2507,-2.3556,-2.4901,-2.7361,-3.0042,-3.217,-3.3987,-3.5589,-3.7209,-3.8063,-3.8553,-3.9309,-3.9265,-3.9025,-3.8744,-3.8731,-3.8718,-3.8718,-3.8718,-3.8718,-3.895,-3.9862,-4.1001,-4.2415,-4.41,-4.6005,-4.7823,-4.9266,-5.0644,-5.18,-5.2794,-5.341,-5.3819,-5.3819,-5.4023,-5.4023,-5.4023,-5.4023,-5.4004,-5.3652,-5.332,-5.293,-5.25,-5.2699,-5.2974,-5.3556,-5.4005,-5.5198,-5.6688,-5.8234,-6.0273,-6.21,-6.3498,-6.4527,-6.5594,-6.6363,-6.684,-6.7392,-6.7919,-6.8497,-6.9024,-6.925,-6.9426,-6.9966,-7.0656,-7.2044,-7.378,-7.5481,-7.7174,-7.8641,-7.9949,-8.1049,-8.1852,-8.213,-8.2435,-8.2769,-8.2769,-2.0234,-2.0444,-2.0512,-2.0539,-2.0539,-2.0539,-2.0539,-2.0539,-2.0539,-2.058,-2.0641,-2.0743,-2.0892,-2.1068,-2.1184,-2.1299,-2.1421,-2.1435,-2.1441,-2.1441,-2.1441,-2.1441,-2.1441,-2.1441,-2.1441,-2.1441,-2.1441,-2.1441,-2.1441,-2.1441,-2.1441,-2.1441,-2.1441,-2.1441,-2.1441,-2.1441,-2.1441,-2.1428,-2.2659,-2.4045,-2.5055,-2.7486,-3.0161,-3.2265,-3.4122,-3.5976,-3.7395,-3.828,-3.8851,-3.9256,-3.9399,-3.9159,-3.8918,-3.8798,-3.8731,-3.8718,-3.8718,-3.8718,-3.895,-3.9862,-4.1001,-4.2415,-4.4023,-4.5875,-4.7891,-4.9354,-5.0381,-5.1744,-5.2775,-5.341,-5.3819,-5.4023,-5.4023,-5.4023,-5.3984,-5.3965,-5.3555,-5.3066,-5.2773,-5.248,-5.2306,-5.2227,-5.2732,-5.3488,-5.4183,-5.5892,-5.7328,-5.8603,-6.0613,-6.2232,-6.3474,-6.4702,-6.5594,-6.599,-6.6438,-6.7116,-6.7844,-6.8396,-6.8974,-6.925,-6.9451,-7.0324,-7.1189,-7.2394,-7.378,-7.5481,-7.7174,-7.8641,-7.9949,-8.1204,-8.1823,-8.2312,-8.2617,-8.2769,-8.2769,-2.0173,-2.0343,-2.0485,-2.0539,-2.0539,-2.0539,-2.0539,-2.0546,-2.0566,-2.0661,-2.0797,-2.0831,-2.0994,-2.1129,-2.1245,-2.134,-2.1408,-2.1428,-2.1441,-2.1441,-2.1441,-2.1441,-2.1441,-2.1441,-2.1441,-2.1441,-2.1441,-2.1441,-2.1441,-2.1441,-2.1441,-2.1441,-2.1441,-2.1441,-2.1441,-2.1441,-2.1435,-2.17,-2.2709,-2.3959,-2.5826,-2.7629,-3.0259,-3.2382,-3.4223,-3.5826,-3.7544,-3.8727,-3.9084,-3.956,-3.964,-3.9332,-3.9105,-3.8931,-3.8798,-3.8758,-3.8718,-3.8718,-3.895,-3.9862,-4.1001,-4.2444,-4.3946,-4.5811,-4.784,-4.9194,-5.0435,-5.1537,-5.2569,-5.339,-5.3615,-5.4023,-5.4023,-5.3965,-5.3906,-5.375,-5.3144,-5.2598,-5.2305,-5.2051,-5.1992,-5.2067,-5.2627,-5.3377,-5.4693,-5.6393,-5.8071,-5.9543,-6.0998,-6.241,-6.3826,-6.4702,-6.557,-6.599,-6.6312,-6.699,-6.7844,-6.8371,-6.8924,-6.9225,-6.9631,-7.0324,-7.1189,-7.2219,-7.3753,-7.5481,-7.731,-7.8802,-8.0078,-8.136,-8.1976,-8.2465,-8.2617,-8.2769,-8.292,-2.0078,-2.0343,-2.0485,-2.0539,-2.0539,-2.0539,-2.0539,-2.0566,-2.0675,-2.0817,-2.0946,-2.1075,-2.1184,-2.1218,-2.1353,-2.1421,-2.1421,-2.1441,-2.1441,-2.1441,-2.1441,-2.1441,-2.1441,-2.1441,-2.1441,-2.1441,-2.1441,-2.1441,-2.1441,-2.1441,-2.1441,-2.1441,-2.1441,-2.1441,-2.1441,-2.1441,-2.1441,-2.1972,-2.2745,-2.4261,-2.564,-2.7737,-3.0358,-3.2194,-3.3964,-3.6107,-3.7788,-3.8534,-3.9227,-3.9824,-4.0027,-3.9626,-3.9332,-3.9118,-3.8945,-3.8811,-3.8758,-3.8718,-3.9181,-3.9862,-4.1231,-4.2319,-4.4085,-4.5843,-4.7539,-4.8841,-5.0208,-5.1762,-5.2794,-5.3205,-5.3615,-5.3819,-5.4023,-5.3828,-5.373,-5.332,-5.2812,-5.2363,-5.2012,-5.1797,-5.1757,-5.2027,-5.28,-5.376,-5.4693,-5.658,-5.8234,-5.9703,-6.1359,-6.2766,-6.4202,-6.4876,-6.557,-6.629,-6.6764,-6.7216,-6.7919,-6.8447,-6.8899,-6.925,-6.9631,-7.0324,-7.1189,-7.2219,-7.378,-7.5508,-7.7146,-7.8963,-8.0078,-8.136,-8.2159,-8.2769,-8.2769,-8.2769,-8.292]},{"header":{"parameterUnit":"m.s-1","parameterCategory":1,"la1":31.0,"la2":29.5877,"lo1":-88.7671,"lo2":-86.6584,"dx":0.0162,"dy":0.0185,"nx":115,"ny":88,"refTime":"2022-11-24T06:00:00:Z","depth":0,"parameterNumber":3,"parameterNumberName":"V-component_of_WINDS"},"data":[0.0,0.0,0.0,0.0,0.0,0.0,0.0,0.0,0.0,0.0,0.0,0.0,0.0,0.0,0.0,0.0,0.0,0.0,0.0,0.0,0.0,0.0,0.0,0.0,0.0,0.0,0.0,0.0,0.0,0.0,0.0,0.0,0.0,0.0,0.0,0.0,0.0,0.0,0.0,0.0,0.0,0.0,0.0,0.0,0.0,0.0,0.0,0.0,0.0,0.0,0.0,0.0,0.0,0.0,0.0,0.0,0.0,0.0,0.0,0.0,0.0,0.0,0.0,0.0,0.0,0.0,0.0,0.0,0.0,0.0,0.0,0.0,0.0,0.0,0.0,0.0,0.0,0.0,0.0,0.0,0.0,0.0,0.0,0.0,0.0,0.0,0.0,0.0,0.0,0.0,0.0,0.0,0.0,0.0,0.0,0.0,0.0,0.0,0.0,0.0,0.0,0.0,0.0,0.0,0.0,0.0,0.0,0.0,0.0,0.0,0.0,0.0,0.0,0.0,0.0,0.0,0.0,0.0,0.0,0.0,0.0,0.0,0.0,0.0,0.0,0.0,0.0,0.0,0.0,0.0,0.0,0.0,0.0,0.0,0.0,0.0,0.0,0.0,0.0,0.0,0.0,0.0,0.0,0.0,0.0,0.0,0.0,0.0,0.0,0.0,0.0,0.0,0.0,0.0,0.0,0.0,0.0,0.0,0.0,0.0,0.0,0.0,0.0,0.0,0.0,0.0,0.0,0.0,0.0,0.0,0.0,0.0,0.0,0.0,0.0,0.0,0.0,0.0,0.0,0.0,0.0,0.0,0.0,0.0,0.0,0.0,0.0,0.0,0.0,0.0,0.0,0.0,0.0,0.0,0.0,0.0,0.0,0.0,0.0,0.0,0.0,0.0,0.0,0.0,0.0,0.0,0.0,0.0,0.0,0.0,0.0,0.0,0.0,0.0,0.0,0.0,0.0,0.0,0.0,0.0,0.0,0.0,0.0,0.0,0.0,0.0,0.0,0.0,0.0,0.0,0.0,0.0,0.0,0.0,0.0,0.0,0.0,0.0,0.0,0.0,0.0,0.0,0.0,0.0,0.0,0.0,0.0,0.0,0.0,0.0,0.0,0.0,0.0,0.0,0.0,0.0,0.0,0.0,0.0,0.0,0.0,0.0,0.0,0.0,0.0,0.0,0.0,0.0,0.0,0.0,0.0,0.0,0.0,0.0,0.0,0.0,0.0,0.0,0.0,0.0,0.0,0.0,0.0,0.0,0.0,0.0,0.0,0.0,0.0,0.0,0.0,0.0,0.0,0.0,0.0,0.0,0.0,0.0,0.0,0.0,0.0,0.0,0.0,0.0,0.0,0.0,0.0,0.0,0.0,0.0,0.0,0.0,0.0,0.0,0.0,0.0,0.0,0.0,0.0,0.0,0.0,0.0,0.0,0.0,0.0,0.0,0.0,0.0,0.0,0.0,0.0,0.0,0.0,0.0,0.0,0.0,0.0,0.0,0.0,0.0,0.0,0.0,0.0,0.0,0.0,0.0,0.0,0.0,0.0,0.0,0.0,0.0,0.0,0.0,0.0,0.0,0.0,0.0,0.0,0.0,0.0,0.0,0.0,0.0,0.0,0.0,0.0,0.0,0.0,0.0,0.0,0.0,0.0,0.0,0.0,0.0,0.0,0.0,0.0,0.0,0.0,0.0,0.0,0.0,0.0,0.0,0.0,0.0,0.0,0.0,0.0,0.0,0.0,0.0,0.0,0.0,0.0,0.0,0.0,0.0,0.0,0.0,0.0,0.0,0.0,0.0,0.0,0.0,0.0,0.0,0.0,0.0,0.0,0.0,0.0,0.0,0.0,0.0,0.0,0.0,0.0,0.0,0.0,0.0,0.0,0.0,0.0,0.0,0.0,0.0,0.0,0.0,0.0,0.0,0.0,0.0,0.0,0.0,0.0,0.0,0.0,0.0,0.0,0.0,0.0,0.0,0.0,0.0,0.0,0.0,0.0,0.0,0.0,0.0,0.0,0.0,0.0,0.0,0.0,0.0,0.0,0.0,0.0,0.0,0.0,0.0,0.0,0.0,0.0,0.0,0.0,0.0,0.0,0.0,0.0,0.0,0.0,0.0,0.0,0.0,0.0,0.0,0.0,0.0,0.0,0.0,0.0,0.0,0.0,0.0,0.0,0.0,0.0,0.0,0.0,0.0,0.0,0.0,0.0,0.0,0.0,0.0,0.0,0.0,0.0,0.0,0.0,0.0,0.0,0.0,0.0,0.0,0.0,0.0,0.0,0.0,0.0,0.0,0.0,0.0,0.0,0.0,0.0,0.0,0.0,0.0,0.0,0.0,0.0,0.0,0.0,0.0,0.0,0.0,0.0,0.0,0.0,0.0,0.0,0.0,0.0,0.0,0.0,0.0,0.0,0.0,0.0,0.0,0.0,0.0,0.0,0.0,0.0,0.0,0.0,0.0,0.0,0.0,0.0,0.0,0.0,0.0,0.0,0.0,0.0,0.0,0.0,0.0,0.0,0.0,0.0,0.0,0.0,0.0,0.0,0.0,0.0,0.0,0.0,0.0,0.0,0.0,0.0,0.0,0.0,0.0,0.0,0.0,0.0,0.0,0.0,0.0,0.0,0.0,0.0,0.0,0.0,0.0,0.0,0.0,0.0,0.0,0.0,0.0,0.0,0.0,0.0,0.0,0.0,0.0,0.0,0.0,0.0,0.0,0.0,0.0,0.0,0.0,0.0,0.0,0.0,0.0,0.0,0.0,0.0,0.0,0.0,0.0,0.0,0.0,0.0,0.0,0.0,0.0,0.0,0.0,0.0,0.0,0.0,0.0,0.0,0.0,0.0,0.0,0.0,0.0,0.0,0.0,0.0,0.0,0.0,0.0,0.0,0.0,0.0,0.0,0.0,0.0,0.0,0.0,0.0,0.0,0.0,0.0,0.0,0.0,0.0,0.0,0.0,0.0,0.0,0.0,0.0,0.0,0.0,0.0,0.0,0.0,0.0,0.0,0.0,0.0,0.0,0.0,0.0,0.0,0.0,0.0,0.0,0.0,0.0,0.0,0.0,0.0,0.0,0.0,0.0,0.0,0.0,0.0,0.0,0.0,0.0,0.0,0.0,0.0,0.0,0.0,0.0,0.0,0.0,0.0,0.0,0.0,0.0,0.0,0.0,0.0,0.0,0.0,0.0,0.0,0.0,0.0,0.0,0.0,0.0,0.0,0.0,0.0,0.0,0.0,0.0,0.0,0.0,0.0,0.0,0.0,0.0,0.0,0.0,0.0,0.0,0.0,0.0,0.0,0.0,0.0,0.0,0.0,0.0,0.0,0.0,0.0,0.0,0.0,0.0,0.0,0.0,0.0,0.0,0.0,0.0,0.0,0.0,0.0,0.0,0.0,0.0,0.0,0.0,0.0,0.0,0.0,0.0,0.0,0.0,0.0,0.0,0.0,0.0,0.0,0.0,0.0,0.0,0.0,0.0,0.0,0.0,0.0,0.0,0.0,0.0,0.0,0.0,0.0,0.0,0.0,0.0,0.0,0.0,0.0,0.0,0.0,0.0,0.0,0.0,0.0,0.0,0.0,0.0,0.0,0.0,0.0,0.0,0.0,0.0,0.0,0.0,0.0,0.0,0.0,0.0,0.0,0.0,0.0,0.0,0.0,0.0,0.0,0.0,0.0,0.0,0.0,0.0,0.0,0.0,0.0,0.0,0.0,0.0,0.0,0.0,0.0,0.0,0.0,0.0,0.0,0.0,0.0,0.0,0.0,0.0,0.0,0.0,0.0,0.0,0.0,0.0,0.0,0.0,0.0,0.0,0.0,0.0,0.0,0.0,0.0,0.0,0.0,0.0,0.0,0.0,0.0,0.0,0.0,0.0,0.0,0.0,0.0,0.0,0.0,0.0,0.0,0.0,0.0,0.0,0.0,0.0,0.0,0.0,0.0,0.0,0.0,0.0,0.0,0.0,0.0,0.0,0.0,0.0,0.0,0.0,0.0,0.0,0.0,0.0,0.0,0.0,0.0,0.0,0.0,0.0,0.0,0.0,0.0,0.0,0.0,0.0,0.0,0.0,0.0,0.0,0.0,0.0,0.0,0.0,0.0,0.0,0.0,0.0,0.0,0.0,0.0,0.0,0.0,0.0,0.0,0.0,0.0,0.0,0.0,0.0,0.0,0.0,0.0,0.0,0.0,0.0,0.0,0.0,0.0,0.0,0.0,0.0,0.0,0.0,0.0,0.0,0.0,0.0,0.0,-3.1424,0.0,0.0,0.0,-3.0628,0.0,0.0,0.0,0.0,0.0,0.0,0.0,0.0,0.0,0.0,0.0,0.0,0.0,0.0,0.0,0.0,0.0,0.0,0.0,0.0,0.0,0.0,0.0,0.0,0.0,0.0,0.0,0.0,0.0,0.0,0.0,0.0,0.0,0.0,0.0,0.0,0.0,0.0,0.0,0.0,0.0,0.0,0.0,0.0,0.0,0.0,0.0,0.0,0.0,0.0,0.0,0.0,0.0,0.0,0.0,0.0,0.0,0.0,0.0,0.0,0.0,0.0,0.0,0.0,0.0,0.0,0.0,0.0,0.0,0.0,0.0,0.0,0.0,0.0,0.0,0.0,0.0,0.0,0.0,0.0,0.0,0.0,0.0,0.0,0.0,0.0,0.0,0.0,0.0,0.0,0.0,0.0,0.0,0.0,0.0,0.0,0.0,0.0,0.0,0.0,0.0,0.0,0.0,0.0,0.0,0.0,0.0,0.0,0.0,0.0,-3.1482,-3.1394,-3.1336,-3.1161,-3.0895,0.0,0.0,0.0,0.0,0.0,0.0,0.0,0.0,0.0,0.0,0.0,0.0,0.0,0.0,0.0,0.0,0.0,0.0,0.0,0.0,0.0,0.0,0.0,0.0,0.0,0.0,0.0,0.0,0.0,0.0,0.0,0.0,0.0,0.0,0.0,0.0,0.0,0.0,0.0,0.0,0.0,0.0,0.0,0.0,0.0,0.0,0.0,0.0,0.0,0.0,0.0,0.0,0.0,0.0,0.0,0.0,0.0,0.0,0.0,0.0,0.0,0.0,0.0,0.0,0.0,0.0,0.0,0.0,0.0,0.0,0.0,0.0,0.0,0.0,0.0,0.0,0.0,0.0,0.0,0.0,0.0,0.0,0.0,0.0,0.0,0.0,0.0,0.0,0.0,0.0,0.0,0.0,0.0,0.0,0.0,0.0,0.0,0.0,0.0,0.0,0.0,0.0,0.0,0.0,0.0,0.0,0.0,0.0,0.0,0.0,0.0,0.0,-3.1424,-3.1219,-3.1014,0.0,0.0,0.0,0.0,0.0,0.0,0.0,0.0,0.0,0.0,0.0,0.0,0.0,0.0,0.0,0.0,0.0,0.0,0.0,0.0,0.0,0.0,0.0,0.0,0.0,0.0,0.0,0.0,0.0,0.0,0.0,0.0,0.0,0.0,0.0,0.0,0.0,0.0,0.0,0.0,0.0,0.0,0.0,0.0,0.0,0.0,0.0,0.0,0.0,0.0,0.0,0.0,0.0,0.0,0.0,0.0,0.0,0.0,0.0,0.0,0.0,0.0,0.0,0.0,0.0,0.0,0.0,0.0,0.0,0.0,0.0,0.0,0.0,0.0,0.0,0.0,0.0,0.0,0.0,0.0,0.0,0.0,0.0,0.0,0.0,0.0,0.0,0.0,0.0,0.0,0.0,0.0,0.0,0.0,0.0,0.0,0.0,0.0,0.0,0.0,0.0,0.0,0.0,0.0,0.0,0.0,0.0,0.0,0.0,0.0,-3.1482,-3.1482,-3.1482,0.0,-3.0836,0.0,0.0,0.0,0.0,0.0,0.0,0.0,0.0,0.0,0.0,0.0,0.0,0.0,0.0,0.0,0.0,0.0,0.0,0.0,0.0,0.0,0.0,0.0,0.0,0.0,0.0,0.0,0.0,0.0,0.0,0.0,0.0,0.0,0.0,0.0,0.0,0.0,0.0,0.0,0.0,0.0,0.0,0.0,0.0,0.0,0.0,0.0,0.0,0.0,0.0,0.0,0.0,0.0,0.0,0.0,0.0,0.0,0.0,0.0,0.0,0.0,0.0,0.0,0.0,0.0,0.0,0.0,0.0,0.0,0.0,0.0,0.0,0.0,0.0,0.0,0.0,0.0,0.0,0.0,0.0,0.0,0.0,0.0,0.0,0.0,0.0,0.0,0.0,0.0,0.0,0.0,0.0,0.0,0.0,0.0,0.0,0.0,0.0,0.0,0.0,0.0,0.0,0.0,0.0,0.0,0.0,0.0,0.0,0.0,0.0,-3.1482,-3.1482,-3.1424,-3.1278,0.0,0.0,0.0,0.0,0.0,0.0,0.0,0.0,0.0,0.0,0.0,0.0,0.0,0.0,0.0,0.0,0.0,0.0,0.0,0.0,0.0,0.0,0.0,0.0,0.0,0.0,0.0,0.0,0.0,0.0,0.0,0.0,0.0,0.0,0.0,0.0,0.0,0.0,0.0,0.0,0.0,0.0,0.0,0.0,0.0,0.0,0.0,0.0,0.0,0.0,0.0,0.0,0.0,0.0,0.0,0.0,0.0,0.0,0.0,0.0,0.0,0.0,0.0,0.0,0.0,0.0,0.0,0.0,0.0,0.0,0.0,0.0,0.0,0.0,0.0,0.0,0.0,0.0,0.0,0.0,0.0,0.0,0.0,0.0,0.0,0.0,0.0,0.0,0.0,0.0,0.0,0.0,0.0,0.0,0.0,0.0,0.0,0.0,0.0,0.0,0.0,0.0,0.0,0.0,0.0,0.0,0.0,0.0,0.0,0.0,-3.1031,-3.1898,-3.2048,-3.1781,-3.1633,-3.1575,0.0,0.0,0.0,0.0,0.0,0.0,0.0,0.0,0.0,0.0,0.0,0.0,0.0,0.0,0.0,0.0,0.0,0.0,0.0,0.0,0.0,0.0,0.0,0.0,0.0,0.0,0.0,0.0,0.0,0.0,0.0,0.0,0.0,0.0,0.0,0.0,0.0,0.0,0.0,0.0,0.0,0.0,0.0,0.0,0.0,0.0,0.0,0.0,0.0,0.0,0.0,0.0,0.0,0.0,0.0,0.0,0.0,0.0,0.0,0.0,0.0,0.0,0.0,0.0,0.0,0.0,0.0,0.0,0.0,0.0,0.0,0.0,0.0,0.0,0.0,0.0,0.0,0.0,0.0,0.0,0.0,0.0,0.0,0.0,0.0,0.0,0.0,0.0,0.0,0.0,0.0,0.0,0.0,0.0,0.0,0.0,0.0,0.0,0.0,0.0,0.0,0.0,0.0,0.0,0.0,0.0,0.0,0.0,-2.9654,-3.148,-3.2766,-3.3335,-3.2796,-3.2408,0.0,0.0,0.0,0.0,0.0,0.0,0.0,0.0,0.0,0.0,0.0,0.0,0.0,0.0,0.0,0.0,0.0,0.0,0.0,0.0,0.0,0.0,0.0,0.0,0.0,0.0,0.0,0.0,0.0,0.0,0.0,0.0,0.0,0.0,0.0,0.0,0.0,0.0,0.0,0.0,0.0,0.0,0.0,0.0,0.0,0.0,0.0,0.0,0.0,0.0,0.0,0.0,0.0,0.0,0.0,0.0,0.0,0.0,0.0,0.0,0.0,0.0,0.0,0.0,0.0,0.0,0.0,0.0,0.0,0.0,0.0,0.0,0.0,0.0,0.0,0.0,0.0,0.0,0.0,0.0,0.0,0.0,0.0,0.0,0.0,0.0,0.0,0.0,0.0,0.0,0.0,0.0,0.0,0.0,0.0,0.0,0.0,0.0,0.0,0.0,0.0,0.0,0.0,0.0,0.0,0.0,0.0,0.0,0.0,-3.0851,-3.2347,-3.3245,-3.3455,-3.2856,-3.2467,0.0,0.0,0.0,0.0,0.0,0.0,0.0,0.0,0.0,0.0,0.0,0.0,0.0,0.0,0.0,0.0,0.0,0.0,0.0,0.0,0.0,0.0,0.0,0.0,0.0,0.0,0.0,0.0,0.0,0.0,0.0,0.0,0.0,0.0,0.0,0.0,0.0,0.0,0.0,0.0,0.0,0.0,0.0,0.0,0.0,0.0,0.0,0.0,0.0,0.0,0.0,0.0,0.0,0.0,0.0,0.0,0.0,0.0,0.0,0.0,0.0,0.0,0.0,0.0,0.0,0.0,0.0,0.0,0.0,0.0,0.0,0.0,0.0,0.0,0.0,0.0,0.0,0.0,0.0,0.0,0.0,0.0,0.0,0.0,0.0,0.0,0.0,0.0,0.0,0.0,0.0,0.0,0.0,0.0,0.0,0.0,0.0,0.0,0.0,0.0,0.0,0.0,0.0,0.0,0.0,0.0,0.0,0.0,0.0,-3.2826,-3.3817,-3.4358,-3.4538,-3.3937,-3.3336,0.0,0.0,0.0,0.0,0.0,0.0,0.0,0.0,0.0,0.0,0.0,0.0,0.0,0.0,0.0,0.0,0.0,0.0,0.0,0.0,0.0,0.0,0.0,0.0,0.0,0.0,0.0,0.0,0.0,0.0,0.0,0.0,0.0,0.0,0.0,0.0,0.0,0.0,0.0,0.0,0.0,0.0,0.0,0.0,0.0,0.0,0.0,0.0,0.0,0.0,0.0,0.0,0.0,0.0,0.0,0.0,0.0,0.0,0.0,0.0,0.0,0.0,0.0,0.0,0.0,0.0,0.0,0.0,0.0,0.0,0.0,0.0,0.0,0.0,0.0,0.0,0.0,0.0,0.0,0.0,0.0,0.0,0.0,0.0,0.0,0.0,0.0,0.0,0.0,0.0,0.0,0.0,0.0,0.0,0.0,0.0,0.0,0.0,0.0,0.0,0.0,0.0,0.0,0.0,0.0,0.0,0.0,0.0,-3.2976,-3.5661,-3.5812,-3.6144,-3.6688,-3.6114,-3.5052,0.0,0.0,0.0,0.0,0.0,0.0,0.0,0.0,0.0,0.0,0.0,0.0,0.0,0.0,0.0,0.0,0.0,0.0,0.0,0.0,0.0,0.0,0.0,0.0,0.0,0.0,0.0,0.0,0.0,0.0,0.0,0.0,0.0,0.0,0.0,0.0,0.0,0.0,0.0,0.0,0.0,0.0,0.0,0.0,0.0,0.0,0.0,0.0,0.0,0.0,0.0,0.0,0.0,0.0,0.0,0.0,0.0,0.0,0.0,0.0,0.0,0.0,0.0,0.0,0.0,0.0,0.0,0.0,0.0,0.0,0.0,0.0,0.0,0.0,0.0,0.0,0.0,0.0,0.0,0.0,0.0,0.0,0.0,0.0,0.0,0.0,0.0,0.0,0.0,0.0,0.0,0.0,0.0,0.0,0.0,0.0,0.0,0.0,0.0,0.0,0.0,0.0,0.0,0.0,0.0,0.0,0.0,0.0,0.0,-3.6576,-3.7516,-3.8061,-3.8243,-3.7637,-3.6602,0.0,0.0,0.0,0.0,0.0,0.0,0.0,0.0,0.0,0.0,0.0,0.0,0.0,0.0,0.0,0.0,0.0,0.0,0.0,0.0,0.0,0.0,0.0,0.0,0.0,0.0,0.0,0.0,0.0,0.0,0.0,0.0,0.0,0.0,0.0,0.0,0.0,0.0,0.0,0.0,0.0,0.0,0.0,0.0,0.0,0.0,0.0,0.0,0.0,0.0,0.0,0.0,0.0,0.0,0.0,0.0,0.0,0.0,0.0,0.0,0.0,0.0,0.0,0.0,0.0,0.0,0.0,0.0,0.0,0.0,0.0,0.0,0.0,0.0,0.0,0.0,0.0,0.0,0.0,0.0,0.0,0.0,0.0,0.0,0.0,0.0,0.0,0.0,0.0,0.0,0.0,0.0,0.0,0.0,0.0,0.0,0.0,0.0,0.0,0.0,0.0,0.0,0.0,0.0,0.0,0.0,0.0,0.0,0.0,-4.0177,-4.0378,-4.0462,-4.0493,-3.9749,-3.8421,-3.6429,0.0,0.0,0.0,0.0,0.0,0.0,0.0,0.0,0.0,0.0,0.0,0.0,0.0,0.0,0.0,0.0,0.0,0.0,0.0,0.0,0.0,0.0,0.0,0.0,0.0,0.0,0.0,0.0,0.0,0.0,0.0,0.0,0.0,0.0,0.0,0.0,0.0,0.0,0.0,0.0,0.0,0.0,0.0,0.0,0.0,0.0,0.0,0.0,0.0,0.0,0.0,0.0,0.0,0.0,0.0,0.0,0.0,0.0,0.0,0.0,0.0,0.0,0.0,0.0,0.0,0.0,0.0,0.0,0.0,0.0,0.0,0.0,0.0,0.0,0.0,0.0,0.0,0.0,0.0,0.0,0.0,0.0,0.0,0.0,0.0,0.0,0.0,0.0,0.0,0.0,0.0,0.0,0.0,0.0,0.0,0.0,0.0,0.0,0.0,0.0,0.0,0.0,0.0,0.0,0.0,0.0,0.0,0.0,-4.5835,-4.4247,-4.3345,-4.3189,-4.2293,-4.0547,0.0,0.0,0.0,0.0,0.0,0.0,0.0,0.0,0.0,0.0,0.0,0.0,0.0,0.0,0.0,0.0,0.0,0.0,0.0,0.0,0.0,0.0,0.0,0.0,0.0,0.0,0.0,0.0,0.0,0.0,0.0,0.0,0.0,0.0,0.0,0.0,0.0,0.0,0.0,0.0,0.0,0.0,0.0,0.0,0.0,0.0,0.0,0.0,0.0,0.0,0.0,0.0,0.0,0.0,0.0,0.0,0.0,0.0,0.0,0.0,0.0,0.0,0.0,0.0,0.0,0.0,0.0,0.0,0.0,0.0,0.0,0.0,0.0,0.0,0.0,0.0,0.0,0.0,0.0,0.0,0.0,0.0,0.0,0.0,0.0,0.0,0.0,0.0,0.0,0.0,0.0,0.0,0.0,0.0,0.0,0.0,0.0,0.0,0.0,0.0,0.0,0.0,0.0,0.0,0.0,0.0,0.0,0.0,0.0,-4.9158,-4.9846,-4.8948,-4.6504,-4.5528,-4.3614,0.0,0.0,0.0,0.0,0.0,0.0,0.0,0.0,0.0,0.0,0.0,0.0,0.0,0.0,0.0,0.0,0.0,0.0,0.0,0.0,0.0,0.0,0.0,0.0,0.0,0.0,0.0,0.0,0.0,0.0,0.0,0.0,0.0,0.0,0.0,0.0,0.0,0.0,0.0,0.0,0.0,0.0,0.0,0.0,0.0,0.0,0.0,0.0,0.0,0.0,0.0,0.0,0.0,0.0,0.0,0.0,0.0,0.0,0.0,0.0,0.0,0.0,0.0,0.0,0.0,0.0,0.0,0.0,0.0,0.0,0.0,0.0,0.0,0.0,0.0,0.0,0.0,0.0,0.0,0.0,0.0,0.0,0.0,0.0,0.0,0.0,0.0,0.0,0.0,0.0,0.0,0.0,0.0,0.0,0.0,0.0,0.0,0.0,0.0,0.0,0.0,0.0,0.0,0.0,0.0,0.0,0.0,0.0,-4.8733,-5.2649,-5.389,-5.3632,-5.1806,-4.9205,-4.6429,0.0,0.0,0.0,0.0,0.0,0.0,0.0,0.0,0.0,0.0,0.0,0.0,0.0,0.0,0.0,0.0,0.0,0.0,0.0,0.0,0.0,0.0,0.0,0.0,0.0,0.0,0.0,0.0,0.0,0.0,0.0,0.0,0.0,0.0,0.0,0.0,0.0,0.0,0.0,0.0,0.0,0.0,0.0,0.0,0.0,0.0,0.0,0.0,0.0,0.0,0.0,0.0,0.0,0.0,0.0,0.0,0.0,0.0,0.0,0.0,0.0,0.0,0.0,0.0,0.0,0.0,0.0,0.0,0.0,0.0,0.0,0.0,0.0,0.0,0.0,0.0,0.0,0.0,0.0,0.0,0.0,0.0,0.0,0.0,0.0,0.0,0.0,0.0,0.0,0.0,0.0,0.0,0.0,0.0,0.0,0.0,0.0,0.0,0.0,0.0,0.0,0.0,0.0,0.0,0.0,0.0,0.0,0.0,-5.1778,-5.5702,-5.6743,-5.746,-5.7781,-5.2957,-4.8934,0.0,0.0,0.0,0.0,0.0,0.0,0.0,0.0,0.0,0.0,0.0,0.0,0.0,0.0,0.0,0.0,0.0,0.0,0.0,0.0,0.0,0.0,0.0,0.0,0.0,0.0,0.0,0.0,0.0,0.0,0.0,0.0,0.0,0.0,0.0,0.0,0.0,0.0,0.0,0.0,0.0,0.0,0.0,0.0,0.0,0.0,0.0,0.0,0.0,0.0,0.0,0.0,0.0,0.0,0.0,0.0,0.0,0.0,0.0,0.0,0.0,0.0,0.0,0.0,0.0,0.0,0.0,0.0,0.0,0.0,0.0,0.0,0.0,0.0,0.0,0.0,0.0,0.0,0.0,0.0,0.0,0.0,0.0,0.0,0.0,0.0,0.0,0.0,0.0,0.0,0.0,0.0,0.0,0.0,0.0,0.0,0.0,0.0,0.0,0.0,0.0,0.0,0.0,0.0,0.0,0.0,0.0,0.0,-5.3734,-5.7854,-5.9034,-5.9788,-6.0088,-5.5004,-5.0897,0.0,0.0,0.0,0.0,0.0,0.0,0.0,0.0,0.0,0.0,0.0,0.0,0.0,0.0,0.0,0.0,0.0,0.0,0.0,0.0,0.0,0.0,0.0,0.0,0.0,0.0,0.0,0.0,0.0,0.0,0.0,0.0,0.0,0.0,0.0,0.0,0.0,0.0,0.0,0.0,0.0,0.0,0.0,0.0,0.0,0.0,0.0,0.0,-2.7352,0.0,0.0,0.0,0.0,0.0,0.0,0.0,0.0,0.0,0.0,0.0,0.0,0.0,0.0,0.0,0.0,0.0,0.0,0.0,0.0,0.0,0.0,0.0,0.0,0.0,0.0,0.0,0.0,0.0,0.0,0.0,0.0,0.0,0.0,0.0,0.0,0.0,0.0,0.0,0.0,0.0,0.0,0.0,0.0,0.0,0.0,0.0,0.0,0.0,0.0,0.0,0.0,0.0,0.0,0.0,0.0,0.0,0.0,0.0,-5.6323,-6.0291,-6.1432,-6.1943,-6.1844,-5.7608,-5.3665,0.0,0.0,0.0,0.0,0.0,0.0,0.0,0.0,0.0,0.0,0.0,0.0,0.0,0.0,0.0,0.0,0.0,0.0,0.0,0.0,0.0,0.0,0.0,0.0,0.0,0.0,0.0,0.0,0.0,0.0,0.0,0.0,0.0,0.0,0.0,0.0,0.0,0.0,0.0,0.0,0.0,0.0,0.0,0.0,0.0,0.0,0.0,0.0,0.0,0.0,0.0,0.0,0.0,0.0,0.0,0.0,0.0,0.0,0.0,0.0,0.0,0.0,0.0,0.0,0.0,0.0,0.0,0.0,0.0,0.0,0.0,0.0,0.0,0.0,0.0,0.0,0.0,0.0,0.0,0.0,0.0,0.0,0.0,0.0,0.0,0.0,0.0,0.0,0.0,0.0,0.0,0.0,0.0,0.0,0.0,0.0,0.0,0.0,0.0,0.0,0.0,0.0,0.0,0.0,0.0,0.0,0.0,-5.5048,-5.8973,-6.2566,-6.3566,-6.3796,-6.3491,-6.0318,-5.6498,-5.2073,0.0,0.0,0.0,0.0,0.0,0.0,0.0,0.0,0.0,0.0,0.0,0.0,0.0,0.0,0.0,0.0,0.0,0.0,0.0,0.0,0.0,0.0,0.0,0.0,0.0,0.0,0.0,0.0,0.0,0.0,0.0,0.0,0.0,0.0,0.0,0.0,0.0,0.0,-2.9589,-3.0308,0.0,0.0,0.0,0.0,0.0,0.0,0.0,0.0,-3.0636,0.0,0.0,0.0,0.0,0.0,0.0,0.0,0.0,0.0,0.0,0.0,0.0,0.0,0.0,0.0,0.0,0.0,0.0,0.0,0.0,0.0,0.0,0.0,0.0,0.0,0.0,0.0,0.0,0.0,0.0,0.0,0.0,0.0,0.0,0.0,0.0,0.0,0.0,0.0,0.0,0.0,0.0,0.0,0.0,0.0,0.0,0.0,0.0,0.0,0.0,0.0,0.0,0.0,0.0,0.0,0.0,-5.2142,-5.6578,-6.0398,-6.3685,-6.5091,-6.532,-6.4481,-6.2425,-5.8724,-5.335,0.0,0.0,0.0,0.0,0.0,0.0,0.0,0.0,0.0,0.0,0.0,0.0,0.0,0.0,0.0,0.0,0.0,0.0,0.0,0.0,0.0,0.0,0.0,0.0,0.0,0.0,0.0,0.0,0.0,0.0,0.0,0.0,0.0,0.0,0.0,0.0,0.0,0.0,0.0,-3.2935,-3.3266,0.0,0.0,0.0,0.0,0.0,0.0,0.0,0.0,-3.2316,0.0,0.0,0.0,0.0,0.0,0.0,0.0,0.0,0.0,0.0,0.0,0.0,0.0,0.0,0.0,0.0,0.0,0.0,0.0,0.0,0.0,0.0,0.0,0.0,0.0,0.0,0.0,0.0,0.0,0.0,0.0,0.0,0.0,0.0,0.0,0.0,0.0,0.0,0.0,0.0,0.0,0.0,0.0,0.0,0.0,0.0,0.0,0.0,0.0,0.0,0.0,0.0,0.0,0.0,0.0,-5.4116,-5.8665,-6.256,-6.553,-6.6997,-6.7026,-6.5541,-6.3278,-5.9762,0.0,0.0,0.0,0.0,0.0,0.0,0.0,0.0,0.0,0.0,0.0,0.0,0.0,0.0,0.0,0.0,0.0,0.0,0.0,0.0,0.0,0.0,0.0,0.0,0.0,0.0,0.0,0.0,0.0,0.0,0.0,0.0,0.0,0.0,0.0,0.0,0.0,0.0,0.0,0.0,-3.489,-3.5624,-3.6329,0.0,0.0,0.0,0.0,0.0,0.0,-3.5864,-3.49,0.0,0.0,0.0,0.0,0.0,0.0,0.0,0.0,0.0,0.0,0.0,0.0,0.0,0.0,0.0,0.0,0.0,0.0,0.0,0.0,0.0,0.0,0.0,0.0,0.0,0.0,0.0,0.0,0.0,0.0,0.0,0.0,0.0,0.0,0.0,0.0,0.0,0.0,0.0,0.0,0.0,0.0,0.0,0.0,0.0,0.0,0.0,0.0,0.0,0.0,0.0,0.0,0.0,0.0,0.0,-5.6265,-6.0898,-6.4642,-6.7604,-6.8863,-6.8639,-6.6772,-6.4133,-6.0639,0.0,0.0,0.0,0.0,0.0,0.0,0.0,0.0,0.0,0.0,0.0,0.0,0.0,0.0,0.0,0.0,0.0,0.0,0.0,0.0,0.0,0.0,0.0,0.0,0.0,0.0,0.0,0.0,0.0,0.0,0.0,0.0,0.0,0.0,0.0,0.0,0.0,0.0,0.0,0.0,0.0,-3.8216,-3.932,-3.9631,0.0,0.0,0.0,0.0,-3.988,-3.8984,0.0,0.0,0.0,0.0,0.0,0.0,0.0,0.0,0.0,0.0,0.0,0.0,0.0,0.0,0.0,0.0,0.0,0.0,0.0,0.0,0.0,0.0,0.0,0.0,0.0,0.0,0.0,0.0,0.0,0.0,0.0,0.0,0.0,0.0,0.0,0.0,0.0,0.0,0.0,0.0,0.0,0.0,0.0,0.0,0.0,0.0,0.0,0.0,0.0,0.0,0.0,0.0,0.0,0.0,0.0,0.0,-5.8004,-6.2616,-6.645,-6.9354,-7.0226,-7.0089,-6.8774,-6.6152,-6.2049,0.0,0.0,0.0,0.0,0.0,0.0,0.0,0.0,0.0,0.0,0.0,0.0,0.0,0.0,0.0,0.0,0.0,0.0,0.0,0.0,0.0,0.0,0.0,0.0,0.0,0.0,0.0,0.0,0.0,0.0,0.0,0.0,0.0,0.0,0.0,0.0,0.0,0.0,0.0,0.0,0.0,-4.1544,-4.2464,-4.3406,-4.3985,0.0,0.0,-4.3737,-4.2831,-4.1834,0.0,0.0,0.0,0.0,0.0,0.0,0.0,0.0,0.0,0.0,0.0,0.0,0.0,0.0,0.0,0.0,0.0,0.0,0.0,0.0,0.0,0.0,0.0,0.0,0.0,0.0,0.0,0.0,0.0,0.0,0.0,0.0,0.0,0.0,0.0,0.0,0.0,0.0,0.0,0.0,0.0,0.0,0.0,0.0,0.0,0.0,0.0,0.0,0.0,0.0,0.0,0.0,0.0,0.0,0.0,-5.4552,-5.9972,-6.4841,-6.8715,-7.1518,-7.2758,-7.2537,-7.0822,-6.7828,-6.3882,0.0,0.0,0.0,0.0,0.0,0.0,0.0,0.0,0.0,0.0,0.0,0.0,0.0,0.0,0.0,0.0,0.0,0.0,0.0,0.0,0.0,0.0,0.0,0.0,0.0,0.0,0.0,0.0,0.0,0.0,0.0,0.0,0.0,0.0,0.0,0.0,0.0,0.0,0.0,0.0,0.0,0.0,-4.5332,-4.6402,0.0,0.0,0.0,-4.7118,-4.6815,0.0,0.0,0.0,0.0,0.0,0.0,0.0,0.0,0.0,0.0,0.0,0.0,0.0,0.0,0.0,0.0,0.0,0.0,0.0,0.0,0.0,0.0,0.0,0.0,0.0,0.0,0.0,0.0,0.0,0.0,0.0,0.0,0.0,0.0,0.0,0.0,0.0,0.0,0.0,0.0,0.0,0.0,0.0,0.0,0.0,0.0,0.0,0.0,0.0,0.0,0.0,0.0,0.0,0.0,0.0,0.0,0.0,-6.1779,-6.6686,-7.0697,-7.3704,-7.4921,-7.4772,-7.3207,-6.983,0.0,0.0,0.0,0.0,0.0,0.0,0.0,0.0,0.0,0.0,0.0,0.0,0.0,0.0,0.0,0.0,0.0,0.0,0.0,0.0,0.0,0.0,0.0,0.0,0.0,0.0,0.0,-3.3873,0.0,0.0,0.0,0.0,0.0,0.0,0.0,0.0,0.0,0.0,0.0,0.0,0.0,0.0,-4.5927,-4.7963,-4.924,-5.0351,0.0,0.0,-5.0522,-5.0167,-4.8515,-4.6248,0.0,0.0,0.0,0.0,0.0,0.0,0.0,0.0,0.0,0.0,0.0,0.0,0.0,0.0,0.0,0.0,0.0,0.0,0.0,0.0,0.0,0.0,0.0,0.0,0.0,0.0,0.0,0.0,0.0,0.0,0.0,0.0,0.0,0.0,0.0,0.0,0.0,0.0,0.0,0.0,0.0,0.0,0.0,0.0,0.0,0.0,0.0,0.0,0.0,0.0,0.0,0.0,0.0,0.0,-5.7305,-6.31,-6.7749,-7.21,-7.5941,-7.6187,-7.6292,-7.6397,-7.2368,-6.8429,0.0,0.0,0.0,0.0,0.0,0.0,0.0,0.0,0.0,0.0,0.0,0.0,0.0,0.0,0.0,0.0,0.0,0.0,0.0,0.0,0.0,0.0,0.0,0.0,0.0,0.0,0.0,0.0,0.0,0.0,0.0,0.0,0.0,0.0,0.0,0.0,0.0,0.0,0.0,0.0,0.0,-4.8016,-5.0471,-5.2235,-5.3443,0.0,-5.4359,-5.3958,-5.2297,-5.0943,-4.8917,-4.5504,0.0,0.0,0.0,0.0,0.0,0.0,0.0,0.0,0.0,0.0,0.0,0.0,0.0,0.0,0.0,0.0,0.0,0.0,0.0,0.0,0.0,0.0,0.0,0.0,0.0,0.0,0.0,0.0,0.0,0.0,0.0,0.0,0.0,0.0,0.0,0.0,0.0,0.0,0.0,0.0,0.0,0.0,0.0,0.0,0.0,0.0,0.0,0.0,0.0,0.0,0.0,0.0,0.0,-5.9534,-6.5619,-7.0514,-7.48,-7.8204,-7.9391,-7.9408,-7.8365,-7.5239,-7.1543,0.0,0.0,0.0,0.0,0.0,0.0,0.0,0.0,0.0,0.0,0.0,0.0,0.0,0.0,0.0,0.0,0.0,0.0,0.0,0.0,0.0,0.0,0.0,0.0,0.0,0.0,0.0,0.0,-3.8716,-3.8432,-3.7978,0.0,0.0,0.0,0.0,0.0,0.0,0.0,0.0,0.0,0.0,-5.0182,-5.2552,-5.4445,0.0,0.0,-5.6014,-5.5636,-5.4547,-5.2747,-5.0611,-4.8033,-4.4953,0.0,0.0,0.0,0.0,0.0,0.0,0.0,0.0,0.0,0.0,0.0,0.0,0.0,0.0,0.0,0.0,0.0,0.0,0.0,0.0,0.0,0.0,0.0,0.0,0.0,0.0,-3.2648,-3.2296,0.0,0.0,0.0,0.0,0.0,0.0,0.0,0.0,0.0,0.0,0.0,0.0,0.0,0.0,0.0,0.0,0.0,0.0,0.0,0.0,0.0,0.0,0.0,0.0,-6.1155,-6.7305,-7.2405,-7.6827,-8.0506,-8.202,-8.2227,-8.0981,-7.8299,-7.4935,-7.0867,0.0,0.0,0.0,0.0,0.0,0.0,0.0,0.0,0.0,0.0,0.0,0.0,0.0,0.0,0.0,0.0,0.0,0.0,0.0,0.0,0.0,0.0,0.0,0.0,0.0,0.0,0.0,-4.0633,-4.0003,-3.8588,0.0,0.0,0.0,0.0,0.0,0.0,0.0,0.0,0.0,0.0,-5.1917,-5.45,-5.61,-5.7168,-5.7551,-5.7442,-5.7095,-5.6293,-5.4447,-5.2437,-5.0234,0.0,0.0,0.0,0.0,0.0,0.0,0.0,0.0,0.0,0.0,0.0,0.0,0.0,0.0,0.0,0.0,0.0,0.0,0.0,0.0,0.0,0.0,0.0,0.0,0.0,0.0,0.0,-3.6865,0.0,0.0,-3.4116,0.0,0.0,0.0,0.0,0.0,0.0,0.0,0.0,0.0,0.0,0.0,0.0,0.0,0.0,0.0,0.0,0.0,0.0,0.0,0.0,0.0,0.0,-6.1847,-6.7959,-7.2869,-7.7697,-8.263,-8.3636,-8.4277,-8.4613,-8.152,-7.8538,-7.5555,0.0,0.0,0.0,0.0,0.0,0.0,0.0,0.0,0.0,0.0,0.0,0.0,0.0,0.0,0.0,0.0,0.0,0.0,0.0,0.0,0.0,0.0,0.0,0.0,0.0,0.0,-4.315,-4.2665,-4.1568,0.0,0.0,0.0,0.0,0.0,0.0,0.0,0.0,0.0,-4.9206,-5.1089,-5.3322,-5.6248,-5.7277,-5.8126,-5.9249,-5.892,-5.8215,-5.7255,-5.6117,-5.4459,0.0,0.0,0.0,0.0,0.0,0.0,0.0,0.0,0.0,0.0,0.0,0.0,0.0,0.0,0.0,0.0,0.0,0.0,0.0,0.0,0.0,0.0,0.0,0.0,0.0,0.0,0.0,-4.2333,-4.1973,0.0,0.0,0.0,0.0,0.0,0.0,0.0,0.0,0.0,0.0,0.0,-5.5472,-5.6736,0.0,0.0,0.0,0.0,0.0,0.0,0.0,0.0,0.0,0.0,0.0,0.0,-6.4897,-7.0305,-7.5442,-8.0081,-8.3985,-8.5622,-8.6495,-8.6521,-8.4308,-8.0361,-7.4684,0.0,0.0,0.0,-5.5296,0.0,0.0,0.0,0.0,0.0,0.0,0.0,0.0,0.0,0.0,0.0,0.0,0.0,0.0,0.0,0.0,0.0,0.0,0.0,0.0,0.0,-4.483,0.0,0.0,0.0,0.0,0.0,0.0,0.0,0.0,0.0,0.0,-4.7216,-4.966,-5.144,-5.3821,-5.5769,-5.7223,-5.8591,-5.9495,0.0,0.0,0.0,0.0,0.0,0.0,0.0,0.0,0.0,0.0,0.0,0.0,0.0,-4.4988,-4.3216,-3.987,-3.9569,-3.9872,-4.036,0.0,0.0,0.0,0.0,0.0,0.0,0.0,0.0,0.0,0.0,0.0,0.0,0.0,0.0,-4.8163,-4.7608,-4.6972,0.0,0.0,0.0,0.0,0.0,0.0,0.0,0.0,-5.7612,-5.9749,-6.1557,-6.2769,-6.3548,-6.376,-6.3512,-6.1051,0.0,0.0,0.0,0.0,0.0,0.0,0.0,0.0,-6.7614,-7.2511,-7.7811,-8.2142,-8.5552,-8.7485,-8.836,-8.8286,-8.5951,-8.2068,-7.6445,-7.2549,-6.8398,0.0,0.0,0.0,0.0,0.0,0.0,0.0,0.0,0.0,0.0,0.0,0.0,0.0,0.0,0.0,0.0,0.0,0.0,0.0,0.0,0.0,0.0,0.0,-4.7676,0.0,0.0,0.0,0.0,0.0,0.0,0.0,0.0,0.0,-4.8212,-5.0243,-5.2504,-5.4276,-5.6087,-5.7596,-5.8482,0.0,0.0,0.0,0.0,0.0,0.0,0.0,-5.7342,-5.6084,-5.5061,-5.381,-5.2481,-5.1479,-5.102,-5.1353,0.0,0.0,-4.5378,-4.4938,-4.5378,-4.5764,-4.5736,-4.5525,-4.5691,-4.5667,-4.5652,0.0,0.0,0.0,0.0,-5.381,0.0,0.0,0.0,-5.4963,-5.4653,0.0,-5.3576,0.0,0.0,0.0,0.0,-5.3661,-5.5497,0.0,0.0,-6.3734,-6.6181,-6.8362,-6.9256,-7.011,-7.079,-7.0007,-6.922,-6.8076,-6.1581,-5.7728,0.0,0.0,0.0,0.0,0.0,-7.002,-7.4472,-7.9612,-8.3992,-8.7263,-8.9089,-8.9966,-8.9893,-8.6718,-8.3664,-8.0912,-7.6626,-7.2691,-6.9173,-6.4136,0.0,0.0,0.0,0.0,0.0,0.0,0.0,0.0,0.0,0.0,0.0,0.0,0.0,0.0,0.0,0.0,0.0,0.0,0.0,0.0,-4.9925,0.0,0.0,0.0,0.0,0.0,0.0,0.0,0.0,0.0,-5.3087,-5.2476,-5.3472,-5.5228,-5.7601,0.0,0.0,0.0,0.0,-6.0672,-6.1275,-6.0864,-6.0587,-6.096,-6.0199,-5.949,-5.8886,0.0,0.0,-5.6658,-5.6551,-5.6685,-5.7275,-5.7566,-5.634,-5.1383,-5.1023,-5.1484,-5.1732,-5.1727,-5.1582,-5.1482,-5.1215,-5.1075,-6.7115,0.0,0.0,0.0,0.0,-6.0863,-6.1329,-6.2022,-6.1642,-6.1478,-6.1442,-6.0701,0.0,0.0,0.0,0.0,0.0,0.0,-6.4133,-6.7247,-6.9901,-7.2083,-7.3848,-7.5354,-7.6248,-7.6465,-7.6079,-7.5181,-7.3812,-7.1505,-6.7634,-6.223,0.0,0.0,0.0,0.0,-7.294,-7.6123,-8.0876,-8.4755,-8.7559,-8.9423,-9.0411,-9.0264,-8.8617,-8.6391,-8.3664,-8.0587,-7.6985,-7.2798,-6.8785,0.0,0.0,0.0,0.0,0.0,0.0,0.0,0.0,0.0,0.0,0.0,0.0,0.0,0.0,0.0,0.0,0.0,0.0,0.0,-5.3128,-5.3559,-5.3632,0.0,0.0,0.0,0.0,0.0,0.0,0.0,0.0,0.0,-5.9325,-5.8726,-5.8646,0.0,0.0,-6.1622,-6.1725,-6.2286,-6.2784,-6.2977,-6.2839,0.0,-6.2665,-6.2442,-6.2136,-6.1789,-6.1546,-6.133,-6.1163,-6.1135,-6.1191,-6.1253,-6.1747,-6.1691,-6.0595,-5.8363,-5.7141,-5.709,-5.698,-5.6778,-5.6714,-5.6387,-5.6043,-7.5656,-7.1562,-6.8457,-6.7192,-6.7262,-6.7505,-6.8074,-6.8993,-6.8636,-6.8421,-6.8235,-6.7534,-6.6271,-6.452,-6.4288,0.0,0.0,0.0,-7.0482,-7.2972,-7.5297,-7.7243,-7.8804,-7.9921,-8.0575,-8.083,-8.047,-7.9747,-7.8804,-7.7839,-7.5109,-7.0596,0.0,-6.8742,-6.97,-7.3189,-7.6123,-7.8531,-8.2976,-8.6283,-8.8217,-9.0117,-9.0997,-9.0813,-8.9897,-8.8176,-8.5842,-8.3479,-8.0368,-7.6374,-7.2834,-6.8856,0.0,0.0,0.0,0.0,0.0,0.0,0.0,0.0,0.0,0.0,0.0,-4.2698,-4.4871,0.0,0.0,0.0,-5.2723,-5.5335,-5.7898,-5.7864,0.0,0.0,0.0,0.0,0.0,0.0,0.0,-5.9389,-6.1492,-6.3403,-6.4636,-6.424,-6.359,-6.3138,-6.3551,-6.3867,-6.3827,0.0,-6.4414,-6.4665,-6.4693,-6.4803,-6.5074,-6.5046,-6.5041,-6.5078,-6.526,-6.5288,-6.5288,-6.5288,-6.5374,-6.5765,-6.6079,-6.6557,-6.7056,-6.5411,-6.3645,-6.2449,-6.1576,-6.1151,-6.1278,-6.0813,-6.0211,-8.268,-8.1208,-7.5447,-7.3138,-7.3466,-7.411,-7.4736,-7.5246,-7.555,-7.5227,-7.439,-7.4055,-7.2972,-7.1332,-7.1086,0.0,-7.347,-7.4921,-7.6548,-7.8383,-8.012,-8.1793,-8.3289,-8.3362,-8.38,-8.4494,-8.3764,-8.3362,-8.3216,-8.1587,-8.0648,-8.0185,-7.6013,-7.4189,-7.4903,-7.7307,-7.9396,-8.1308,-8.5519,-8.8253,-8.9276,-9.096,-9.1657,-9.1472,-9.0479,-8.9235,-8.7517,-8.5544,-8.2929,-7.9573,-7.6302,-7.2763,-6.9,0.0,0.0,0.0,0.0,0.0,0.0,0.0,0.0,0.0,0.0,0.0,0.0,0.0,0.0,-5.3847,-5.8012,0.0,-6.2427,-6.2492,0.0,0.0,0.0,-6.0895,-6.1589,-6.2085,-6.299,-6.4204,0.0,0.0,-6.8644,-6.9666,-6.9334,-6.6957,-6.6166,-6.5997,-6.6175,-6.5973,-6.5901,-6.6583,-6.6611,-6.6947,-6.7873,-6.8097,-6.8234,-6.8507,-6.9002,-6.9137,-6.9196,-6.9225,-6.9457,-6.9777,-7.0283,-7.0672,-7.1258,-7.119,-7.0712,-6.7279,-6.5864,-6.519,-6.52,-6.4438,-6.3449,-8.578,-8.5314,-8.3091,-8.0889,-7.8879,-7.9466,-8.0024,-8.0395,-8.0394,-8.0008,-7.94,-7.9213,-7.841,-7.7275,-7.7174,-7.7721,-7.8705,-7.9069,-8.0453,-8.2636,-8.376,-8.5145,-8.6825,-8.7518,-8.7955,-8.8102,-8.7776,-8.7302,-8.6754,-8.6209,-8.5263,-8.399,-8.2865,-8.0984,-7.8351,-8.0298,-8.1889,-8.294,-8.621,-8.8947,-9.085,-9.1363,-9.1472,-9.1246,-9.0252,-8.9302,-8.828,-8.6304,-8.3975,-8.1227,-7.8842,-7.5719,-7.1584,-6.8328,0.0,0.0,0.0,0.0,0.0,0.0,0.0,0.0,0.0,-5.0196,-5.2727,0.0,-5.6848,0.0,-6.2539,-6.5093,-6.5966,-6.6063,0.0,0.0,-6.5576,-6.5539,-6.6213,-6.7266,-6.8388,-6.9253,-7.0727,-7.163,-7.1648,-7.2875,-7.3302,-7.215,-7.0374,-6.9162,-6.9001,-6.9205,-6.9402,-6.9517,-6.9546,-6.98,-7.0388,-7.0663,-7.0975,-7.1552,-7.1777,-7.2091,-7.2591,-7.265,-7.2562,-7.2267,-7.215,-7.2198,-7.2235,-7.1951,-7.1767,-7.1238,-6.9921,-6.8684,-6.8002,-6.7106,-6.6352,-8.9228,-8.915,-8.853,-8.7209,-8.5531,-8.4173,-8.3763,-8.4124,-8.39,-8.3552,-8.309,-8.2444,-8.2003,-8.1666,-8.1563,-8.2038,-8.2873,-8.3537,-8.456,-8.5947,-8.6822,-8.7735,-8.8615,-8.9126,-8.9417,-8.9417,-8.9275,-8.9018,-8.8652,-8.8471,-8.796,-8.7011,-8.6975,-8.5883,-8.37,-8.3629,-8.4064,-8.4936,-8.7632,-8.9789,-9.1435,-9.1433,-9.1282,-9.1016,-9.0098,-8.9144,-8.8227,-8.6686,-8.4865,-8.2696,-8.0923,-7.8436,-7.5134,-7.19,-6.868,0.0,0.0,0.0,0.0,0.0,0.0,0.0,0.0,0.0,0.0,0.0,-6.2101,-6.4784,-6.7133,-6.8895,-6.9938,-7.0036,-7.0036,-7.0036,-6.9903,-6.9964,-7.0457,-7.176,-7.2874,-7.3371,-7.4832,-7.5722,-7.5423,-7.6149,-7.6496,-7.5782,-7.4376,-7.294,-7.1715,-7.1479,-7.1464,-7.1619,-7.1911,-7.235,-7.3128,-7.3555,-7.3922,-7.4277,-7.4475,-7.4763,-7.509,-7.5149,-7.5031,-7.4704,-7.4615,-7.4526,-7.4307,-7.4218,-7.409,-7.4188,-7.351,-7.2142,-7.043,-6.9271,-6.8514,-9.245,-9.2373,-9.2136,-9.2011,-9.1697,-8.8364,-8.7095,-8.7206,-8.6799,-8.6548,-8.6189,-8.4986,-8.4772,-8.5196,-8.506,-8.5427,-8.6334,-8.7552,-8.8248,-8.8536,-8.9234,-8.9638,-8.9711,-8.9711,-8.9711,-8.9748,-8.9858,-8.9895,-8.9895,-9.0005,-8.9896,-8.9642,-8.9642,-8.9423,-8.9019,-8.6939,-8.6317,-8.7225,-8.924,-9.0703,-9.1472,-9.1282,-9.1053,-9.0861,-8.99,-8.8866,-8.7913,-8.6881,-8.5526,-8.3789,-8.2428,-8.0727,-7.8811,-7.5245,-7.2289,0.0,-6.7896,0.0,0.0,0.0,0.0,0.0,0.0,0.0,0.0,-6.506,-6.779,-7.0832,-7.172,-7.2674,-7.4056,-7.4187,-7.4187,-7.4187,-7.4187,-7.4324,-7.4695,-7.5785,-7.6683,-7.7063,-7.8544,-7.9375,-7.8979,-7.9137,-7.9017,-7.8313,-7.7829,-7.6648,-7.4637,-7.349,-7.3028,-7.3211,-7.3723,-7.4491,-7.5348,-7.5987,-7.6301,-7.645,-7.6562,-7.6993,-7.7053,-7.7083,-7.7023,-7.6933,-7.6733,-7.6844,-7.6844,-7.6754,-7.6613,-7.613,-7.5643,-7.4749,-7.2564,-7.1109,-7.0143,-9.3407,-9.3294,-9.3256,-9.3098,-9.2771,-9.2073,-9.1435,-9.0825,-9.0588,-9.0124,-8.957,-8.8864,-8.863,-8.8709,-8.85,-8.8539,-8.8757,-8.8979,-8.9456,-9.0152,-9.0298,-9.0739,-9.1326,-9.1363,-9.1326,-9.14,-9.206,-9.2391,-9.2427,-9.3051,-9.3051,-9.2317,-9.2317,-9.1657,-9.0301,0.0,0.0,0.0,-9.0155,-9.0629,-9.1246,-9.1053,-9.0897,-9.0661,-8.9662,0.0,-8.7913,-8.672,-8.541,-8.3789,-8.3272,0.0,0.0,0.0,0.0,0.0,0.0,0.0,0.0,0.0,0.0,0.0,-7.3636,-7.2424,-6.934,-7.1739,-7.4161,-7.5706,-7.6541,-7.7343,-7.8211,-7.8311,-7.8311,-7.8311,-7.8311,-7.8545,-7.9113,-7.9447,-7.9847,-8.0588,-8.0916,-8.0934,-8.0564,-8.0906,-8.0803,-7.9827,-7.9476,-7.9067,-7.8108,-7.6335,-7.5399,-7.5653,-7.5866,-7.6234,-7.6502,-7.6733,-7.7001,-7.73,-7.7479,-7.7831,-7.822,-7.837,-7.819,-7.7741,-7.7622,-7.7442,-7.6963,-7.6844,-7.6763,-7.642,-7.6023,-7.5216,-7.3756,-7.2509,-7.1339,-9.4982,-9.4906,-9.4867,-9.4753,0.0,-9.4424,-9.4029,-9.3415,-9.2253,-9.1259,-9.0499,-9.0106,-8.9904,-8.9698,-9.0033,-9.0076,-9.0041,-9.0408,-9.0812,-9.1216,-9.162,-9.206,-9.2464,-9.2831,-9.3051,-9.3051,-9.3492,-9.3712,-9.3712,-9.4116,-9.4079,-9.3712,-9.3675,-9.3272,-9.2464,-9.2427,-9.2024,-9.1216,-9.1691,-9.2049,-9.2337,-9.1697,-9.1241,-9.1161,-8.9798,0.0,0.0,0.0,0.0,0.0,0.0,0.0,0.0,-8.2414,0.0,-7.9822,-7.8924,-7.8242,-7.7773,-7.7625,-7.8043,-7.9249,-8.0633,-7.9793,-7.5674,-7.6632,-7.7844,-7.8926,-7.9526,-8.0263,-8.0895,-8.1297,-8.1397,-8.1029,-8.0995,-8.1135,-8.1241,-8.1543,-8.2018,-8.2494,-8.2758,-8.2878,-8.292,-8.2843,-8.2789,-8.2276,-8.1682,-8.1055,-8.0043,-7.8305,-7.7044,-7.7331,-7.7334,-7.7442,-7.7741,-7.7801,-7.7861,-7.822,-7.828,-7.843,-7.8729,-7.8789,-7.8669,-7.834,-7.828,-7.816,-7.7921,-7.7801,-7.7801,-7.7516,-7.7084,-7.6504,-7.5565,-7.3964,-7.2287,-9.6749,-9.6749,-9.6634,-9.6559,-9.6481,-9.6231,-9.5929,-9.5485,-9.326,0.0,0.0,-9.1066,-9.0772,-9.0536,-9.1278,-9.1468,-9.1362,-9.195,-9.2244,-9.2281,-9.2978,-9.3308,-9.3345,-9.3969,-9.4299,-9.4299,-9.4446,-9.452,-9.452,-9.463,-9.4703,-9.474,-9.4703,-9.4666,-9.452,-9.452,-9.3822,-9.2574,-9.3225,-9.3655,-9.3655,-9.2642,-9.2075,-9.2075,-9.0565,-8.9645,-8.9501,-8.8726,-8.8131,-8.7987,-8.7376,-8.7016,-8.698,-8.5873,-8.5039,-8.4744,-8.4169,-8.3732,-8.3617,-8.3617,-8.3968,-8.4819,-8.5969,-8.5175,-8.1594,-8.1029,-8.1086,-8.1831,-8.2326,-8.2785,-8.3423,-8.3993,-8.4161,-8.3523,-8.3456,-8.3329,-8.2965,-8.3409,-8.3954,-8.406,-8.446,-8.4783,-8.5321,-8.479,-8.4374,-8.4405,-8.3486,-8.2485,-8.1186,-7.9406,-7.8094,-7.8177,-7.8115,-7.816,-7.8609,-7.8729,-7.8789,-7.8729,-7.8759,-7.8789,-7.8789,-7.8789,-7.8789,-7.8759,-7.8789,-7.8759,-7.8759,-7.8699,-7.8789,-7.8789,-7.8209,-7.7446,-7.6973,-7.5096,-7.3057,-9.8404,-9.8442,-9.8404,-9.8366,-9.8248,-9.8166,-9.7821,-9.7159,-9.4706,-9.3573,-9.3432,-9.3621,-9.3627,-9.3597,-9.3927,-9.408,-9.4007,-9.397,-9.3932,-9.3932,-9.4079,-9.4116,-9.4116,-9.4226,-9.4299,-9.4336,-9.4997,-9.5327,-9.5401,-9.6025,-9.6355,-9.6355,-9.6355,-9.6025,-9.5401,-9.5327,-9.5217,-9.4997,-9.4292,-9.396,-9.396,-9.3346,-9.3114,-9.3034,-9.2528,-9.1846,-9.1161,-9.0851,-9.0324,-8.9677,-8.9533,-8.9461,-8.9544,-8.9456,-8.914,-8.8454,-8.8468,-8.8475,-8.8475,-8.8511,-8.9047,-9.0213,-9.0044,-8.8471,-8.5446,-8.5871,-8.6096,-8.5539,-8.6011,-8.6372,-8.6324,-8.6392,-8.6425,-8.629,-8.629,-8.6257,-8.602,-8.6088,-8.6155,-8.6264,-8.6501,-8.6316,-8.6196,-8.5963,-8.5578,-8.507,-8.4206,-8.2987,-8.1688,-7.9891,-7.8825,-7.8539,-7.8596,-7.8639,-7.8759,-7.8789,-7.8789,-7.8789,-7.8789,-7.8789,-7.8789,-7.8789,-7.8789,-7.8789,-7.8789,-7.8789,-7.8789,-7.8789,-7.8789,-7.8789,-7.8209,-7.7475,-7.715,-7.5534,-7.4028,-9.8788,-9.8788,-9.8789,-9.8789,-9.8711,-9.8513,-9.826,-9.782,-9.6527,-9.576,-9.5497,-9.5333,-9.5176,-9.4979,-9.5012,-9.4918,-9.4741,-9.4595,-9.4448,-9.4485,-9.4815,-9.496,-9.4997,-9.5401,-9.5621,-9.5621,-9.5988,-9.6171,-9.6245,-9.6979,-9.7346,-9.7383,-9.7787,-9.7823,-9.7493,-9.7456,-9.7456,-9.7456,-9.6416,-9.5936,-9.5936,-9.5582,-9.532,-9.4883,-9.4241,-9.3542,-9.2743,-9.2627,-9.2365,-9.2002,-9.2002,-9.2002,-9.2002,-9.2046,-9.1981,-9.1618,-9.166,-9.1775,-9.1775,-9.206,-9.2582,-9.3577,-9.3366,-9.2672,-9.1231,-8.9408,-8.8086,-8.7294,-8.7658,-8.7811,-8.7516,-8.7854,-8.7922,-8.755,-8.7482,-8.7347,-8.6974,-8.6907,-8.6907,-8.6907,-8.6907,-8.6932,-8.7227,-8.7038,-8.6754,-8.6364,-8.5089,-8.3514,-8.2377,-8.0966,-7.9895,-7.9335,-7.9009,-7.8759,-7.8789,-7.8789,-7.8789,-7.8789,-7.8789,-7.8789,-7.8789,-7.8789,-7.8789,-7.8789,-7.8789,-7.8789,-7.8789,-7.8789,-7.8789,-7.8789,-7.8209,-7.7623,-7.718,-7.5908,-7.4194,-9.9365,-9.9365,-9.9365,-9.9365,-9.9327,-9.913,-9.9036,-9.9052,-9.8735,-9.8466,-9.8118,-9.7153,-9.6406,-9.6089,-9.6079,-9.5855,-9.5544,-9.5329,-9.5184,-9.5221,-9.5625,-9.5843,-9.5841,-9.6428,-9.6722,-9.6722,-9.6722,-9.6795,-9.7016,-9.7603,-9.797,-9.819,-9.8778,-9.9108,-9.9108,-9.9108,-9.9108,-9.9071,-9.851,-9.8137,-9.7954,-9.7714,-9.7305,-9.6721,-9.61,-9.54,-9.4817,-9.4744,-9.4744,-9.4744,-9.4744,-9.4744,-9.4744,-9.4823,-9.4823,-9.4823,-9.4901,-9.4901,-9.4938,-9.5211,-9.5668,-9.6037,-9.6018,-9.5821,-9.539,-9.2512,-9.0152,-8.9291,-8.9307,-8.9211,-8.8981,-8.9241,-8.9275,-8.8632,-8.8497,-8.826,-8.755,-8.7414,-8.7414,-8.7414,-8.7414,-8.7651,-8.8091,-8.8003,-8.7606,-8.7109,-8.5701,-8.409,-8.3076,-8.2005,-8.091,-8.0182,-7.9363,-7.8933,-7.8789,-7.8789,-7.8789,-7.8789,-7.8789,-7.8789,-7.8789,-7.8789,-7.8789,-7.8789,-7.8789,-7.8789,-7.8789,-7.8789,-7.8878,-7.8998,-7.8506,-7.7799,-7.7408,-7.6204,-7.4278,-10.1019,-10.1058,-10.1019,-10.1018,-10.0978,-10.0937,-10.1277,-10.18,-10.1614,-10.1932,-10.2015,-9.9308,-9.7793,-9.7529,-9.7889,-9.7897,-9.7525,-9.7348,-9.7099,-9.6842,-9.6841,-9.6728,-9.6612,-9.6722,-9.6722,-9.6759,-9.6795,-9.7163,-9.775,-9.7897,-9.83,-9.8924,-9.9071,-9.9181,-9.9145,-9.9145,-9.9145,-9.9108,-9.9769,-9.9732,-9.8956,-9.876,-9.8643,-9.857,-9.8335,-9.8099,-9.7889,-9.8026,-9.7989,-9.8026,-9.7998,-9.8071,-9.8035,-9.8233,-9.8314,-9.8277,-9.8437,-9.8589,-9.8552,-9.8504,-9.8262,-9.8089,-9.7571,-9.6976,-9.6256,-9.4976,-9.3658,-9.2498,-9.2022,-9.1364,-9.1081,-9.0966,-9.0662,-9.0019,-8.9918,-8.9715,-8.9072,-8.8903,-8.8869,-8.8903,-8.8801,-8.8937,-8.8903,-8.8531,-8.7993,-8.7038,-8.598,-8.4698,-8.3701,-8.2473,-8.1416,-8.0553,-7.9819,-7.928,-7.9023,-7.8789,-7.8938,-7.8878,-7.8849,-7.8938,-7.9028,-7.8968,-7.8819,-7.9178,-7.8968,-7.8998,-7.8938,-7.8819,-7.9088,-7.9451,-7.9012,-7.8235,-7.7356,-7.6464,-7.4863,-10.1289,-10.1289,-10.1289,-10.1596,-10.2017,-10.2595,-10.2937,-10.3119,-10.2994,-10.3052,-10.3067,-10.1687,-10.076,-10.0193,-10.0292,-10.013,-9.971,-9.9438,-9.9159,-9.8909,-9.8651,-9.8349,-9.8272,-9.8195,-9.8117,-9.8117,-9.8117,-9.83,-9.8631,-9.9071,-9.9732,-10.0429,-10.054,-10.0503,-10.0503,-10.0503,-10.0503,-10.054,-10.0833,-10.0833,-10.0576,-10.0423,-10.0203,-9.9719,-9.9566,-9.9309,-9.8943,-9.887,-9.887,-9.887,-9.887,-9.887,-9.887,-9.895,-9.895,-9.895,-9.9029,-9.9108,-9.9108,-9.9309,-9.9403,-9.912,-9.8962,-9.8506,-9.7765,-9.6663,-9.5681,-9.4548,-9.3058,-9.1987,-9.1682,-9.1419,-9.1169,-9.0899,-9.0865,-9.0729,-9.0459,-9.0391,-9.0256,-8.985,-8.9748,-8.9545,-8.9207,-8.862,-8.8045,-8.7342,-8.638,-8.5142,-8.4122,-8.3259,-8.2461,-8.1415,-8.0984,-8.0502,-7.9652,-7.9387,-7.9567,-7.9866,-7.9986,-7.9986,-7.9926,-7.9986,-7.9986,-7.9956,-7.9896,-7.9896,-8.0045,-7.9986,-8.0105,-8.0227,-7.9693,-7.8938,-7.7849,-7.6986,-7.5532,-10.1827,-10.1981,-10.202,-10.2366,-10.302,-10.3635,-10.398,-10.409,-10.4048,-10.4078,-10.4093,-10.3917,-10.3541,-10.2939,-10.228,-10.1679,-10.1244,-10.0919,-10.0581,-10.034,-9.9834,-9.9535,-9.9382,-9.9264,-9.9186,-9.9108,-9.9071,-9.9218,-9.9475,-10.0246,-10.0907,-10.142,-10.1494,-10.1494,-10.1494,-10.1494,-10.1494,-10.1457,-10.1494,-10.1494,-10.1457,-10.1494,-10.12,-10.0686,-10.0613,-10.0356,-9.9805,-9.9769,-9.9769,-9.9769,-9.9769,-9.9769,-9.9769,-9.9769,-9.9769,-9.9769,-9.9769,-9.9769,-9.9769,-10.0159,-10.029,-9.9995,-9.9992,-9.9677,-9.9075,-9.8136,-9.7359,-9.665,-9.4558,-9.3167,-9.2407,-9.2144,-9.1846,-9.1643,-9.1609,-9.1541,-9.1305,-9.1305,-9.1068,-9.0594,-9.029,-8.9918,-8.9162,-8.862,-8.8161,-8.7695,-8.6623,-8.5648,-8.4764,-8.4068,-8.3233,-8.22,-8.1918,-8.1402,-8.0312,-8.0075,-8.0345,-8.0584,-8.0704,-8.0674,-8.0823,-8.0794,-8.0794,-8.0434,-8.0704,-8.0764,-8.0554,-8.0674,-8.0765,-8.0586,-8.0284,-7.9423,-7.8351,-7.7287,-7.5956,-10.3021,-10.3712,-10.3789,-10.3751,-10.3828,-10.3943,-10.4366,-10.5018,-10.4897,-10.5316,-10.5849,-10.5838,-10.5648,-10.5167,-10.333,-10.2129,-10.1777,-10.1584,-10.12,-10.0731,-10.0452,-10.0018,-9.9382,-9.9419,-9.9301,-9.9328,-9.9328,-9.9622,-10.0283,-10.1017,-10.1457,-10.1494,-10.1494,-10.1494,-10.1494,-10.1494,-10.1494,-10.1494,-10.1494,-10.1494,-10.1494,-10.1494,-10.1457,-10.1384,-10.142,-10.1347,-10.131,-10.1347,-10.131,-10.1347,-10.1274,-10.131,-10.1347,-10.131,-10.1274,-10.131,-10.131,-10.131,-10.1274,-10.1384,-10.1258,-10.0845,-10.0687,-10.0416,-10.0052,-9.9349,-9.8826,-9.8722,-9.6864,-9.5275,-9.4121,-9.3501,-9.303,-9.2455,-9.2387,-9.2083,-9.144,-9.1541,-9.1338,-9.1169,-9.0696,-9.0053,-8.9275,-8.8847,-8.8458,-8.7762,-8.6864,-8.6118,-8.5632,-8.4682,-8.3713,-8.3177,-8.2428,-8.1674,-8.0911,-8.0764,-8.0794,-8.1063,-8.1242,-8.0973,-8.0853,-8.0823,-8.0883,-8.0913,-8.1063,-8.1093,-8.0913,-8.0825,-8.0794,-8.082,-8.0742,-7.9975,-7.8489,-7.717,-7.5819,-10.3635,-10.3941,-10.4482,-10.4674,-10.4751,-10.5251,-10.5674,-10.5944,-10.5903,-10.6015,-10.6245,-10.6199,-10.6068,-10.594,-10.4861,-10.4128,-10.3718,-10.3504,-10.3138,-10.2623,-10.2254,-10.1757,-10.1313,-10.1084,-10.085,-10.0613,-10.065,-10.076,-10.1017,-10.1384,-10.1494,-10.1494,-10.1494,-10.1494,-10.1494,-10.1494,-10.1494,-10.1494,-10.1494,-10.1494,-10.1494,-10.1494,-10.1494,-10.1494,-10.1494,-10.1494,-10.1494,-10.1494,-10.1494,-10.1494,-10.1494,-10.1494,-10.1494,-10.1494,-10.1494,-10.1494,-10.1494,-10.1494,-10.1531,-10.1971,-10.2101,-10.16,-10.1815,-10.17,-10.1008,-10.0302,-9.9599,-9.8827,-9.7771,-9.6486,-9.5682,-9.45,-9.347,-9.3233,-9.3165,-9.3064,-9.2861,-9.2759,-9.259,-9.2049,-9.1372,-9.0628,-9.0019,-8.9589,-8.9245,-8.8781,-8.7919,-8.7241,-8.6726,-8.5901,-8.4927,-8.4263,-8.3519,-8.3092,-8.2529,-8.1811,-8.1542,-8.1901,-8.211,-8.208,-8.1991,-8.1901,-8.1961,-8.1871,-8.1841,-8.1841,-8.1811,-8.1841,-8.1719,-8.1078,-8.1175,-8.0049,-7.8613,-7.7146,-7.5817,-10.4672,-10.4826,-10.5328,-10.552,-10.5636,-10.6444,-10.6828,-10.6867,-10.7098,-10.7213,-10.7172,-10.7129,-10.7049,-10.6962,-10.6737,-10.6362,-10.58,-10.5027,-10.435,-10.3915,-10.3388,-10.29,-10.2464,-10.2123,-10.1812,-10.1617,-10.1494,-10.1494,-10.1494,-10.1494,-10.1494,-10.1494,-10.1494,-10.1494,-10.1494,-10.1494,-10.1494,-10.1494,-10.1494,-10.1494,-10.1494,-10.1494,-10.1494,-10.1494,-10.1494,-10.1494,-10.1494,-10.1494,-10.1494,-10.1494,-10.1494,-10.1494,-10.1494,-10.1494,-10.1494,-10.1494,-10.1751,-10.1898,-10.1971,-10.2632,-10.2908,-10.2402,-10.2703,-10.266,-10.1928,-10.1248,-10.0547,-9.9777,-9.8541,-9.7562,-9.6857,-9.5383,-9.4214,-9.4011,-9.3943,-9.3808,-9.3605,-9.3571,-9.3165,-9.2489,-9.1981,-9.1372,-9.0763,-9.0399,-9.0134,-8.9668,-8.8921,-8.821,-8.7728,-8.6902,-8.6019,-8.5086,-8.4276,-8.3756,-8.316,-8.253,-8.208,-8.2409,-8.2499,-8.2679,-8.2769,-8.2769,-8.2769,-8.2769,-8.2769,-8.2769,-8.2769,-8.2769,-8.2282,-8.1669,-8.0864,-7.9891,-7.8451,-7.6816,-7.5481,-10.6367,-10.6367,-10.6405,-10.6482,-10.6636,-10.7367,-10.7675,-10.7829,-10.8444,-10.8636,-10.8559,-10.8752,-10.8513,-10.8586,-10.8344,-10.8354,-10.7622,-10.5969,-10.4874,-10.4403,-10.3824,-10.3251,-10.2684,-10.2351,-10.1969,-10.1734,-10.1574,-10.1494,-10.1494,-10.1494,-10.1494,-10.1494,-10.1494,-10.1494,-10.1494,-10.1494,-10.1494,-10.1494,-10.1494,-10.1494,-10.1494,-10.1494,-10.1494,-10.1494,-10.1494,-10.1494,-10.1494,-10.1494,-10.1494,-10.1494,-10.1494,-10.1494,-10.1494,-10.1567,-10.1531,-10.1714,-10.2265,-10.2669,-10.2779,-10.3439,-10.3751,-10.3327,-10.3277,-10.3311,-10.2968,-10.2364,-10.1878,-10.1184,-9.9806,-9.8584,-9.7898,-9.6605,-9.5499,-9.4857,-9.4654,-9.4315,-9.3842,-9.3605,-9.33,-9.2692,-9.2455,-9.2116,-9.1541,-9.1305,-9.0958,-9.0404,-8.9806,-8.9182,-8.8538,-8.7483,-8.6378,-8.5694,-8.4759,-8.3907,-8.3491,-8.3041,-8.286,-8.2739,-8.2709,-8.2769,-8.2769,-8.2769,-8.2769,-8.2769,-8.2769,-8.2769,-8.2769,-8.2769,-8.2282,-8.1669,-8.0707,-7.9733,-7.8127,-7.6678,-7.517,-10.6751,-10.7248,-10.7328,-10.7636,-10.8098,-10.8406,-10.8521,-10.8559,-10.879,-10.8906,-10.8906,-10.8906,-10.8863,-10.8863,-10.8739,-10.869,-10.8477,-10.7508,-10.6594,-10.5555,-10.453,-10.3758,-10.3149,-10.2721,-10.2276,-10.1812,-10.1574,-10.1494,-10.1494,-10.1494,-10.1494,-10.1494,-10.1494,-10.1494,-10.1494,-10.1494,-10.1494,-10.1494,-10.1494,-10.1494,-10.1494,-10.1494,-10.1494,-10.1494,-10.1494,-10.1494,-10.1494,-10.1494,-10.1494,-10.1494,-10.1494,-10.1494,-10.1567,-10.2008,-10.2301,-10.2412,-10.3072,-10.3549,-10.3623,-10.4247,-10.4557,-10.4203,-10.4517,-10.4473,-10.3832,-10.325,-10.2517,-10.1784,-10.0361,-9.9341,-9.8718,-9.7862,-9.6751,-9.5601,-9.5026,-9.4687,-9.4315,-9.3876,-9.3503,-9.33,-9.3233,-9.2861,-9.2286,-9.2083,-9.185,-9.1294,-9.0814,-9.0189,-8.9447,-8.8396,-8.7413,-8.662,-8.5339,-8.4055,-8.364,-8.3191,-8.292,-8.2769,-8.2769,-8.2769,-8.2769,-8.2769,-8.2769,-8.2769,-8.2769,-8.2769,-8.2769,-8.2465,-8.213,-8.1514,-8.0551,-7.9284,-7.7993,-7.6512,-7.4832,-10.7213,-10.771,-10.8021,-10.8444,-10.8944,-10.9213,-10.9367,-10.9444,-10.9713,-10.9867,-10.9867,-10.9867,-10.9867,-10.9867,-10.9743,-10.97,-10.9617,-10.9074,-10.8271,-10.7168,-10.5853,-10.4919,-10.421,-10.3387,-10.2573,-10.1928,-10.1574,-10.1494,-10.1494,-10.1494,-10.1494,-10.1494,-10.1494,-10.1494,-10.1494,-10.1494,-10.1494,-10.1494,-10.1494,-10.1494,-10.1531,-10.1788,-10.1934,-10.1971,-10.2228,-10.2375,-10.2375,-10.2375,-10.2081,-10.1677,-10.1751,-10.1934,-10.2008,-10.2669,-10.3146,-10.3293,-10.3843,-10.4357,-10.443,-10.5128,-10.54,-10.5042,-10.5356,-10.5163,-10.436,-10.3644,-10.2801,-10.1784,-10.0535,-9.9685,-9.8975,-9.8371,-9.7529,-9.6751,-9.6007,-9.533,-9.4823,-9.4045,-9.3605,-9.3537,-9.3537,-9.33,-9.2996,-9.2861,-9.2626,-9.2031,-9.1669,-9.0966,-9.0162,-8.9048,-8.8004,-8.69,-8.5483,-8.4497,-8.3938,-8.3341,-8.292,-8.2769,-8.2769,-8.2769,-8.2769,-8.2769,-8.2769,-8.2769,-8.2769,-8.2769,-8.2769,-8.2465,-8.1976,-8.1204,-8.0423,-7.9124,-7.7829,-7.6179,-7.4662,-10.7752,-10.7902,-10.8675,-10.906,-10.929,-10.9944,-11.0291,-11.0406,-11.1021,-11.1329,-11.1368,-11.1252,-11.1329,-11.1445,-11.1171,-11.1127,-11.1115,-11.0334,-10.9716,-10.9008,-10.7834,-10.6717,-10.5793,-10.4427,-10.3237,-10.2333,-10.1985,-10.1795,-10.1714,-10.1677,-10.1531,-10.1494,-10.1494,-10.1494,-10.1494,-10.1494,-10.1494,-10.1494,-10.1494,-10.1494,-10.1641,-10.2265,-10.2705,-10.2779,-10.3366,-10.3696,-10.366,-10.3623,-10.3072,-10.1971,-10.2412,-10.2779,-10.2889,-10.3513,-10.3953,-10.399,-10.4724,-10.5091,-10.5348,-10.5789,-10.6059,-10.559,-10.5449,-10.5163,-10.436,-10.3644,-10.2904,-10.1784,-10.057,-9.9685,-9.9009,-9.8371,-9.7935,-9.7867,-9.6954,-9.5973,-9.4857,-9.4045,-9.3639,-9.3571,-9.3571,-9.3571,-9.347,-9.347,-9.3233,-9.2755,-9.2203,-9.1496,-9.0356,-8.9346,-8.814,-8.69,-8.5626,-8.4643,-8.4086,-8.3341,-8.2769,-8.2769,-8.2769,-8.2769,-8.2769,-8.2769,-8.2769,-8.2769,-8.2769,-8.2769,-8.2617,-8.2312,-8.1823,-8.1204,-8.0265,-7.9152,-7.7666,-7.6011,-7.4491,-10.8444,-10.9517,-10.979,-11.0214,-11.0791,-11.1098,-11.1137,-11.1175,-11.1368,-11.1522,-11.1522,-11.1522,-11.1522,-11.1522,-11.1522,-11.1478,-11.1358,-11.1038,-11.0778,-11.041,-10.9856,-10.8107,-10.6318,-10.5244,-10.4426,-10.3818,-10.3433,-10.3125,-10.2448,-10.2412,-10.2081,-10.1494,-10.1567,-10.1494,-10.1494,-10.1494,-10.1494,-10.1494,-10.1494,-10.1788,-10.2301,-10.2558,-10.2999,-10.3586,-10.3843,-10.3953,-10.3917,-10.388,-10.377,-10.3366,-10.3439,-10.3586,-10.366,-10.4357,-10.4798,-10.4908,-10.5532,-10.6046,-10.6082,-10.6229,-10.6084,-10.5699,-10.5611,-10.5163,-10.4264,-10.3644,-10.2801,-10.1784,-10.057,-9.9685,-9.8975,-9.8371,-9.8003,-9.7867,-9.692,-9.5804,-9.4924,-9.4045,-9.3571,-9.3571,-9.3571,-9.3571,-9.3571,-9.3571,-9.3453,-9.2976,-9.2581,-9.2058,-9.0806,-8.974,-8.8545,-8.7317,-8.6086,-8.4935,-8.4086,-8.3341,-8.289,-8.2769,-8.2769,-8.2769,-8.2769,-8.2769,-8.2769,-8.2769,-8.2769,-8.2769,-8.2465,-8.213,-8.1669,-8.1204,-7.9949,-7.8831,-7.7502,-7.5844,-7.4294,-10.9329,-11.0209,-11.0598,-11.1021,-11.1483,-11.1522,-11.1522,-11.1522,-11.1522,-11.1522,-11.1522,-11.1522,-11.1522,-11.1522,-11.1522,-11.1752,-11.1945,-11.1506,-11.137,-11.1459,-11.0678,-10.899,-10.7148,-10.6168,-10.5582,-10.4908,-10.4598,-10.3985,-10.3456,-10.3382,-10.286,-10.2155,-10.2008,-10.1824,-10.1494,-10.1494,-10.1494,-10.1494,-10.1531,-10.1861,-10.2632,-10.3036,-10.366,-10.432,-10.4687,-10.4944,-10.4944,-10.4981,-10.4651,-10.4173,-10.4173,-10.4394,-10.4467,-10.5201,-10.5642,-10.5678,-10.6119,-10.6376,-10.6376,-10.6376,-10.6084,-10.5699,-10.5611,-10.5071,-10.436,-10.3644,-10.2904,-10.1784,-10.057,-9.9685,-9.9009,-9.8371,-9.8003,-9.7834,-9.6683,-9.5669,-9.5195,-9.4248,-9.3673,-9.3571,-9.3571,-9.3571,-9.3571,-9.3571,-9.3453,-9.3096,-9.2822,-9.2092,-9.1219,-9.0163,-8.898,-8.7455,-8.6086,-8.4935,-8.4086,-8.3341,-8.289,-8.2769,-8.2769,-8.2769,-8.2769,-8.2769,-8.2769,-8.2769,-8.2769,-8.2769,-8.2465,-8.213,-8.1514,-8.0737,-7.9632,-7.8318,-7.7009,-7.5676,-7.4123,-11.0252,-11.0402,-11.1214,-11.1522,-11.1522,-11.1522,-11.1522,-11.1522,-11.1522,-11.1522,-11.1522,-11.1522,-11.1598,-11.1598,-11.1791,-11.2099,-11.2791,-11.2203,-11.2197,-11.2129,-11.143,-10.998,-10.8541,-10.7518,-10.6691,-10.5805,-10.509,-10.4819,-10.4587,-10.447,-10.3868,-10.3198,-10.2897,-10.2566,-10.2242,-10.1948,-10.1684,-10.1758,-10.1611,-10.2015,-10.2705,-10.3366,-10.4137,-10.4908,-10.5715,-10.6082,-10.6156,-10.6156,-10.5678,-10.4247,-10.4871,-10.5201,-10.5348,-10.6009,-10.6302,-10.6302,-10.6339,-10.6376,-10.6376,-10.6376,-10.6206,-10.5736,-10.5611,-10.5163,-10.436,-10.3644,-10.2801,-10.1819,-10.057,-9.9651,-9.8855,-9.8249,-9.7901,-9.7631,-9.6548,-9.5905,-9.5466,-9.4451,-9.3571,-9.3571,-9.3571,-9.3571,-9.3571,-9.3571,-9.3453,-9.3335,-9.2822,-9.2214,-9.1312,-9.0293,-8.8947,-8.7455,-8.6227,-8.482,-8.4086,-8.3341,-8.3041,-8.2769,-8.2769,-8.2769,-8.2769,-8.2769,-8.2769,-8.2769,-8.2769,-8.2769,-8.2465,-8.1976,-8.136,-8.0423,-7.9312,-7.7964,-7.6484,-7.5312,-7.3951,-11.0598,-11.1252,-11.1445,-11.1522,-11.1522,-11.1522,-11.1522,-11.1522,-11.1522,-11.1522,-11.1522,-11.1522,-11.1868,-11.2406,-11.2445,-11.2906,-11.3676,-11.344,-11.351,-11.3374,-11.2947,-11.1984,-11.0645,-10.9371,-10.8193,-10.7437,-10.7106,-10.6504,-10.5942,-10.5563,-10.5036,-10.4334,-10.4145,-10.4071,-10.3776,-10.3186,-10.2849,-10.2622,-10.2101,-10.2132,-10.2669,-10.3439,-10.421,-10.5091,-10.5899,-10.6302,-10.6376,-10.6376,-10.6192,-10.5972,-10.5972,-10.6009,-10.6082,-10.6266,-10.6376,-10.6376,-10.6376,-10.6376,-10.6376,-10.6376,-10.6206,-10.5736,-10.5522,-10.5163,-10.4264,-10.3644,-10.2801,-10.1784,-10.057,-9.9416,-9.8493,-9.8126,-9.7732,-9.7157,-9.6345,-9.5533,-9.4958,-9.4146,-9.3639,-9.3571,-9.3571,-9.3571,-9.3571,-9.3571,-9.3571,-9.3453,-9.2943,-9.2337,-9.1312,-9.0293,-8.8947,-8.7455,-8.6086,-8.482,-8.4086,-8.3341,-8.292,-8.2769,-8.2769,-8.2769,-8.2769,-8.2769,-8.2769,-8.2769,-8.2769,-8.2617,-8.2465,-8.1976,-8.136,-8.0236,-7.8963,-7.7638,-7.6318,-7.5143,-7.3608,-11.1098,-11.1522,-11.1522,-11.1522,-11.1522,-11.1522,-11.1522,-11.1522,-11.1522,-11.1522,-11.1598,-11.1868,-11.2329,-11.2753,-11.3137,-11.3791,-11.4445,-11.4599,-11.4324,-11.3881,-11.349,-11.3062,-11.2442,-11.1291,-11.0152,-10.8855,-10.8179,-10.7591,-10.7181,-10.6806,-10.6319,-10.5501,-10.5464,-10.509,-10.4754,-10.431,-10.3711,-10.3186,-10.2817,-10.2702,-10.2904,-10.3235,-10.4072,-10.4871,-10.5568,-10.5935,-10.6339,-10.6376,-10.6376,-10.6376,-10.6376,-10.6376,-10.6376,-10.6376,-10.6376,-10.6376,-10.6376,-10.6376,-10.6376,-10.6376,-10.6206,-10.5823,-10.5736,-10.5163,-10.4419,-10.3706,-10.2801,-10.1784,-10.057,-9.9416,-9.8215,-9.7597,-9.7258,-9.6819,-9.5905,-9.5161,-9.4687,-9.4045,-9.3571,-9.3571,-9.3571,-9.3571,-9.3571,-9.3571,-9.3571,-9.3453,-9.2943,-9.2337,-9.1437,-9.0422,-8.8947,-8.7455,-8.6086,-8.482,-8.4086,-8.3341,-8.292,-8.2769,-8.2769,-8.2769,-8.2769,-8.2769,-8.2769,-8.2769,-8.2769,-8.2617,-8.2312,-8.1669,-8.1049,-7.992,-7.8641,-7.7338,-7.5844,-7.4491,-7.3116,-11.1522,-11.1522,-11.1522,-11.1522,-11.1522,-11.1522,-11.1522,-11.1522,-11.1675,-11.1791,-11.1868,-11.256,-11.306,-11.333,-11.3907,-11.4676,-11.5291,-11.5445,-11.5093,-11.458,-11.441,-11.4076,-11.3508,-11.2976,-11.1938,-10.9875,-10.9178,-10.8723,-10.8437,-10.8109,-10.7516,-10.6847,-10.6772,-10.6475,-10.573,-10.5284,-10.4949,-10.4276,-10.3644,-10.3268,-10.307,-10.3101,-10.3676,-10.4541,-10.5128,-10.5495,-10.6009,-10.6266,-10.6376,-10.6376,-10.6376,-10.6376,-10.6376,-10.6376,-10.6376,-10.6376,-10.6376,-10.6376,-10.6376,-10.6376,-10.6291,-10.5997,-10.5699,-10.5253,-10.4478,-10.3706,-10.2801,-10.1641,-10.0457,-9.9179,-9.8058,-9.7428,-9.6954,-9.648,-9.5466,-9.4755,-9.4451,-9.3943,-9.3639,-9.3571,-9.3571,-9.3571,-9.3571,-9.3571,-9.3571,-9.3453,-9.2943,-9.2304,-9.1437,-9.0389,-8.8947,-8.7455,-8.6086,-8.4497,-8.364,-8.3341,-8.292,-8.2769,-8.2769,-8.2769,-8.2769,-8.2769,-8.2769,-8.2769,-8.2769,-8.2465,-8.2159,-8.1514,-8.0737,-7.9603,-7.8318,-7.7009,-7.5508,-7.3978,-7.2594,-11.1522,-11.1522,-11.1522,-11.1522,-11.1522,-11.1522,-11.1522,-11.1637,-11.2214,-11.2483,-11.2637,-11.3407,-11.4176,-11.4676,-11.4945,-11.5561,-11.6061,-11.6138,-11.6099,-11.5824,-11.5694,-11.5323,-11.4727,-11.4401,-11.3565,-11.2413,-11.1144,-11.03,-10.9839,-10.9148,-10.8605,-10.8418,-10.8236,-10.7979,-10.7577,-10.717,-10.6541,-10.5693,-10.4765,-10.4059,-10.3496,-10.3112,-10.3242,-10.4146,-10.4651,-10.5128,-10.5495,-10.6046,-10.6376,-10.6376,-10.6376,-10.6376,-10.6376,-10.6376,-10.6376,-10.6376,-10.6376,-10.6376,-10.6376,-10.6376,-10.6291,-10.5997,-10.5736,-10.5253,-10.4608,-10.3706,-10.2801,-10.1532,-10.0114,-9.8855,-9.8092,-9.7225,-9.6582,-9.5973,-9.5229,-9.4451,-9.3977,-9.3706,-9.3571,-9.3571,-9.3571,-9.3571,-9.3571,-9.3571,-9.3571,-9.3453,-9.2943,-9.2337,-9.1562,-9.0422,-8.8947,-8.7455,-8.6086,-8.4497,-8.3191,-8.3041,-8.2769,-8.2769,-8.2769,-8.2769,-8.2769,-8.2769,-8.2769,-8.2769,-8.2617,-8.2465,-8.1976,-8.136,-8.0265,-7.9124,-7.7829,-7.6512,-7.4974,-7.3634,-7.2446,-11.1522,-11.1522,-11.1522,-11.1522,-11.1522,-11.1522,-11.1752,-11.2137,-11.256,-11.2983,-11.3522,-11.4291,-11.4868,-11.533,-11.5792,-11.6176,-11.6407,-11.6484,-11.6484,-11.6484,-11.64,-11.6193,-11.5724,-11.5494,-11.5204,-11.4426,-11.3363,-11.2143,-11.1485,-11.048,-10.9912,-10.9723,-10.9459,-10.9066,-10.8831,-10.8426,-10.7705,-10.6978,-10.6056,-10.4983,-10.3799,-10.301,-10.288,-10.3419,-10.4146,-10.4651,-10.5238,-10.5935,-10.6376,-10.6376,-10.6376,-10.6376,-10.6376,-10.6376,-10.6376,-10.6376,-10.6376,-10.6376,-10.6376,-10.6376,-10.6291,-10.6169,-10.5823,-10.5343,-10.4702,-10.3804,-10.2559,-10.0983,-9.9883,-9.8565,-9.755,-9.6751,-9.6041,-9.5296,-9.4586,-9.4045,-9.3706,-9.3605,-9.3571,-9.3571,-9.3571,-9.3571,-9.3571,-9.3571,-9.3571,-9.3335,-9.2943,-9.2337,-9.172,-9.0422,-8.898,-8.7178,-8.5657,-8.435,-8.3041,-8.292,-8.2769,-8.2769,-8.2769,-8.2769,-8.2769,-8.2769,-8.2769,-8.2769,-8.2617,-8.2435,-8.1823,-8.1204,-7.992,-7.8641,-7.7474,-7.6151,-7.4635,-7.3263,-7.207,-11.1522,-11.1522,-11.1522,-11.1522,-11.1522,-11.1675,-11.2099,-11.2676,-11.3137,-11.3676,-11.4291,-11.5099,-11.5522,-11.5715,-11.6099,-11.6484,-11.6484,-11.6484,-11.6484,-11.6484,-11.6484,-11.6439,-11.6347,-11.63,-11.609,-11.5724,-11.5192,-11.4244,-11.2984,-11.186,-11.1498,-11.1135,-11.0528,-10.9894,-10.9686,-10.9397,-10.8586,-10.7946,-10.733,-10.623,-10.4244,-10.2941,-10.2296,-10.2807,-10.3529,-10.4293,-10.4761,-10.5862,-10.6302,-10.6376,-10.6376,-10.6376,-10.6376,-10.6376,-10.6376,-10.6376,-10.6376,-10.6376,-10.6376,-10.6376,-10.6376,-10.6206,-10.5823,-10.5343,-10.4608,-10.3473,-10.2034,-10.0308,-9.9092,-9.8292,-9.711,-9.6108,-9.5432,-9.4823,-9.4146,-9.3571,-9.3605,-9.3571,-9.3571,-9.3571,-9.3571,-9.3571,-9.3571,-9.3571,-9.3571,-9.3335,-9.2822,-9.2214,-9.1471,-9.0293,-8.8814,-8.69,-8.537,-8.4055,-8.3191,-8.292,-8.2769,-8.2769,-8.2769,-8.2769,-8.2769,-8.2769,-8.2769,-8.2769,-8.2587,-8.2282,-8.1669,-8.0893,-7.9762,-7.8451,-7.7146,-7.5649,-7.4123,-7.2769,-7.1744,-11.1522,-11.1522,-11.1522,-11.1522,-11.1637,-11.2252,-11.2599,-11.2945,-11.4291,-11.5022,-11.5176,-11.5907,-11.6292,-11.633,-11.6369,-11.6484,-11.6484,-11.6484,-11.6484,-11.6484,-11.6484,-11.6484,-11.6439,-11.6347,-11.63,-11.6215,-11.6003,-11.5395,-11.4387,-11.3282,-11.2791,-11.26,-11.188,-11.1178,-11.0873,-11.0359,-10.9689,-10.9095,-10.8237,-10.655,-10.4576,-10.3873,-10.3202,-10.2817,-10.3389,-10.4228,-10.4504,-10.5605,-10.6339,-10.6376,-10.6376,-10.6376,-10.6376,-10.6376,-10.6376,-10.6376,-10.6376,-10.6376,-10.6376,-10.6376,-10.6291,-10.612,-10.5823,-10.5253,-10.4288,-10.297,-10.1423,-10.0079,-9.8818,-9.7678,-9.6602,-9.5601,-9.4992,-9.4518,-9.4011,-9.3673,-9.3571,-9.3571,-9.3571,-9.3571,-9.3571,-9.3571,-9.3571,-9.3571,-9.3453,-9.3216,-9.2702,-9.2092,-9.1186,-8.9871,-8.8411,-8.6338,-8.508,-8.3789,-8.3041,-8.292,-8.2769,-8.2769,-8.2769,-8.2769,-8.2769,-8.2769,-8.2769,-8.2769,-8.2435,-8.213,-8.1514,-8.0707,-7.9574,-7.8289,-7.6816,-7.517,-7.3488,-7.2271,-7.124,-11.1522,-11.1522,-11.1522,-11.1791,-11.2214,-11.256,-11.3291,-11.4214,-11.4945,-11.5561,-11.5945,-11.6292,-11.6484,-11.6484,-11.6484,-11.6484,-11.6484,-11.6484,-11.6484,-11.6484,-11.6484,-11.6484,-11.6484,-11.6439,-11.6393,-11.6393,-11.6309,-11.6232,-11.539,-11.4706,-11.4095,-11.3942,-11.3164,-11.2296,-11.1931,-11.1359,-11.0644,-10.9769,-10.8566,-10.7165,-10.594,-10.5097,-10.4243,-10.3486,-10.4397,-10.4677,-10.4917,-10.5642,-10.6339,-10.6376,-10.6376,-10.6376,-10.6376,-10.6376,-10.6376,-10.6376,-10.6376,-10.6376,-10.6376,-10.6376,-10.6291,-10.5997,-10.5699,-10.5071,-10.3866,-10.2559,-10.1029,-9.9377,-9.8441,-9.7304,-9.5992,-9.5093,-9.4586,-9.4146,-9.3808,-9.3706,-9.3571,-9.3571,-9.3571,-9.3571,-9.3571,-9.3571,-9.3571,-9.3571,-9.3453,-9.3096,-9.2581,-9.1968,-9.0773,-8.9213,-8.7561,-8.5657,-8.4497,-8.364,-8.3191,-8.2769,-8.2769,-8.2769,-8.2769,-8.2769,-8.2769,-8.2769,-8.2769,-8.2617,-8.2465,-8.1976,-8.1514,-8.0551,-7.9443,-7.7993,-7.6345,-7.4832,-7.3142,-7.192,-7.0885,-11.1598,-11.1791,-11.1791,-11.2137,-11.2753,-11.3137,-11.406,-11.5215,-11.5522,-11.5945,-11.6369,-11.6484,-11.6484,-11.6484,-11.6484,-11.6484,-11.6484,-11.6484,-11.6484,-11.6484,-11.6484,-11.6484,-11.6484,-11.6484,-11.6484,-11.6522,-11.6439,-11.64,-11.6201,-11.5724,-11.5284,-11.5198,-11.4257,-11.3595,-11.2971,-11.2449,-11.1823,-11.0606,-10.919,-10.8059,-10.718,-10.6205,-10.5433,-10.5053,-10.522,-10.5458,-10.5321,-10.5935,-10.6376,-10.6376,-10.6376,-10.6376,-10.6376,-10.6376,-10.6376,-10.6376,-10.6376,-10.6376,-10.6376,-10.6376,-10.6206,-10.5911,-10.5343,-10.4572,-10.3509,-10.2281,-10.0925,-9.9067,-9.7961,-9.6622,-9.5298,-9.4586,-9.4146,-9.3842,-9.3605,-9.3571,-9.3571,-9.3571,-9.3571,-9.3571,-9.3571,-9.3571,-9.3571,-9.3571,-9.3453,-9.3062,-9.2459,-9.1811,-9.0389,-8.8545,-8.6868,-8.508,-8.435,-8.364,-8.3041,-8.2769,-8.2769,-8.2769,-8.2769,-8.2769,-8.2769,-8.2769,-8.2769,-8.2617,-8.2312,-8.1823,-8.1204,-8.0265,-7.9124,-7.7829,-7.6345,-7.4662,-7.3116,-7.1744,-7.0528,-11.1945,-11.2637,-11.2637,-11.2714,-11.2906,-11.4445,-11.5138,-11.5445,-11.6099,-11.6369,-11.6484,-11.6484,-11.6484,-11.6484,-11.6484,-11.6484,-11.6484,-11.6484,-11.6561,-11.6561,-11.6522,-11.6676,-11.6792,-11.683,-11.6715,-11.6715,-11.6869,-11.6792,-11.6522,-11.6554,-11.627,-11.6108,-11.5246,-11.4891,-11.4306,-11.3529,-11.2603,-11.1435,-11.0169,-10.8968,-10.8107,-10.7255,-10.6467,-10.5619,-10.5609,-10.5737,-10.5531,-10.6056,-10.6376,-10.6376,-10.6376,-10.6376,-10.6376,-10.6376,-10.6376,-10.6376,-10.6376,-10.6376,-10.6376,-10.6376,-10.612,-10.5559,-10.4887,-10.4132,-10.3309,-10.2281,-10.082,-9.8939,-9.7515,-9.6213,-9.4959,-9.418,-9.3774,-9.3673,-9.3571,-9.3571,-9.3571,-9.3571,-9.3571,-9.3571,-9.3571,-9.3571,-9.3571,-9.3571,-9.3216,-9.2822,-9.1811,-9.1186,-8.9577,-8.7867,-8.6448,-8.508,-8.435,-8.364,-8.3041,-8.2769,-8.2769,-8.2769,-8.2769,-8.2769,-8.2769,-8.2769,-8.2769,-8.2465,-8.2159,-8.1514,-8.0893,-7.992,-7.8802,-7.7666,-7.6179,-7.4294,-7.2594,-7.1037,-7.0145,-11.2406,-11.2791,-11.383,-11.4291,-11.4368,-11.5022,-11.5561,-11.6022,-11.6369,-11.6484,-11.6484,-11.6484,-11.6484,-11.6484,-11.6484,-11.6484,-11.6484,-11.6484,-11.6792,-11.7176,-11.733,-11.7638,-11.783,-11.7984,-11.81,-11.8023,-11.8023,-11.7715,-11.7369,-11.7292,-11.6869,-11.6432,-11.6078,-11.5579,-11.5041,-11.4257,-11.3135,-11.2091,-11.1177,-11.0165,-10.9032,-10.8389,-10.776,-10.7033,-10.6616,-10.6518,-10.6305,-10.6276,-10.6339,-10.6376,-10.6376,-10.6376,-10.6376,-10.6376,-10.6376,-10.6376,-10.6376,-10.6376,-10.6376,-10.6376,-10.6206,-10.5522,-10.4702,-10.3974,-10.3273,-10.1892,-10.0156,-9.8429,-9.6829,-9.5599,-9.4231,-9.3774,-9.3605,-9.3571,-9.3571,-9.3571,-9.3571,-9.3571,-9.3571,-9.3571,-9.3571,-9.3571,-9.3571,-9.3571,-9.3216,-9.2702,-9.1562,-9.026,-8.868,-8.7317,-8.6054,-8.4935,-8.4203,-8.364,-8.292,-8.2769,-8.2769,-8.2769,-8.2769,-8.2769,-8.2769,-8.2769,-8.2769,-8.2312,-8.1852,-8.136,-8.058,-7.9443,-7.848,-7.7174,-7.5649,-7.378,-7.207,-7.0324,-6.9786,-11.2829,-11.3253,-11.4676,-11.5291,-11.533,-11.5561,-11.5945,-11.6407,-11.6484,-11.6484,-11.6484,-11.6484,-11.6484,-11.6484,-11.6484,-11.6484,-11.6599,-11.683,-11.7253,-11.7677,-11.81,-11.8561,-11.8908,-11.9023,-11.8869,-11.91,-11.9061,-11.8638,-11.8215,-11.8177,-11.7907,-11.7484,-11.6946,-11.6446,-11.5631,-11.4656,-11.3702,-11.2947,-11.2137,-11.1387,-11.0197,-10.9583,-10.8787,-10.8072,-10.7553,-10.7126,-10.6726,-10.659,-10.646,-10.6376,-10.6376,-10.6376,-10.6376,-10.6376,-10.6376,-10.6376,-10.6376,-10.6376,-10.6376,-10.6206,-10.5997,-10.547,-10.4572,-10.384,-10.2828,-10.1434,-9.9623,-9.7745,-9.6418,-9.5054,-9.379,-9.3571,-9.3571,-9.3571,-9.3571,-9.3571,-9.3571,-9.3571,-9.3571,-9.3571,-9.3571,-9.3571,-9.3453,-9.3335,-9.2822,-9.2058,-9.0933,-8.9609,-8.8275,-8.69,-8.58,-8.4789,-8.3938,-8.3491,-8.292,-8.289,-8.2709,-8.2769,-8.2769,-8.2769,-8.2769,-8.2769,-8.2617,-8.2312,-8.1669,-8.1049,-8.0107,-7.8963,-7.7801,-7.665,-7.4805,-7.2769,-7.1542,-6.9966,-6.9606,-11.3214,-11.406,-11.4945,-11.533,-11.5445,-11.6138,-11.6446,-11.6484,-11.6484,-11.6484,-11.6484,-11.6484,-11.6484,-11.6484,-11.6484,-11.6561,-11.683,-11.7369,-11.7869,-11.8215,-11.8792,-11.91,-11.9292,-11.9446,-11.9638,-11.9215,-11.9369,-11.9446,-11.9061,-11.9061,-11.8946,-11.8638,-11.7984,-11.7253,-11.6446,-11.5548,-11.4986,-11.4651,-11.3584,-11.2541,-11.1442,-11.0732,-10.9839,-10.8841,-10.8112,-10.7616,-10.6998,-10.6792,-10.6544,-10.6376,-10.6376,-10.6376,-10.6376,-10.6376,-10.6376,-10.6376,-10.6376,-10.6376,-10.6376,-10.5911,-10.5648,-10.529,-10.4419,-10.3437,-10.2382,-10.0975,-9.9159,-9.7287,-9.6097,-9.4986,-9.4077,-9.3571,-9.3571,-9.3571,-9.3571,-9.3571,-9.3571,-9.3571,-9.3571,-9.3571,-9.3571,-9.3571,-9.3335,-9.3062,-9.2459,-9.1562,-9.0293,-8.9048,-8.7635,-8.64,-8.5204,-8.4092,-8.3213,-8.2949,-8.25,-8.274,-8.2679,-8.2739,-8.2769,-8.2769,-8.2769,-8.2769,-8.2617,-8.2159,-8.1514,-8.0893,-7.9762,-7.848,-7.6816,-7.4974,-7.3263,-7.1568,-7.0503,-6.9991,-6.9631,-11.406,-11.4945,-11.5753,-11.6061,-11.6138,-11.6369,-11.6484,-11.6484,-11.6484,-11.6484,-11.6484,-11.6484,-11.6484,-11.6484,-11.6599,-11.683,-11.7369,-11.7561,-11.8061,-11.9408,-11.9754,-12.0292,-12.0523,-12.0562,-12.0639,-12.0716,-12.0716,-12.0292,-11.9908,-11.9908,-11.9485,-11.91,-11.8792,-11.7869,-11.683,-11.6054,-11.5732,-11.5054,-11.4349,-11.3671,-11.2527,-11.1773,-11.0865,-10.9575,-10.8893,-10.8031,-10.7189,-10.6947,-10.6627,-10.646,-10.6376,-10.6376,-10.6376,-10.6376,-10.6376,-10.6376,-10.6376,-10.6376,-10.6291,-10.5911,-10.5559,-10.5108,-10.4288,-10.3095,-10.1886,-10.0308,-9.8458,-9.6873,-9.5652,-9.4495,-9.3874,-9.3571,-9.3571,-9.3571,-9.3571,-9.3571,-9.3571,-9.3571,-9.3571,-9.3571,-9.3571,-9.3571,-9.3453,-9.2741,-9.2103,-9.1173,-8.9999,-8.8465,-8.7022,-8.5728,-8.4474,-8.3038,-8.2219,-8.2108,-8.208,-8.235,-8.2559,-8.2739,-8.2769,-8.2769,-8.2769,-8.2769,-8.2312,-8.2006,-8.136,-8.058,-7.8935,-7.7146,-7.5143,-7.3116,-7.192,-7.1037,-7.035,-6.9812,-6.9451,-11.4484,-11.5368,-11.6138,-11.6484,-11.6484,-11.6484,-11.6484,-11.6484,-11.6484,-11.6484,-11.6484,-11.6484,-11.6484,-11.6561,-11.6869,-11.7138,-11.783,-11.8523,-11.8908,-12.0331,-12.0639,-12.1023,-12.137,-12.16,-12.137,-12.16,-12.1562,-12.1216,-12.0793,-12.0754,-12.0331,-11.9754,-11.9485,-11.8754,-11.7792,-11.7176,-11.647,-11.5792,-11.5177,-11.4579,-11.3591,-11.275,-11.1825,-11.0614,-10.9599,-10.8707,-10.7639,-10.7058,-10.671,-10.646,-10.6376,-10.6376,-10.6376,-10.6376,-10.6376,-10.6376,-10.6376,-10.6376,-10.6291,-10.5911,-10.547,-10.5108,-10.4096,-10.2816,-10.1325,-9.9814,-9.8035,-9.6416,-9.5138,-9.4291,-9.3723,-9.3689,-9.3571,-9.3571,-9.3571,-9.3571,-9.3571,-9.3571,-9.3571,-9.3571,-9.3503,-9.3537,-9.3352,-9.2607,-9.1803,-9.0842,-8.9767,-8.8078,-8.6347,-8.5057,-8.3714,-8.2345,-8.1528,-8.1509,-8.1721,-8.1871,-8.223,-8.2679,-8.2769,-8.2769,-8.2769,-8.2769,-8.2312,-8.1698,-8.1049,-8.0078,-7.7936,-7.5956,-7.4123,-7.2769,-7.1568,-7.0707,-6.9991,-6.9812,-6.9451,-11.4522,-11.5407,-11.6176,-11.6484,-11.6484,-11.6484,-11.6484,-11.6484,-11.6484,-11.6484,-11.6484,-11.6484,-11.6599,-11.6753,-11.7407,-11.7907,-11.8292,-11.9523,-12.01,-12.0562,-12.11,-12.1447,-12.1562,-12.16,-12.16,-12.16,-12.1562,-12.1523,-12.1523,-12.137,-12.0946,-12.0523,-12.0369,-11.9715,-11.8985,-11.8331,-11.7477,-11.6684,-11.6157,-11.5447,-11.4464,-11.3759,-11.2645,-11.1509,-11.0345,-10.9265,-10.8316,-10.7471,-10.6976,-10.6581,-10.6376,-10.6376,-10.6376,-10.6376,-10.6376,-10.6376,-10.6376,-10.6376,-10.6291,-10.5911,-10.5433,-10.4887,-10.3856,-10.237,-10.073,-9.9142,-9.7356,-9.5949,-9.4807,-9.4175,-9.3689,-9.3689,-9.3571,-9.3571,-9.3571,-9.3571,-9.3571,-9.3571,-9.3571,-9.3537,-9.3402,-9.3334,-9.3048,-9.2338,-9.1168,-9.0147,-8.8982,-8.7306,-8.5754,-8.4123,-8.2815,-8.1827,-8.1196,-8.1061,-8.1212,-8.1482,-8.208,-8.2559,-8.2739,-8.2769,-8.2769,-8.2769,-8.2282,-8.1669,-8.1049,-7.9603,-7.6981,-7.5143,-7.3806,-7.2446,-7.1214,-7.0528,-6.9812,-6.9631,-6.9451,-11.483,-11.6138,-11.6407,-11.6484,-11.6484,-11.6484,-11.6484,-11.6484,-11.6484,-11.6484,-11.6484,-11.6484,-11.6792,-11.7446,-11.7677,-11.8523,-11.9369,-12.01,-12.0639,-12.11,-12.1408,-12.1523,-12.16,-12.16,-12.16,-12.16,-12.16,-12.16,-12.1562,-12.16,-12.1562,-12.1254,-12.11,-12.06,-12.0139,-11.9677,-11.8631,-11.77,-11.7165,-11.6264,-11.5359,-11.4579,-11.3428,-11.2261,-11.139,-11.0197,-10.8718,-10.807,-10.7455,-10.6607,-10.6413,-10.6376,-10.6376,-10.6376,-10.6376,-10.6376,-10.6376,-10.6376,-10.6291,-10.5911,-10.5433,-10.465,-10.34,-10.166,-9.9956,-9.8402,-9.683,-9.5423,-9.4624,-9.3991,-9.3689,-9.3571,-9.3571,-9.3571,-9.3571,-9.3571,-9.3571,-9.3571,-9.3537,-9.3267,-9.3165,-9.2759,-9.2507,-9.1531,-9.04,-8.9353,-8.8132,-8.6469,-8.4993,-8.3407,-8.217,-8.1075,-8.0387,-8.0165,-8.0704,-8.1033,-8.1781,-8.2409,-8.2589,-8.2739,-8.2769,-8.2617,-8.2282,-8.1514,-8.0236,-7.8289,-7.5817,-7.4321,-7.3488,-7.2096,-7.0885,-7.035,-6.9812,-6.9631,-6.9451,-11.4984,-11.6407,-11.6484,-11.6484,-11.6484,-11.6484,-11.6484,-11.6484,-11.6484,-11.6484,-11.6484,-11.6484,-11.6984,-11.7753,-11.8215,-11.9023,-12.0177,-12.0677,-12.1139,-12.137,-12.16,-12.16,-12.16,-12.16,-12.16,-12.16,-12.16,-12.16,-12.16,-12.16,-12.1562,-12.1562,-12.16,-12.1293,-12.0908,-12.0639,-12.0062,-11.8892,-11.7904,-11.6992,-11.6122,-11.5246,-11.4033,-11.3018,-11.2363,-11.083,-10.9378,-10.8919,-10.8008,-10.7085,-10.6853,-10.667,-10.6523,-10.6376,-10.6376,-10.6376,-10.6376,-10.6376,-10.6291,-10.5911,-10.5433,-10.4505,-10.2933,-10.1197,-9.9534,-9.8015,-9.6373,-9.4967,-9.4372,-9.3923,-9.3806,-9.3571,-9.3571,-9.3571,-9.3571,-9.3571,-9.3571,-9.3571,-9.3334,-9.303,-9.2624,-9.2034,-9.1362,-9.0506,-8.9546,-8.8537,-8.7222,-8.5535,-8.4137,-8.2628,-8.1463,-8.0467,-7.9754,-7.9327,-7.9956,-8.0734,-8.1422,-8.211,-8.2559,-8.2679,-8.2739,-8.2587,-8.213,-8.0864,-7.9255,-7.731,-7.5508,-7.4347,-7.3316,-7.192,-7.0707,-7.0324,-6.9786,-6.9451,-6.9451,-11.4984,-11.6484,-11.6484,-11.6484,-11.6484,-11.6484,-11.6484,-11.6484,-11.6484,-11.6484,-11.6484,-11.6599,-11.7176,-11.81,-11.8831,-11.9638,-12.0562,-12.1177,-12.137,-12.16,-12.16,-12.16,-12.16,-12.16,-12.16,-12.16,-12.16,-12.16,-12.16,-12.16,-12.16,-12.16,-12.16,-12.1447,-12.1408,-12.137,-12.0869,-12.0169,-11.8787,-11.7566,-11.6673,-11.5589,-11.4449,-11.3582,-11.2627,-11.1463,-11.0606,-10.976,-10.8976,-10.8125,-10.7477,-10.7147,-10.6633,-10.6376,-10.6376,-10.6376,-10.6376,-10.6376,-10.6291,-10.5911,-10.547,-10.4288,-10.2502,-10.0913,-9.9358,-9.7597,-9.5924,-9.4864,-9.427,-9.3923,-9.3689,-9.3571,-9.3571,-9.3571,-9.3571,-9.3571,-9.3571,-9.3368,-9.2861,-9.2421,-9.1744,-9.1223,-9.0755,-8.9935,-8.8846,-8.7722,-8.651,-8.4923,-8.3403,-8.2099,-8.0971,-8.0041,-7.9423,-7.9088,-7.9776,-8.0494,-8.1093,-8.1721,-8.232,-8.2649,-8.2739,-8.2435,-8.21,-8.0522,-7.8935,-7.7146,-7.5508,-7.4347,-7.2969,-7.1568,-7.0707,-7.0324,-6.9966,-6.9451,-6.9451,-11.4984,-11.6484,-11.6484,-11.6484,-11.6484,-11.6484,-11.6484,-11.6484,-11.6484,-11.6522,-11.6599,-11.7215,-11.7946,-11.8831,-11.9562,-12.0369,-12.1139,-12.137,-12.1523,-12.16,-12.16,-12.16,-12.16,-12.16,-12.16,-12.16,-12.16,-12.16,-12.16,-12.16,-12.16,-12.16,-12.16,-12.16,-12.16,-12.16,-12.137,-12.1023,-11.9977,-11.8422,-11.7148,-11.6197,-11.5129,-11.4066,-11.2926,-11.2021,-11.1206,-11.0544,-10.9629,-10.8738,-10.7881,-10.722,-10.6449,-10.6413,-10.6376,-10.6376,-10.6376,-10.6376,-10.6291,-10.5911,-10.5433,-10.4324,-10.2646,-10.0949,-9.9147,-9.7213,-9.5752,-9.4909,-9.427,-9.3923,-9.3689,-9.3689,-9.3571,-9.3571,-9.3571,-9.3571,-9.3537,-9.2928,-9.2353,-9.1677,-9.0932,-9.0365,-8.9932,-8.9132,-8.8128,-8.7062,-8.6053,-8.473,-8.334,-8.2037,-8.091,-8.0041,-7.922,-7.9088,-7.9656,-8.0315,-8.0943,-8.1631,-8.226,-8.2529,-8.2739,-8.2282,-8.1639,-8.0365,-7.8774,-7.7146,-7.5508,-7.3978,-7.2621,-7.1391,-7.0528,-7.0145,-6.9786,-6.9451,-6.9451,-11.4753,-11.5945,-11.633,-11.6484,-11.6484,-11.6484,-11.6484,-11.6484,-11.6484,-11.6715,-11.7061,-11.7638,-11.8484,-11.9485,-12.0139,-12.0793,-12.1485,-12.1562,-12.16,-12.16,-12.16,-12.16,-12.16,-12.16,-12.16,-12.16,-12.16,-12.16,-12.16,-12.16,-12.16,-12.16,-12.16,-12.16,-12.16,-12.16,-12.16,-12.1523,-12.0783,-11.9519,-11.7874,-11.6729,-11.5582,-11.4404,-11.3375,-11.239,-11.1761,-11.1172,-11.0477,-10.9338,-10.8248,-10.7587,-10.6926,-10.6596,-10.6413,-10.6376,-10.6376,-10.6376,-10.6291,-10.5911,-10.5433,-10.4324,-10.2467,-10.0664,-9.9288,-9.7387,-9.5758,-9.4806,-9.4236,-9.3923,-9.3689,-9.3571,-9.3571,-9.3571,-9.3503,-9.347,-9.2759,-9.1913,-9.1406,-9.0899,-9.0142,-8.9555,-8.9077,-8.858,-8.756,-8.6479,-8.5393,-8.4475,-8.3045,-8.1839,-8.0879,-7.99,-7.922,-7.8993,-7.9178,-7.9986,-8.0853,-8.1512,-8.22,-8.2529,-8.2769,-8.1976,-8.1175,-8.0049,-7.8774,-7.7146,-7.5508,-7.3978,-7.2621,-7.1214,-7.0503,-6.9991,-6.9631,-6.9451,-6.9451,-11.4407,-11.5368,-11.6176,-11.6484,-11.6484,-11.6484,-11.6484,-11.6522,-11.6638,-11.7176,-11.7946,-11.8138,-11.9061,-11.9831,-12.0485,-12.1023,-12.1408,-12.1523,-12.16,-12.16,-12.16,-12.16,-12.16,-12.16,-12.16,-12.16,-12.16,-12.16,-12.16,-12.16,-12.16,-12.16,-12.16,-12.16,-12.16,-12.16,-12.1562,-12.1515,-12.1052,-12.0452,-11.8947,-11.7338,-11.596,-11.4818,-11.3711,-11.2766,-11.2206,-11.1679,-11.114,-11.0184,-10.8909,-10.8064,-10.744,-10.6963,-10.6596,-10.6486,-10.6376,-10.6376,-10.6291,-10.5911,-10.5433,-10.4397,-10.2287,-10.0522,-9.9182,-9.76,-9.5862,-9.4919,-9.4351,-9.3889,-9.3806,-9.3571,-9.3571,-9.347,-9.3368,-9.3098,-9.2049,-9.1102,-9.0594,-9.0154,-8.9601,-8.8834,-8.8458,-8.7962,-8.7104,-8.6013,-8.4889,-8.3863,-8.2811,-8.1703,-8.0601,-7.99,-7.919,-7.8993,-7.9028,-7.9836,-8.0853,-8.1482,-8.214,-8.2499,-8.2617,-8.1976,-8.1175,-8.0207,-7.8745,-7.7146,-7.5312,-7.3806,-7.242,-7.1037,-7.0324,-6.9812,-6.9631,-6.9451,-6.927,-11.3868,-11.5368,-11.6176,-11.6484,-11.6484,-11.6484,-11.6484,-11.6638,-11.7253,-11.8061,-11.8792,-11.9523,-12.0139,-12.0331,-12.11,-12.1485,-12.1485,-12.16,-12.16,-12.16,-12.16,-12.16,-12.16,-12.16,-12.16,-12.16,-12.16,-12.16,-12.16,-12.16,-12.16,-12.16,-12.16,-12.16,-12.16,-12.16,-12.16,-12.1506,-12.1244,-12.0591,-11.9347,-11.7794,-11.6338,-11.5114,-11.3748,-11.2799,-11.2124,-11.1911,-11.1546,-11.0919,-10.9973,-10.8872,-10.8064,-10.7477,-10.7,-10.6633,-10.6486,-10.6376,-10.6206,-10.5911,-10.5343,-10.4743,-10.261,-10.0593,-9.911,-9.7427,-9.5937,-9.4841,-9.427,-9.4039,-9.3806,-9.3689,-9.3571,-9.3233,-9.3064,-9.2353,-9.1474,-9.0696,-9.0087,-8.9715,-8.9196,-8.8767,-8.831,-8.7728,-8.7104,-8.589,-8.473,-8.3701,-8.2544,-8.143,-8.0352,-7.9759,-7.919,-7.9352,-7.9567,-8.0105,-8.0943,-8.1572,-8.211,-8.2529,-8.2617,-8.1976,-8.1175,-8.0207,-7.8774,-7.7174,-7.5481,-7.3634,-7.242,-7.1037,-7.0171,-6.9451,-6.9451,-6.9451,-6.927]}]]